<?xml version="1.0" encoding="UTF-8" standalone="no" ?>
<gpx xmlns="http://www.topografix.com/GPX/1/1" xmlns:xsi="http://www.w3.org/2001/XMLSchema-instance" xsi:schemaLocation="http://www.topografix.com/GPX/1/1 http://www.topografix.com/GPX/1/1/gpx.xsd" version="1.1" creator="VisuGPX - https://www.visugpx.com">
  <metadata>
    <name>livret 37 km plaimpied st just soye</name>
  </metadata>
  <trk>
    <name><![CDATA[VTT, 39.03 km le 13_08_2021 on AllTrails]]></name>
    <extensions>
      <line xmlns="http://www.topografix.com/GPX/gpx_style/0/2">
        <color>0000FF</color>
        <width>4</width>
      </line>
    </extensions>
    <trkseg>
      <trkpt lat="47.06733" lon="2.40697">
        <ele>149</ele>
        <time>2021-08-13T12:40:40Z</time>
      </trkpt>
      <trkpt lat="47.06733" lon="2.40697">
        <ele>149</ele>
        <time>2021-08-13T12:40:40Z</time>
      </trkpt>
      <trkpt lat="47.06733" lon="2.40696">
        <ele>149</ele>
        <time>2021-08-13T12:40:40Z</time>
      </trkpt>
      <trkpt lat="47.06733" lon="2.40695">
        <ele>149</ele>
        <time>2021-08-13T12:40:40Z</time>
      </trkpt>
      <trkpt lat="47.06732" lon="2.40693">
        <ele>149</ele>
        <time>2021-08-13T12:40:40Z</time>
      </trkpt>
      <trkpt lat="47.06732" lon="2.40691">
        <ele>149</ele>
        <time>2021-08-13T12:40:40Z</time>
      </trkpt>
      <trkpt lat="47.06732" lon="2.40689">
        <ele>149</ele>
        <time>2021-08-13T12:40:40Z</time>
      </trkpt>
      <trkpt lat="47.06732" lon="2.40688">
        <ele>149</ele>
        <time>2021-08-13T12:40:40Z</time>
      </trkpt>
      <trkpt lat="47.06732" lon="2.40687">
        <ele>149</ele>
        <time>2021-08-13T12:40:40Z</time>
      </trkpt>
      <trkpt lat="47.06732" lon="2.40686">
        <ele>149</ele>
        <time>2021-08-13T12:40:40Z</time>
      </trkpt>
      <trkpt lat="47.06732" lon="2.40686">
        <ele>149</ele>
        <time>2021-08-13T12:40:40Z</time>
      </trkpt>
      <trkpt lat="47.06732" lon="2.40686">
        <ele>149</ele>
        <time>2021-08-13T12:40:40Z</time>
      </trkpt>
      <trkpt lat="47.06732" lon="2.40686">
        <ele>149</ele>
        <time>2021-08-13T12:40:40Z</time>
      </trkpt>
      <trkpt lat="47.06732" lon="2.40686">
        <ele>149</ele>
        <time>2021-08-13T12:40:40Z</time>
      </trkpt>
      <trkpt lat="47.06733" lon="2.40686">
        <ele>149</ele>
        <time>2021-08-13T12:40:40Z</time>
      </trkpt>
      <trkpt lat="47.06733" lon="2.40685">
        <ele>149</ele>
        <time>2021-08-13T12:40:40Z</time>
      </trkpt>
      <trkpt lat="47.06733" lon="2.40685">
        <ele>149</ele>
        <time>2021-08-13T12:40:40Z</time>
      </trkpt>
      <trkpt lat="47.06732" lon="2.40685">
        <ele>149</ele>
        <time>2021-08-13T12:40:40Z</time>
      </trkpt>
      <trkpt lat="47.06732" lon="2.40685">
        <ele>149</ele>
        <time>2021-08-13T12:40:40Z</time>
      </trkpt>
      <trkpt lat="47.06732" lon="2.40685">
        <ele>149</ele>
        <time>2021-08-13T12:40:40Z</time>
      </trkpt>
      <trkpt lat="47.06732" lon="2.40685">
        <ele>149</ele>
        <time>2021-08-13T12:40:40Z</time>
      </trkpt>
      <trkpt lat="47.06732" lon="2.40685">
        <ele>149</ele>
        <time>2021-08-13T12:40:40Z</time>
      </trkpt>
      <trkpt lat="47.06732" lon="2.40684">
        <ele>149</ele>
        <time>2021-08-13T12:40:40Z</time>
      </trkpt>
      <trkpt lat="47.06731" lon="2.40683">
        <ele>149</ele>
        <time>2021-08-13T12:40:40Z</time>
      </trkpt>
      <trkpt lat="47.06731" lon="2.40684">
        <ele>149</ele>
        <time>2021-08-13T12:40:40Z</time>
      </trkpt>
      <trkpt lat="47.06731" lon="2.40684">
        <ele>149</ele>
        <time>2021-08-13T12:40:40Z</time>
      </trkpt>
      <trkpt lat="47.06731" lon="2.40684">
        <ele>149</ele>
        <time>2021-08-13T12:40:40Z</time>
      </trkpt>
      <trkpt lat="47.06731" lon="2.40683">
        <ele>149</ele>
        <time>2021-08-13T12:40:40Z</time>
      </trkpt>
      <trkpt lat="47.0673" lon="2.40682">
        <ele>149</ele>
        <time>2021-08-13T12:40:40Z</time>
      </trkpt>
      <trkpt lat="47.06731" lon="2.4068">
        <ele>149</ele>
        <time>2021-08-13T12:40:40Z</time>
      </trkpt>
      <trkpt lat="47.06731" lon="2.40678">
        <ele>149</ele>
        <time>2021-08-13T12:40:40Z</time>
      </trkpt>
      <trkpt lat="47.06731" lon="2.40676">
        <ele>149</ele>
        <time>2021-08-13T12:40:40Z</time>
      </trkpt>
      <trkpt lat="47.06732" lon="2.40674">
        <ele>149</ele>
        <time>2021-08-13T12:40:40Z</time>
      </trkpt>
      <trkpt lat="47.06735" lon="2.40673">
        <ele>149</ele>
        <time>2021-08-13T12:40:40Z</time>
      </trkpt>
      <trkpt lat="47.06738" lon="2.40673">
        <ele>149</ele>
        <time>2021-08-13T12:40:40Z</time>
      </trkpt>
      <trkpt lat="47.06742" lon="2.40673">
        <ele>149</ele>
        <time>2021-08-13T12:40:40Z</time>
      </trkpt>
      <trkpt lat="47.06747" lon="2.40673">
        <ele>149</ele>
        <time>2021-08-13T12:40:40Z</time>
      </trkpt>
      <trkpt lat="47.06771" lon="2.40663">
        <ele>149</ele>
        <time>2021-08-13T12:40:40Z</time>
      </trkpt>
      <trkpt lat="47.06797" lon="2.4065">
        <ele>149</ele>
        <time>2021-08-13T12:40:40Z</time>
      </trkpt>
      <trkpt lat="47.06809" lon="2.40644">
        <ele>148</ele>
        <time>2021-08-13T12:40:40Z</time>
      </trkpt>
      <trkpt lat="47.06815" lon="2.40641">
        <ele>148</ele>
        <time>2021-08-13T12:40:40Z</time>
      </trkpt>
      <trkpt lat="47.06821" lon="2.40638">
        <ele>147</ele>
        <time>2021-08-13T12:40:40Z</time>
      </trkpt>
      <trkpt lat="47.06827" lon="2.40634">
        <ele>147</ele>
        <time>2021-08-13T12:40:40Z</time>
      </trkpt>
      <trkpt lat="47.06833" lon="2.40631">
        <ele>146</ele>
        <time>2021-08-13T12:40:40Z</time>
      </trkpt>
      <trkpt lat="47.06839" lon="2.40629">
        <ele>146</ele>
        <time>2021-08-13T12:40:40Z</time>
      </trkpt>
      <trkpt lat="47.06845" lon="2.40626">
        <ele>146</ele>
        <time>2021-08-13T12:40:40Z</time>
      </trkpt>
      <trkpt lat="47.06851" lon="2.40623">
        <ele>146</ele>
        <time>2021-08-13T12:40:40Z</time>
      </trkpt>
      <trkpt lat="47.06857" lon="2.4062">
        <ele>146</ele>
        <time>2021-08-13T12:40:40Z</time>
      </trkpt>
      <trkpt lat="47.06862" lon="2.40617">
        <ele>146</ele>
        <time>2021-08-13T12:40:40Z</time>
      </trkpt>
      <trkpt lat="47.06866" lon="2.40615">
        <ele>146</ele>
        <time>2021-08-13T12:40:40Z</time>
      </trkpt>
      <trkpt lat="47.06869" lon="2.40612">
        <ele>146</ele>
        <time>2021-08-13T12:40:40Z</time>
      </trkpt>
      <trkpt lat="47.0687" lon="2.40606">
        <ele>146</ele>
        <time>2021-08-13T12:40:40Z</time>
      </trkpt>
      <trkpt lat="47.0687" lon="2.406">
        <ele>146</ele>
        <time>2021-08-13T12:40:40Z</time>
      </trkpt>
      <trkpt lat="47.0687" lon="2.40593">
        <ele>146</ele>
        <time>2021-08-13T12:40:40Z</time>
      </trkpt>
      <trkpt lat="47.06887" lon="2.40571">
        <ele>146</ele>
        <time>2021-08-13T12:40:40Z</time>
      </trkpt>
      <trkpt lat="47.06913" lon="2.40562">
        <ele>145</ele>
        <time>2021-08-13T12:40:40Z</time>
      </trkpt>
      <trkpt lat="47.0694" lon="2.40552">
        <ele>144</ele>
        <time>2021-08-13T12:40:40Z</time>
      </trkpt>
      <trkpt lat="47.06968" lon="2.40544">
        <ele>142</ele>
        <time>2021-08-13T12:40:40Z</time>
      </trkpt>
      <trkpt lat="47.06998" lon="2.40535">
        <ele>142</ele>
        <time>2021-08-13T12:40:40Z</time>
      </trkpt>
      <trkpt lat="47.07019" lon="2.40519">
        <ele>142</ele>
        <time>2021-08-13T12:40:40Z</time>
      </trkpt>
      <trkpt lat="47.07021" lon="2.4051">
        <ele>142</ele>
        <time>2021-08-13T12:40:40Z</time>
      </trkpt>
      <trkpt lat="47.07015" lon="2.40466">
        <ele>142</ele>
        <time>2021-08-13T12:40:40Z</time>
      </trkpt>
      <trkpt lat="47.07004" lon="2.40419">
        <ele>143</ele>
        <time>2021-08-13T12:40:40Z</time>
      </trkpt>
      <trkpt lat="47.06984" lon="2.40379">
        <ele>142</ele>
        <time>2021-08-13T12:40:40Z</time>
      </trkpt>
      <trkpt lat="47.0696" lon="2.40343">
        <ele>141</ele>
        <time>2021-08-13T12:40:40Z</time>
      </trkpt>
      <trkpt lat="47.06948" lon="2.403">
        <ele>140</ele>
        <time>2021-08-13T12:40:40Z</time>
      </trkpt>
      <trkpt lat="47.06965" lon="2.40282">
        <ele>142</ele>
        <time>2021-08-13T12:40:40Z</time>
      </trkpt>
      <trkpt lat="47.0697" lon="2.4028">
        <ele>142</ele>
        <time>2021-08-13T12:40:40Z</time>
      </trkpt>
      <trkpt lat="47.06995" lon="2.40267">
        <ele>143</ele>
        <time>2021-08-13T12:40:40Z</time>
      </trkpt>
      <trkpt lat="47.07021" lon="2.40251">
        <ele>144</ele>
        <time>2021-08-13T12:40:40Z</time>
      </trkpt>
      <trkpt lat="47.07048" lon="2.40236">
        <ele>146</ele>
        <time>2021-08-13T12:40:40Z</time>
      </trkpt>
      <trkpt lat="47.07074" lon="2.40223">
        <ele>148</ele>
        <time>2021-08-13T12:40:40Z</time>
      </trkpt>
      <trkpt lat="47.07089" lon="2.40207">
        <ele>148</ele>
        <time>2021-08-13T12:40:40Z</time>
      </trkpt>
      <trkpt lat="47.07082" lon="2.40186">
        <ele>147</ele>
        <time>2021-08-13T12:40:40Z</time>
      </trkpt>
      <trkpt lat="47.0708" lon="2.40181">
        <ele>147</ele>
        <time>2021-08-13T12:40:40Z</time>
      </trkpt>
      <trkpt lat="47.07071" lon="2.40148">
        <ele>146</ele>
        <time>2021-08-13T12:40:40Z</time>
      </trkpt>
      <trkpt lat="47.07062" lon="2.40107">
        <ele>143</ele>
        <time>2021-08-13T12:40:40Z</time>
      </trkpt>
      <trkpt lat="47.07052" lon="2.40062">
        <ele>140</ele>
        <time>2021-08-13T12:40:40Z</time>
      </trkpt>
      <trkpt lat="47.07045" lon="2.40018">
        <ele>137</ele>
        <time>2021-08-13T12:40:40Z</time>
      </trkpt>
      <trkpt lat="47.07049" lon="2.39976">
        <ele>135</ele>
        <time>2021-08-13T12:40:40Z</time>
      </trkpt>
      <trkpt lat="47.07058" lon="2.3994">
        <ele>135</ele>
        <time>2021-08-13T12:40:40Z</time>
      </trkpt>
      <trkpt lat="47.0706" lon="2.39932">
        <ele>135</ele>
        <time>2021-08-13T12:40:40Z</time>
      </trkpt>
      <trkpt lat="47.07065" lon="2.39901">
        <ele>135</ele>
        <time>2021-08-13T12:40:40Z</time>
      </trkpt>
      <trkpt lat="47.07044" lon="2.39891">
        <ele>135</ele>
        <time>2021-08-13T12:40:40Z</time>
      </trkpt>
      <trkpt lat="47.07018" lon="2.39887">
        <ele>135</ele>
        <time>2021-08-13T12:40:40Z</time>
      </trkpt>
      <trkpt lat="47.06988" lon="2.39882">
        <ele>135</ele>
        <time>2021-08-13T12:40:40Z</time>
      </trkpt>
      <trkpt lat="47.06956" lon="2.39882">
        <ele>134</ele>
        <time>2021-08-13T12:40:40Z</time>
      </trkpt>
      <trkpt lat="47.06928" lon="2.39881">
        <ele>133</ele>
        <time>2021-08-13T12:40:40Z</time>
      </trkpt>
      <trkpt lat="47.06921" lon="2.39881">
        <ele>133</ele>
        <time>2021-08-13T12:40:40Z</time>
      </trkpt>
      <trkpt lat="47.069" lon="2.39882">
        <ele>133</ele>
        <time>2021-08-13T12:40:40Z</time>
      </trkpt>
      <trkpt lat="47.06893" lon="2.39884">
        <ele>132</ele>
        <time>2021-08-13T12:40:40Z</time>
      </trkpt>
      <trkpt lat="47.06886" lon="2.39885">
        <ele>132</ele>
        <time>2021-08-13T12:40:40Z</time>
      </trkpt>
      <trkpt lat="47.06879" lon="2.39885">
        <ele>132</ele>
        <time>2021-08-13T12:40:40Z</time>
      </trkpt>
      <trkpt lat="47.06872" lon="2.39886">
        <ele>132</ele>
        <time>2021-08-13T12:40:40Z</time>
      </trkpt>
      <trkpt lat="47.06865" lon="2.39888">
        <ele>132</ele>
        <time>2021-08-13T12:40:40Z</time>
      </trkpt>
      <trkpt lat="47.06858" lon="2.39889">
        <ele>131</ele>
        <time>2021-08-13T12:40:40Z</time>
      </trkpt>
      <trkpt lat="47.06851" lon="2.3989">
        <ele>131</ele>
        <time>2021-08-13T12:40:40Z</time>
      </trkpt>
      <trkpt lat="47.06843" lon="2.39891">
        <ele>130</ele>
        <time>2021-08-13T12:40:40Z</time>
      </trkpt>
      <trkpt lat="47.06836" lon="2.39892">
        <ele>130</ele>
        <time>2021-08-13T12:40:40Z</time>
      </trkpt>
      <trkpt lat="47.06829" lon="2.39893">
        <ele>130</ele>
        <time>2021-08-13T12:40:40Z</time>
      </trkpt>
      <trkpt lat="47.06821" lon="2.39893">
        <ele>130</ele>
        <time>2021-08-13T12:40:40Z</time>
      </trkpt>
      <trkpt lat="47.06814" lon="2.39893">
        <ele>130</ele>
        <time>2021-08-13T12:40:40Z</time>
      </trkpt>
      <trkpt lat="47.06806" lon="2.39895">
        <ele>130</ele>
        <time>2021-08-13T12:40:40Z</time>
      </trkpt>
      <trkpt lat="47.06799" lon="2.39896">
        <ele>130</ele>
        <time>2021-08-13T12:40:40Z</time>
      </trkpt>
      <trkpt lat="47.06792" lon="2.39896">
        <ele>130</ele>
        <time>2021-08-13T12:40:40Z</time>
      </trkpt>
      <trkpt lat="47.06785" lon="2.39897">
        <ele>130</ele>
        <time>2021-08-13T12:40:40Z</time>
      </trkpt>
      <trkpt lat="47.06778" lon="2.39898">
        <ele>130</ele>
        <time>2021-08-13T12:40:40Z</time>
      </trkpt>
      <trkpt lat="47.06771" lon="2.39899">
        <ele>130</ele>
        <time>2021-08-13T12:40:40Z</time>
      </trkpt>
      <trkpt lat="47.06764" lon="2.39898">
        <ele>130</ele>
        <time>2021-08-13T12:40:40Z</time>
      </trkpt>
      <trkpt lat="47.06758" lon="2.39896">
        <ele>129</ele>
        <time>2021-08-13T12:40:40Z</time>
      </trkpt>
      <trkpt lat="47.06751" lon="2.39895">
        <ele>129</ele>
        <time>2021-08-13T12:40:40Z</time>
      </trkpt>
      <trkpt lat="47.06744" lon="2.39894">
        <ele>129</ele>
        <time>2021-08-13T12:40:40Z</time>
      </trkpt>
      <trkpt lat="47.06738" lon="2.39893">
        <ele>129</ele>
        <time>2021-08-13T12:40:40Z</time>
      </trkpt>
      <trkpt lat="47.06732" lon="2.39892">
        <ele>129</ele>
        <time>2021-08-13T12:40:40Z</time>
      </trkpt>
      <trkpt lat="47.06725" lon="2.39892">
        <ele>129</ele>
        <time>2021-08-13T12:40:40Z</time>
      </trkpt>
      <trkpt lat="47.06719" lon="2.39892">
        <ele>129</ele>
        <time>2021-08-13T12:40:40Z</time>
      </trkpt>
      <trkpt lat="47.06713" lon="2.39892">
        <ele>129</ele>
        <time>2021-08-13T12:40:40Z</time>
      </trkpt>
      <trkpt lat="47.06707" lon="2.39893">
        <ele>130</ele>
        <time>2021-08-13T12:40:40Z</time>
      </trkpt>
      <trkpt lat="47.067" lon="2.39893">
        <ele>130</ele>
        <time>2021-08-13T12:40:40Z</time>
      </trkpt>
      <trkpt lat="47.06694" lon="2.39894">
        <ele>131</ele>
        <time>2021-08-13T12:40:40Z</time>
      </trkpt>
      <trkpt lat="47.06688" lon="2.39896">
        <ele>131</ele>
        <time>2021-08-13T12:40:40Z</time>
      </trkpt>
      <trkpt lat="47.06682" lon="2.39898">
        <ele>131</ele>
        <time>2021-08-13T12:40:40Z</time>
      </trkpt>
      <trkpt lat="47.06677" lon="2.399">
        <ele>130</ele>
        <time>2021-08-13T12:40:40Z</time>
      </trkpt>
      <trkpt lat="47.06671" lon="2.39903">
        <ele>130</ele>
        <time>2021-08-13T12:40:40Z</time>
      </trkpt>
      <trkpt lat="47.06666" lon="2.39905">
        <ele>130</ele>
        <time>2021-08-13T12:40:40Z</time>
      </trkpt>
      <trkpt lat="47.0666" lon="2.39907">
        <ele>130</ele>
        <time>2021-08-13T12:40:40Z</time>
      </trkpt>
      <trkpt lat="47.06654" lon="2.3991">
        <ele>130</ele>
        <time>2021-08-13T12:40:40Z</time>
      </trkpt>
      <trkpt lat="47.06648" lon="2.39913">
        <ele>130</ele>
        <time>2021-08-13T12:40:40Z</time>
      </trkpt>
      <trkpt lat="47.06642" lon="2.39915">
        <ele>130</ele>
        <time>2021-08-13T12:40:40Z</time>
      </trkpt>
      <trkpt lat="47.06636" lon="2.39917">
        <ele>130</ele>
        <time>2021-08-13T12:40:40Z</time>
      </trkpt>
      <trkpt lat="47.0663" lon="2.3992">
        <ele>130</ele>
        <time>2021-08-13T12:40:40Z</time>
      </trkpt>
      <trkpt lat="47.06624" lon="2.39923">
        <ele>130</ele>
        <time>2021-08-13T12:40:40Z</time>
      </trkpt>
      <trkpt lat="47.06618" lon="2.39925">
        <ele>131</ele>
        <time>2021-08-13T12:40:40Z</time>
      </trkpt>
      <trkpt lat="47.06612" lon="2.39928">
        <ele>131</ele>
        <time>2021-08-13T12:40:40Z</time>
      </trkpt>
      <trkpt lat="47.06606" lon="2.39931">
        <ele>131</ele>
        <time>2021-08-13T12:40:40Z</time>
      </trkpt>
      <trkpt lat="47.066" lon="2.39932">
        <ele>132</ele>
        <time>2021-08-13T12:40:40Z</time>
      </trkpt>
      <trkpt lat="47.06594" lon="2.39932">
        <ele>132</ele>
        <time>2021-08-13T12:40:40Z</time>
      </trkpt>
      <trkpt lat="47.06588" lon="2.39933">
        <ele>132</ele>
        <time>2021-08-13T12:40:40Z</time>
      </trkpt>
      <trkpt lat="47.06582" lon="2.39933">
        <ele>133</ele>
        <time>2021-08-13T12:40:40Z</time>
      </trkpt>
      <trkpt lat="47.06575" lon="2.39934">
        <ele>133</ele>
        <time>2021-08-13T12:40:40Z</time>
      </trkpt>
      <trkpt lat="47.06569" lon="2.39935">
        <ele>133</ele>
        <time>2021-08-13T12:40:40Z</time>
      </trkpt>
      <trkpt lat="47.06563" lon="2.39936">
        <ele>133</ele>
        <time>2021-08-13T12:40:40Z</time>
      </trkpt>
      <trkpt lat="47.06557" lon="2.39937">
        <ele>133</ele>
        <time>2021-08-13T12:40:40Z</time>
      </trkpt>
      <trkpt lat="47.06551" lon="2.39938">
        <ele>133</ele>
        <time>2021-08-13T12:40:40Z</time>
      </trkpt>
      <trkpt lat="47.06545" lon="2.39939">
        <ele>133</ele>
        <time>2021-08-13T12:40:40Z</time>
      </trkpt>
      <trkpt lat="47.06538" lon="2.39941">
        <ele>133</ele>
        <time>2021-08-13T12:40:40Z</time>
      </trkpt>
      <trkpt lat="47.06532" lon="2.39941">
        <ele>133</ele>
        <time>2021-08-13T12:40:40Z</time>
      </trkpt>
      <trkpt lat="47.06525" lon="2.39942">
        <ele>133</ele>
        <time>2021-08-13T12:40:40Z</time>
      </trkpt>
      <trkpt lat="47.06519" lon="2.39942">
        <ele>134</ele>
        <time>2021-08-13T12:40:40Z</time>
      </trkpt>
      <trkpt lat="47.06513" lon="2.39943">
        <ele>134</ele>
        <time>2021-08-13T12:40:40Z</time>
      </trkpt>
      <trkpt lat="47.0648" lon="2.39947">
        <ele>134</ele>
        <time>2021-08-13T12:40:40Z</time>
      </trkpt>
      <trkpt lat="47.06447" lon="2.39956">
        <ele>132</ele>
        <time>2021-08-13T12:40:40Z</time>
      </trkpt>
      <trkpt lat="47.06413" lon="2.39971">
        <ele>130</ele>
        <time>2021-08-13T12:40:40Z</time>
      </trkpt>
      <trkpt lat="47.06378" lon="2.3999">
        <ele>131</ele>
        <time>2021-08-13T12:40:40Z</time>
      </trkpt>
      <trkpt lat="47.06345" lon="2.40006">
        <ele>131</ele>
        <time>2021-08-13T12:40:40Z</time>
      </trkpt>
      <trkpt lat="47.06321" lon="2.40006">
        <ele>131</ele>
        <time>2021-08-13T12:40:40Z</time>
      </trkpt>
      <trkpt lat="47.06318" lon="2.39997">
        <ele>130</ele>
        <time>2021-08-13T12:40:40Z</time>
      </trkpt>
      <trkpt lat="47.06311" lon="2.39964">
        <ele>129</ele>
        <time>2021-08-13T12:40:40Z</time>
      </trkpt>
      <trkpt lat="47.06309" lon="2.39952">
        <ele>129</ele>
        <time>2021-08-13T12:40:40Z</time>
      </trkpt>
      <trkpt lat="47.06311" lon="2.39944">
        <ele>129</ele>
        <time>2021-08-13T12:40:40Z</time>
      </trkpt>
      <trkpt lat="47.06318" lon="2.39927">
        <ele>129</ele>
        <time>2021-08-13T12:40:40Z</time>
      </trkpt>
      <trkpt lat="47.06314" lon="2.39912">
        <ele>129</ele>
        <time>2021-08-13T12:40:40Z</time>
      </trkpt>
      <trkpt lat="47.06316" lon="2.39896">
        <ele>129</ele>
        <time>2021-08-13T12:40:40Z</time>
      </trkpt>
      <trkpt lat="47.06316" lon="2.39891">
        <ele>129</ele>
        <time>2021-08-13T12:40:40Z</time>
      </trkpt>
      <trkpt lat="47.06314" lon="2.39871">
        <ele>130</ele>
        <time>2021-08-13T12:40:40Z</time>
      </trkpt>
      <trkpt lat="47.06314" lon="2.39866">
        <ele>130</ele>
        <time>2021-08-13T12:40:40Z</time>
      </trkpt>
      <trkpt lat="47.06313" lon="2.39862">
        <ele>130</ele>
        <time>2021-08-13T12:40:40Z</time>
      </trkpt>
      <trkpt lat="47.06312" lon="2.39857">
        <ele>130</ele>
        <time>2021-08-13T12:40:40Z</time>
      </trkpt>
      <trkpt lat="47.06309" lon="2.39854">
        <ele>130</ele>
        <time>2021-08-13T12:40:40Z</time>
      </trkpt>
      <trkpt lat="47.06306" lon="2.39852">
        <ele>130</ele>
        <time>2021-08-13T12:40:40Z</time>
      </trkpt>
      <trkpt lat="47.06302" lon="2.39849">
        <ele>130</ele>
        <time>2021-08-13T12:40:40Z</time>
      </trkpt>
      <trkpt lat="47.06299" lon="2.39847">
        <ele>130</ele>
        <time>2021-08-13T12:40:40Z</time>
      </trkpt>
      <trkpt lat="47.0628" lon="2.39832">
        <ele>131</ele>
        <time>2021-08-13T12:40:40Z</time>
      </trkpt>
      <trkpt lat="47.06263" lon="2.39802">
        <ele>130</ele>
        <time>2021-08-13T12:40:40Z</time>
      </trkpt>
      <trkpt lat="47.06243" lon="2.3976">
        <ele>127</ele>
        <time>2021-08-13T12:40:40Z</time>
      </trkpt>
      <trkpt lat="47.06227" lon="2.39708">
        <ele>125</ele>
        <time>2021-08-13T12:40:40Z</time>
      </trkpt>
      <trkpt lat="47.06219" lon="2.39663">
        <ele>126</ele>
        <time>2021-08-13T12:40:40Z</time>
      </trkpt>
      <trkpt lat="47.06199" lon="2.39643">
        <ele>126</ele>
        <time>2021-08-13T12:40:40Z</time>
      </trkpt>
      <trkpt lat="47.06193" lon="2.39646">
        <ele>127</ele>
        <time>2021-08-13T12:40:40Z</time>
      </trkpt>
      <trkpt lat="47.06181" lon="2.39651">
        <ele>127</ele>
        <time>2021-08-13T12:40:40Z</time>
      </trkpt>
      <trkpt lat="47.06175" lon="2.39654">
        <ele>126</ele>
        <time>2021-08-13T12:40:40Z</time>
      </trkpt>
      <trkpt lat="47.06168" lon="2.39656">
        <ele>126</ele>
        <time>2021-08-13T12:40:40Z</time>
      </trkpt>
      <trkpt lat="47.06162" lon="2.39658">
        <ele>126</ele>
        <time>2021-08-13T12:40:40Z</time>
      </trkpt>
      <trkpt lat="47.06156" lon="2.39661">
        <ele>126</ele>
        <time>2021-08-13T12:40:40Z</time>
      </trkpt>
      <trkpt lat="47.0615" lon="2.39664">
        <ele>126</ele>
        <time>2021-08-13T12:40:40Z</time>
      </trkpt>
      <trkpt lat="47.06138" lon="2.39668">
        <ele>126</ele>
        <time>2021-08-13T12:40:40Z</time>
      </trkpt>
      <trkpt lat="47.06132" lon="2.3967">
        <ele>126</ele>
        <time>2021-08-13T12:40:40Z</time>
      </trkpt>
      <trkpt lat="47.06126" lon="2.39672">
        <ele>127</ele>
        <time>2021-08-13T12:40:40Z</time>
      </trkpt>
      <trkpt lat="47.0612" lon="2.39675">
        <ele>128</ele>
        <time>2021-08-13T12:40:40Z</time>
      </trkpt>
      <trkpt lat="47.06113" lon="2.39678">
        <ele>129</ele>
        <time>2021-08-13T12:40:40Z</time>
      </trkpt>
      <trkpt lat="47.06107" lon="2.39681">
        <ele>129</ele>
        <time>2021-08-13T12:40:40Z</time>
      </trkpt>
      <trkpt lat="47.06101" lon="2.39683">
        <ele>129</ele>
        <time>2021-08-13T12:40:40Z</time>
      </trkpt>
      <trkpt lat="47.06095" lon="2.39685">
        <ele>129</ele>
        <time>2021-08-13T12:40:40Z</time>
      </trkpt>
      <trkpt lat="47.06088" lon="2.39687">
        <ele>129</ele>
        <time>2021-08-13T12:40:40Z</time>
      </trkpt>
      <trkpt lat="47.06082" lon="2.39689">
        <ele>129</ele>
        <time>2021-08-13T12:40:40Z</time>
      </trkpt>
      <trkpt lat="47.06076" lon="2.39692">
        <ele>128</ele>
        <time>2021-08-13T12:40:40Z</time>
      </trkpt>
      <trkpt lat="47.06064" lon="2.39698">
        <ele>127</ele>
        <time>2021-08-13T12:40:40Z</time>
      </trkpt>
      <trkpt lat="47.06057" lon="2.39701">
        <ele>126</ele>
        <time>2021-08-13T12:40:40Z</time>
      </trkpt>
      <trkpt lat="47.06051" lon="2.39703">
        <ele>126</ele>
        <time>2021-08-13T12:40:40Z</time>
      </trkpt>
      <trkpt lat="47.06045" lon="2.39705">
        <ele>126</ele>
        <time>2021-08-13T12:40:40Z</time>
      </trkpt>
      <trkpt lat="47.06038" lon="2.39707">
        <ele>126</ele>
        <time>2021-08-13T12:40:40Z</time>
      </trkpt>
      <trkpt lat="47.06032" lon="2.39708">
        <ele>126</ele>
        <time>2021-08-13T12:40:40Z</time>
      </trkpt>
      <trkpt lat="47.06025" lon="2.39709">
        <ele>126</ele>
        <time>2021-08-13T12:40:40Z</time>
      </trkpt>
      <trkpt lat="47.06018" lon="2.39707">
        <ele>126</ele>
        <time>2021-08-13T12:40:40Z</time>
      </trkpt>
      <trkpt lat="47.06012" lon="2.39703">
        <ele>126</ele>
        <time>2021-08-13T12:40:40Z</time>
      </trkpt>
      <trkpt lat="47.06005" lon="2.397">
        <ele>126</ele>
        <time>2021-08-13T12:40:40Z</time>
      </trkpt>
      <trkpt lat="47.05999" lon="2.39695">
        <ele>126</ele>
        <time>2021-08-13T12:40:40Z</time>
      </trkpt>
      <trkpt lat="47.05986" lon="2.39687">
        <ele>126</ele>
        <time>2021-08-13T12:40:40Z</time>
      </trkpt>
      <trkpt lat="47.0598" lon="2.39683">
        <ele>126</ele>
        <time>2021-08-13T12:40:40Z</time>
      </trkpt>
      <trkpt lat="47.05974" lon="2.39678">
        <ele>126</ele>
        <time>2021-08-13T12:40:40Z</time>
      </trkpt>
      <trkpt lat="47.05969" lon="2.39674">
        <ele>126</ele>
        <time>2021-08-13T12:40:40Z</time>
      </trkpt>
      <trkpt lat="47.05962" lon="2.39669">
        <ele>126</ele>
        <time>2021-08-13T12:40:40Z</time>
      </trkpt>
      <trkpt lat="47.05957" lon="2.39663">
        <ele>126</ele>
        <time>2021-08-13T12:40:40Z</time>
      </trkpt>
      <trkpt lat="47.05951" lon="2.39658">
        <ele>126</ele>
        <time>2021-08-13T12:40:40Z</time>
      </trkpt>
      <trkpt lat="47.05945" lon="2.39654">
        <ele>126</ele>
        <time>2021-08-13T12:40:40Z</time>
      </trkpt>
      <trkpt lat="47.05939" lon="2.39648">
        <ele>127</ele>
        <time>2021-08-13T12:40:40Z</time>
      </trkpt>
      <trkpt lat="47.05934" lon="2.39642">
        <ele>127</ele>
        <time>2021-08-13T12:40:40Z</time>
      </trkpt>
      <trkpt lat="47.05929" lon="2.39634">
        <ele>127</ele>
        <time>2021-08-13T12:40:40Z</time>
      </trkpt>
      <trkpt lat="47.05924" lon="2.39626">
        <ele>127</ele>
        <time>2021-08-13T12:40:40Z</time>
      </trkpt>
      <trkpt lat="47.05919" lon="2.39617">
        <ele>127</ele>
        <time>2021-08-13T12:40:40Z</time>
      </trkpt>
      <trkpt lat="47.05915" lon="2.39609">
        <ele>126</ele>
        <time>2021-08-13T12:40:40Z</time>
      </trkpt>
      <trkpt lat="47.0591" lon="2.39601">
        <ele>126</ele>
        <time>2021-08-13T12:40:40Z</time>
      </trkpt>
      <trkpt lat="47.05905" lon="2.39594">
        <ele>125</ele>
        <time>2021-08-13T12:40:40Z</time>
      </trkpt>
      <trkpt lat="47.059" lon="2.39587">
        <ele>125</ele>
        <time>2021-08-13T12:40:40Z</time>
      </trkpt>
      <trkpt lat="47.05894" lon="2.39581">
        <ele>124</ele>
        <time>2021-08-13T12:40:40Z</time>
      </trkpt>
      <trkpt lat="47.05888" lon="2.39576">
        <ele>124</ele>
        <time>2021-08-13T12:40:40Z</time>
      </trkpt>
      <trkpt lat="47.05881" lon="2.39571">
        <ele>124</ele>
        <time>2021-08-13T12:40:40Z</time>
      </trkpt>
      <trkpt lat="47.05875" lon="2.39567">
        <ele>124</ele>
        <time>2021-08-13T12:40:40Z</time>
      </trkpt>
      <trkpt lat="47.05869" lon="2.39563">
        <ele>124</ele>
        <time>2021-08-13T12:40:40Z</time>
      </trkpt>
      <trkpt lat="47.05863" lon="2.39561">
        <ele>124</ele>
        <time>2021-08-13T12:40:40Z</time>
      </trkpt>
      <trkpt lat="47.05856" lon="2.39559">
        <ele>125</ele>
        <time>2021-08-13T12:40:40Z</time>
      </trkpt>
      <trkpt lat="47.0585" lon="2.39557">
        <ele>126</ele>
        <time>2021-08-13T12:40:40Z</time>
      </trkpt>
      <trkpt lat="47.05843" lon="2.39555">
        <ele>127</ele>
        <time>2021-08-13T12:40:40Z</time>
      </trkpt>
      <trkpt lat="47.05836" lon="2.39554">
        <ele>128</ele>
        <time>2021-08-13T12:40:40Z</time>
      </trkpt>
      <trkpt lat="47.05829" lon="2.39553">
        <ele>129</ele>
        <time>2021-08-13T12:40:40Z</time>
      </trkpt>
      <trkpt lat="47.05823" lon="2.39552">
        <ele>129</ele>
        <time>2021-08-13T12:40:40Z</time>
      </trkpt>
      <trkpt lat="47.05817" lon="2.39551">
        <ele>130</ele>
        <time>2021-08-13T12:40:40Z</time>
      </trkpt>
      <trkpt lat="47.05787" lon="2.39554">
        <ele>130</ele>
        <time>2021-08-13T12:40:40Z</time>
      </trkpt>
      <trkpt lat="47.05758" lon="2.39559">
        <ele>131</ele>
        <time>2021-08-13T12:40:40Z</time>
      </trkpt>
      <trkpt lat="47.05731" lon="2.39567">
        <ele>132</ele>
        <time>2021-08-13T12:40:40Z</time>
      </trkpt>
      <trkpt lat="47.05709" lon="2.39581">
        <ele>133</ele>
        <time>2021-08-13T12:40:40Z</time>
      </trkpt>
      <trkpt lat="47.05687" lon="2.39586">
        <ele>133</ele>
        <time>2021-08-13T12:40:40Z</time>
      </trkpt>
      <trkpt lat="47.05667" lon="2.396">
        <ele>132</ele>
        <time>2021-08-13T12:40:40Z</time>
      </trkpt>
      <trkpt lat="47.05663" lon="2.39604">
        <ele>132</ele>
        <time>2021-08-13T12:40:40Z</time>
      </trkpt>
      <trkpt lat="47.05632" lon="2.39621">
        <ele>132</ele>
        <time>2021-08-13T12:40:40Z</time>
      </trkpt>
      <trkpt lat="47.05601" lon="2.39627">
        <ele>134</ele>
        <time>2021-08-13T12:40:40Z</time>
      </trkpt>
      <trkpt lat="47.05568" lon="2.39628">
        <ele>135</ele>
        <time>2021-08-13T12:40:40Z</time>
      </trkpt>
      <trkpt lat="47.05533" lon="2.39631">
        <ele>129</ele>
        <time>2021-08-13T12:40:40Z</time>
      </trkpt>
      <trkpt lat="47.05501" lon="2.39654">
        <ele>127</ele>
        <time>2021-08-13T12:40:40Z</time>
      </trkpt>
      <trkpt lat="47.0547" lon="2.39666">
        <ele>126</ele>
        <time>2021-08-13T12:40:40Z</time>
      </trkpt>
      <trkpt lat="47.05462" lon="2.39669">
        <ele>126</ele>
        <time>2021-08-13T12:40:40Z</time>
      </trkpt>
      <trkpt lat="47.05454" lon="2.39672">
        <ele>127</ele>
        <time>2021-08-13T12:40:40Z</time>
      </trkpt>
      <trkpt lat="47.05447" lon="2.39676">
        <ele>127</ele>
        <time>2021-08-13T12:40:40Z</time>
      </trkpt>
      <trkpt lat="47.0544" lon="2.39682">
        <ele>127</ele>
        <time>2021-08-13T12:40:40Z</time>
      </trkpt>
      <trkpt lat="47.05433" lon="2.39687">
        <ele>126</ele>
        <time>2021-08-13T12:40:40Z</time>
      </trkpt>
      <trkpt lat="47.05427" lon="2.39694">
        <ele>126</ele>
        <time>2021-08-13T12:40:40Z</time>
      </trkpt>
      <trkpt lat="47.05421" lon="2.39701">
        <ele>126</ele>
        <time>2021-08-13T12:40:40Z</time>
      </trkpt>
      <trkpt lat="47.05416" lon="2.39709">
        <ele>126</ele>
        <time>2021-08-13T12:40:40Z</time>
      </trkpt>
      <trkpt lat="47.0541" lon="2.39717">
        <ele>126</ele>
        <time>2021-08-13T12:40:40Z</time>
      </trkpt>
      <trkpt lat="47.05406" lon="2.39726">
        <ele>126</ele>
        <time>2021-08-13T12:40:40Z</time>
      </trkpt>
      <trkpt lat="47.05402" lon="2.39735">
        <ele>126</ele>
        <time>2021-08-13T12:40:40Z</time>
      </trkpt>
      <trkpt lat="47.05398" lon="2.39745">
        <ele>126</ele>
        <time>2021-08-13T12:40:40Z</time>
      </trkpt>
      <trkpt lat="47.05396" lon="2.39756">
        <ele>126</ele>
        <time>2021-08-13T12:40:40Z</time>
      </trkpt>
      <trkpt lat="47.05393" lon="2.39766">
        <ele>126</ele>
        <time>2021-08-13T12:40:40Z</time>
      </trkpt>
      <trkpt lat="47.05391" lon="2.39777">
        <ele>126</ele>
        <time>2021-08-13T12:40:40Z</time>
      </trkpt>
      <trkpt lat="47.05388" lon="2.39787">
        <ele>126</ele>
        <time>2021-08-13T12:40:40Z</time>
      </trkpt>
      <trkpt lat="47.05384" lon="2.39797">
        <ele>126</ele>
        <time>2021-08-13T12:40:40Z</time>
      </trkpt>
      <trkpt lat="47.0538" lon="2.39805">
        <ele>126</ele>
        <time>2021-08-13T12:40:40Z</time>
      </trkpt>
      <trkpt lat="47.05374" lon="2.39813">
        <ele>126</ele>
        <time>2021-08-13T12:40:40Z</time>
      </trkpt>
      <trkpt lat="47.05368" lon="2.39817">
        <ele>126</ele>
        <time>2021-08-13T12:40:40Z</time>
      </trkpt>
      <trkpt lat="47.0536" lon="2.3982">
        <ele>126</ele>
        <time>2021-08-13T12:40:40Z</time>
      </trkpt>
      <trkpt lat="47.05353" lon="2.39822">
        <ele>126</ele>
        <time>2021-08-13T12:40:40Z</time>
      </trkpt>
      <trkpt lat="47.05346" lon="2.39825">
        <ele>126</ele>
        <time>2021-08-13T12:40:40Z</time>
      </trkpt>
      <trkpt lat="47.05339" lon="2.39828">
        <ele>126</ele>
        <time>2021-08-13T12:40:40Z</time>
      </trkpt>
      <trkpt lat="47.05332" lon="2.39829">
        <ele>126</ele>
        <time>2021-08-13T12:40:40Z</time>
      </trkpt>
      <trkpt lat="47.05325" lon="2.39831">
        <ele>126</ele>
        <time>2021-08-13T12:40:40Z</time>
      </trkpt>
      <trkpt lat="47.05318" lon="2.39832">
        <ele>126</ele>
        <time>2021-08-13T12:40:40Z</time>
      </trkpt>
      <trkpt lat="47.05311" lon="2.39833">
        <ele>126</ele>
        <time>2021-08-13T12:40:40Z</time>
      </trkpt>
      <trkpt lat="47.05304" lon="2.39835">
        <ele>126</ele>
        <time>2021-08-13T12:40:40Z</time>
      </trkpt>
      <trkpt lat="47.05296" lon="2.39836">
        <ele>126</ele>
        <time>2021-08-13T12:40:40Z</time>
      </trkpt>
      <trkpt lat="47.05289" lon="2.39838">
        <ele>126</ele>
        <time>2021-08-13T12:40:40Z</time>
      </trkpt>
      <trkpt lat="47.05282" lon="2.3984">
        <ele>126</ele>
        <time>2021-08-13T12:40:40Z</time>
      </trkpt>
      <trkpt lat="47.05275" lon="2.39842">
        <ele>126</ele>
        <time>2021-08-13T12:40:40Z</time>
      </trkpt>
      <trkpt lat="47.05268" lon="2.39844">
        <ele>126</ele>
        <time>2021-08-13T12:40:40Z</time>
      </trkpt>
      <trkpt lat="47.05261" lon="2.39847">
        <ele>126</ele>
        <time>2021-08-13T12:40:40Z</time>
      </trkpt>
      <trkpt lat="47.05254" lon="2.3985">
        <ele>126</ele>
        <time>2021-08-13T12:40:40Z</time>
      </trkpt>
      <trkpt lat="47.05247" lon="2.39853">
        <ele>126</ele>
        <time>2021-08-13T12:40:40Z</time>
      </trkpt>
      <trkpt lat="47.05212" lon="2.39862">
        <ele>126</ele>
        <time>2021-08-13T12:40:40Z</time>
      </trkpt>
      <trkpt lat="47.05175" lon="2.39873">
        <ele>127</ele>
        <time>2021-08-13T12:40:40Z</time>
      </trkpt>
      <trkpt lat="47.05142" lon="2.39895">
        <ele>131</ele>
        <time>2021-08-13T12:40:40Z</time>
      </trkpt>
      <trkpt lat="47.05108" lon="2.39909">
        <ele>131</ele>
        <time>2021-08-13T12:40:40Z</time>
      </trkpt>
      <trkpt lat="47.05079" lon="2.3992">
        <ele>130</ele>
        <time>2021-08-13T12:40:40Z</time>
      </trkpt>
      <trkpt lat="47.05052" lon="2.39929">
        <ele>129</ele>
        <time>2021-08-13T12:40:40Z</time>
      </trkpt>
      <trkpt lat="47.05046" lon="2.39932">
        <ele>129</ele>
        <time>2021-08-13T12:40:40Z</time>
      </trkpt>
      <trkpt lat="47.05015" lon="2.39953">
        <ele>128</ele>
        <time>2021-08-13T12:40:40Z</time>
      </trkpt>
      <trkpt lat="47.04984" lon="2.39981">
        <ele>129</ele>
        <time>2021-08-13T12:40:40Z</time>
      </trkpt>
      <trkpt lat="47.04951" lon="2.39999">
        <ele>129</ele>
        <time>2021-08-13T12:40:40Z</time>
      </trkpt>
      <trkpt lat="47.04917" lon="2.39997">
        <ele>127</ele>
        <time>2021-08-13T12:40:40Z</time>
      </trkpt>
      <trkpt lat="47.04885" lon="2.39982">
        <ele>127</ele>
        <time>2021-08-13T12:40:40Z</time>
      </trkpt>
      <trkpt lat="47.04864" lon="2.40004">
        <ele>127</ele>
        <time>2021-08-13T12:40:40Z</time>
      </trkpt>
      <trkpt lat="47.04859" lon="2.40011">
        <ele>128</ele>
        <time>2021-08-13T12:40:40Z</time>
      </trkpt>
      <trkpt lat="47.04835" lon="2.40045">
        <ele>128</ele>
        <time>2021-08-13T12:40:40Z</time>
      </trkpt>
      <trkpt lat="47.04808" lon="2.40078">
        <ele>131</ele>
        <time>2021-08-13T12:40:40Z</time>
      </trkpt>
      <trkpt lat="47.04784" lon="2.40111">
        <ele>133</ele>
        <time>2021-08-13T12:40:40Z</time>
      </trkpt>
      <trkpt lat="47.04758" lon="2.40142">
        <ele>131</ele>
        <time>2021-08-13T12:40:40Z</time>
      </trkpt>
      <trkpt lat="47.04734" lon="2.40177">
        <ele>130</ele>
        <time>2021-08-13T12:40:40Z</time>
      </trkpt>
      <trkpt lat="47.04715" lon="2.40204">
        <ele>130</ele>
        <time>2021-08-13T12:40:40Z</time>
      </trkpt>
      <trkpt lat="47.04709" lon="2.40209">
        <ele>130</ele>
        <time>2021-08-13T12:40:40Z</time>
      </trkpt>
      <trkpt lat="47.047" lon="2.40225">
        <ele>130</ele>
        <time>2021-08-13T12:40:40Z</time>
      </trkpt>
      <trkpt lat="47.04695" lon="2.40232">
        <ele>129</ele>
        <time>2021-08-13T12:40:40Z</time>
      </trkpt>
      <trkpt lat="47.04691" lon="2.40239">
        <ele>129</ele>
        <time>2021-08-13T12:40:40Z</time>
      </trkpt>
      <trkpt lat="47.04686" lon="2.40246">
        <ele>129</ele>
        <time>2021-08-13T12:40:40Z</time>
      </trkpt>
      <trkpt lat="47.0468" lon="2.40253">
        <ele>129</ele>
        <time>2021-08-13T12:40:40Z</time>
      </trkpt>
      <trkpt lat="47.04675" lon="2.40258">
        <ele>128</ele>
        <time>2021-08-13T12:40:40Z</time>
      </trkpt>
      <trkpt lat="47.04669" lon="2.40264">
        <ele>128</ele>
        <time>2021-08-13T12:40:40Z</time>
      </trkpt>
      <trkpt lat="47.04663" lon="2.4027">
        <ele>127</ele>
        <time>2021-08-13T12:40:40Z</time>
      </trkpt>
      <trkpt lat="47.04656" lon="2.40273">
        <ele>127</ele>
        <time>2021-08-13T12:40:40Z</time>
      </trkpt>
      <trkpt lat="47.0465" lon="2.40275">
        <ele>126</ele>
        <time>2021-08-13T12:40:40Z</time>
      </trkpt>
      <trkpt lat="47.04615" lon="2.4028">
        <ele>129</ele>
        <time>2021-08-13T12:40:40Z</time>
      </trkpt>
      <trkpt lat="47.04583" lon="2.40289">
        <ele>128</ele>
        <time>2021-08-13T12:40:40Z</time>
      </trkpt>
      <trkpt lat="47.04549" lon="2.40287">
        <ele>126</ele>
        <time>2021-08-13T12:40:40Z</time>
      </trkpt>
      <trkpt lat="47.04515" lon="2.4028">
        <ele>126</ele>
        <time>2021-08-13T12:40:40Z</time>
      </trkpt>
      <trkpt lat="47.04486" lon="2.40255">
        <ele>131</ele>
        <time>2021-08-13T12:40:40Z</time>
      </trkpt>
      <trkpt lat="47.04465" lon="2.40234">
        <ele>133</ele>
        <time>2021-08-13T12:40:40Z</time>
      </trkpt>
      <trkpt lat="47.0446" lon="2.40228">
        <ele>133</ele>
        <time>2021-08-13T12:40:40Z</time>
      </trkpt>
      <trkpt lat="47.04424" lon="2.40224">
        <ele>133</ele>
        <time>2021-08-13T12:40:40Z</time>
      </trkpt>
      <trkpt lat="47.04393" lon="2.40248">
        <ele>126</ele>
        <time>2021-08-13T12:40:40Z</time>
      </trkpt>
      <trkpt lat="47.04365" lon="2.40273">
        <ele>126</ele>
        <time>2021-08-13T12:40:40Z</time>
      </trkpt>
      <trkpt lat="47.04337" lon="2.403">
        <ele>126</ele>
        <time>2021-08-13T12:40:40Z</time>
      </trkpt>
      <trkpt lat="47.04308" lon="2.40327">
        <ele>127</ele>
        <time>2021-08-13T12:40:40Z</time>
      </trkpt>
      <trkpt lat="47.04285" lon="2.4035">
        <ele>128</ele>
        <time>2021-08-13T12:40:40Z</time>
      </trkpt>
      <trkpt lat="47.04279" lon="2.40355">
        <ele>128</ele>
        <time>2021-08-13T12:40:40Z</time>
      </trkpt>
      <trkpt lat="47.04252" lon="2.40375">
        <ele>130</ele>
        <time>2021-08-13T12:40:40Z</time>
      </trkpt>
      <trkpt lat="47.04231" lon="2.40387">
        <ele>130</ele>
        <time>2021-08-13T12:40:40Z</time>
      </trkpt>
      <trkpt lat="47.04226" lon="2.4042">
        <ele>129</ele>
        <time>2021-08-13T12:40:40Z</time>
      </trkpt>
      <trkpt lat="47.04216" lon="2.40459">
        <ele>128</ele>
        <time>2021-08-13T12:40:40Z</time>
      </trkpt>
      <trkpt lat="47.04211" lon="2.40506">
        <ele>127</ele>
        <time>2021-08-13T12:40:40Z</time>
      </trkpt>
      <trkpt lat="47.04208" lon="2.40544">
        <ele>126</ele>
        <time>2021-08-13T12:40:40Z</time>
      </trkpt>
      <trkpt lat="47.04207" lon="2.40553">
        <ele>126</ele>
        <time>2021-08-13T12:40:40Z</time>
      </trkpt>
      <trkpt lat="47.04204" lon="2.406">
        <ele>126</ele>
        <time>2021-08-13T12:40:40Z</time>
      </trkpt>
      <trkpt lat="47.0421" lon="2.40647">
        <ele>126</ele>
        <time>2021-08-13T12:40:40Z</time>
      </trkpt>
      <trkpt lat="47.04236" lon="2.40675">
        <ele>126</ele>
        <time>2021-08-13T12:40:40Z</time>
      </trkpt>
      <trkpt lat="47.04265" lon="2.407">
        <ele>126</ele>
        <time>2021-08-13T12:40:40Z</time>
      </trkpt>
      <trkpt lat="47.04293" lon="2.40726">
        <ele>126</ele>
        <time>2021-08-13T12:40:40Z</time>
      </trkpt>
      <trkpt lat="47.04312" lon="2.40743">
        <ele>130</ele>
        <time>2021-08-13T12:40:40Z</time>
      </trkpt>
      <trkpt lat="47.04317" lon="2.40745">
        <ele>130</ele>
        <time>2021-08-13T12:40:40Z</time>
      </trkpt>
      <trkpt lat="47.04344" lon="2.40745">
        <ele>130</ele>
        <time>2021-08-13T12:40:40Z</time>
      </trkpt>
      <trkpt lat="47.04375" lon="2.40741">
        <ele>129</ele>
        <time>2021-08-13T12:40:40Z</time>
      </trkpt>
      <trkpt lat="47.04402" lon="2.40722">
        <ele>129</ele>
        <time>2021-08-13T12:40:40Z</time>
      </trkpt>
      <trkpt lat="47.04427" lon="2.40698">
        <ele>128</ele>
        <time>2021-08-13T12:40:40Z</time>
      </trkpt>
      <trkpt lat="47.04453" lon="2.40675">
        <ele>129</ele>
        <time>2021-08-13T12:40:40Z</time>
      </trkpt>
      <trkpt lat="47.04474" lon="2.4068">
        <ele>134</ele>
        <time>2021-08-13T12:40:40Z</time>
      </trkpt>
      <trkpt lat="47.04477" lon="2.40689">
        <ele>134</ele>
        <time>2021-08-13T12:40:40Z</time>
      </trkpt>
      <trkpt lat="47.0449" lon="2.40712">
        <ele>134</ele>
        <time>2021-08-13T12:40:40Z</time>
      </trkpt>
      <trkpt lat="47.04493" lon="2.40718">
        <ele>134</ele>
        <time>2021-08-13T12:40:40Z</time>
      </trkpt>
      <trkpt lat="47.04496" lon="2.40724">
        <ele>135</ele>
        <time>2021-08-13T12:40:40Z</time>
      </trkpt>
      <trkpt lat="47.045" lon="2.40731">
        <ele>135</ele>
        <time>2021-08-13T12:40:40Z</time>
      </trkpt>
      <trkpt lat="47.04505" lon="2.40739">
        <ele>135</ele>
        <time>2021-08-13T12:40:40Z</time>
      </trkpt>
      <trkpt lat="47.04508" lon="2.40745">
        <ele>135</ele>
        <time>2021-08-13T12:40:40Z</time>
      </trkpt>
      <trkpt lat="47.04511" lon="2.40754">
        <ele>135</ele>
        <time>2021-08-13T12:40:40Z</time>
      </trkpt>
      <trkpt lat="47.04515" lon="2.40762">
        <ele>134</ele>
        <time>2021-08-13T12:40:40Z</time>
      </trkpt>
      <trkpt lat="47.04518" lon="2.40768">
        <ele>134</ele>
        <time>2021-08-13T12:40:40Z</time>
      </trkpt>
      <trkpt lat="47.04519" lon="2.40774">
        <ele>134</ele>
        <time>2021-08-13T12:40:40Z</time>
      </trkpt>
      <trkpt lat="47.04521" lon="2.4078">
        <ele>134</ele>
        <time>2021-08-13T12:40:40Z</time>
      </trkpt>
      <trkpt lat="47.04526" lon="2.40787">
        <ele>134</ele>
        <time>2021-08-13T12:40:40Z</time>
      </trkpt>
      <trkpt lat="47.0453" lon="2.40793">
        <ele>133</ele>
        <time>2021-08-13T12:40:40Z</time>
      </trkpt>
      <trkpt lat="47.04533" lon="2.408">
        <ele>132</ele>
        <time>2021-08-13T12:40:40Z</time>
      </trkpt>
      <trkpt lat="47.04538" lon="2.4081">
        <ele>130</ele>
        <time>2021-08-13T12:40:40Z</time>
      </trkpt>
      <trkpt lat="47.04543" lon="2.40819">
        <ele>129</ele>
        <time>2021-08-13T12:40:40Z</time>
      </trkpt>
      <trkpt lat="47.04547" lon="2.40827">
        <ele>128</ele>
        <time>2021-08-13T12:40:40Z</time>
      </trkpt>
      <trkpt lat="47.04551" lon="2.40835">
        <ele>127</ele>
        <time>2021-08-13T12:40:40Z</time>
      </trkpt>
      <trkpt lat="47.04554" lon="2.40843">
        <ele>128</ele>
        <time>2021-08-13T12:40:40Z</time>
      </trkpt>
      <trkpt lat="47.04555" lon="2.40852">
        <ele>130</ele>
        <time>2021-08-13T12:40:40Z</time>
      </trkpt>
      <trkpt lat="47.04556" lon="2.40861">
        <ele>131</ele>
        <time>2021-08-13T12:40:40Z</time>
      </trkpt>
      <trkpt lat="47.04554" lon="2.40871">
        <ele>132</ele>
        <time>2021-08-13T12:40:40Z</time>
      </trkpt>
      <trkpt lat="47.04553" lon="2.4088">
        <ele>132</ele>
        <time>2021-08-13T12:40:40Z</time>
      </trkpt>
      <trkpt lat="47.0455" lon="2.40889">
        <ele>132</ele>
        <time>2021-08-13T12:40:40Z</time>
      </trkpt>
      <trkpt lat="47.04548" lon="2.40896">
        <ele>132</ele>
        <time>2021-08-13T12:40:40Z</time>
      </trkpt>
      <trkpt lat="47.04545" lon="2.40904">
        <ele>132</ele>
        <time>2021-08-13T12:40:40Z</time>
      </trkpt>
      <trkpt lat="47.04542" lon="2.40912">
        <ele>132</ele>
        <time>2021-08-13T12:40:40Z</time>
      </trkpt>
      <trkpt lat="47.04539" lon="2.4092">
        <ele>132</ele>
        <time>2021-08-13T12:40:40Z</time>
      </trkpt>
      <trkpt lat="47.04536" lon="2.40928">
        <ele>132</ele>
        <time>2021-08-13T12:40:40Z</time>
      </trkpt>
      <trkpt lat="47.04534" lon="2.40935">
        <ele>132</ele>
        <time>2021-08-13T12:40:40Z</time>
      </trkpt>
      <trkpt lat="47.04531" lon="2.40943">
        <ele>132</ele>
        <time>2021-08-13T12:40:40Z</time>
      </trkpt>
      <trkpt lat="47.04529" lon="2.40952">
        <ele>132</ele>
        <time>2021-08-13T12:40:40Z</time>
      </trkpt>
      <trkpt lat="47.04528" lon="2.4096">
        <ele>132</ele>
        <time>2021-08-13T12:40:40Z</time>
      </trkpt>
      <trkpt lat="47.04526" lon="2.40968">
        <ele>132</ele>
        <time>2021-08-13T12:40:40Z</time>
      </trkpt>
      <trkpt lat="47.04524" lon="2.40976">
        <ele>132</ele>
        <time>2021-08-13T12:40:40Z</time>
      </trkpt>
      <trkpt lat="47.04522" lon="2.40986">
        <ele>131</ele>
        <time>2021-08-13T12:40:40Z</time>
      </trkpt>
      <trkpt lat="47.0452" lon="2.40995">
        <ele>131</ele>
        <time>2021-08-13T12:40:40Z</time>
      </trkpt>
      <trkpt lat="47.04517" lon="2.41004">
        <ele>131</ele>
        <time>2021-08-13T12:40:40Z</time>
      </trkpt>
      <trkpt lat="47.04514" lon="2.41012">
        <ele>131</ele>
        <time>2021-08-13T12:40:40Z</time>
      </trkpt>
      <trkpt lat="47.0451" lon="2.41018">
        <ele>131</ele>
        <time>2021-08-13T12:40:40Z</time>
      </trkpt>
      <trkpt lat="47.04506" lon="2.41023">
        <ele>131</ele>
        <time>2021-08-13T12:40:40Z</time>
      </trkpt>
      <trkpt lat="47.04503" lon="2.41028">
        <ele>131</ele>
        <time>2021-08-13T12:40:40Z</time>
      </trkpt>
      <trkpt lat="47.04499" lon="2.41033">
        <ele>131</ele>
        <time>2021-08-13T12:40:40Z</time>
      </trkpt>
      <trkpt lat="47.04498" lon="2.41035">
        <ele>131</ele>
        <time>2021-08-13T12:40:40Z</time>
      </trkpt>
      <trkpt lat="47.04495" lon="2.4104">
        <ele>131</ele>
        <time>2021-08-13T12:40:40Z</time>
      </trkpt>
      <trkpt lat="47.04495" lon="2.41044">
        <ele>131</ele>
        <time>2021-08-13T12:40:40Z</time>
      </trkpt>
      <trkpt lat="47.04495" lon="2.41047">
        <ele>131</ele>
        <time>2021-08-13T12:40:40Z</time>
      </trkpt>
      <trkpt lat="47.04496" lon="2.4105">
        <ele>131</ele>
        <time>2021-08-13T12:40:40Z</time>
      </trkpt>
      <trkpt lat="47.04496" lon="2.41053">
        <ele>131</ele>
        <time>2021-08-13T12:40:40Z</time>
      </trkpt>
      <trkpt lat="47.04495" lon="2.41055">
        <ele>131</ele>
        <time>2021-08-13T12:40:40Z</time>
      </trkpt>
      <trkpt lat="47.04495" lon="2.41056">
        <ele>131</ele>
        <time>2021-08-13T12:40:40Z</time>
      </trkpt>
      <trkpt lat="47.04495" lon="2.41056">
        <ele>131</ele>
        <time>2021-08-13T12:40:40Z</time>
      </trkpt>
      <trkpt lat="47.04495" lon="2.41057">
        <ele>131</ele>
        <time>2021-08-13T12:40:40Z</time>
      </trkpt>
      <trkpt lat="47.04495" lon="2.41057">
        <ele>131</ele>
        <time>2021-08-13T12:40:40Z</time>
      </trkpt>
      <trkpt lat="47.04495" lon="2.41057">
        <ele>131</ele>
        <time>2021-08-13T12:40:40Z</time>
      </trkpt>
      <trkpt lat="47.04495" lon="2.41057">
        <ele>131</ele>
        <time>2021-08-13T12:40:40Z</time>
      </trkpt>
      <trkpt lat="47.04496" lon="2.41057">
        <ele>131</ele>
        <time>2021-08-13T12:40:40Z</time>
      </trkpt>
      <trkpt lat="47.04496" lon="2.41058">
        <ele>131</ele>
        <time>2021-08-13T12:40:40Z</time>
      </trkpt>
      <trkpt lat="47.04496" lon="2.41058">
        <ele>131</ele>
        <time>2021-08-13T12:40:40Z</time>
      </trkpt>
      <trkpt lat="47.04497" lon="2.41058">
        <ele>131</ele>
        <time>2021-08-13T12:40:40Z</time>
      </trkpt>
      <trkpt lat="47.04497" lon="2.41059">
        <ele>131</ele>
        <time>2021-08-13T12:40:40Z</time>
      </trkpt>
      <trkpt lat="47.04497" lon="2.41059">
        <ele>131</ele>
        <time>2021-08-13T12:40:40Z</time>
      </trkpt>
      <trkpt lat="47.04498" lon="2.41059">
        <ele>131</ele>
        <time>2021-08-13T12:40:40Z</time>
      </trkpt>
      <trkpt lat="47.04498" lon="2.41058">
        <ele>131</ele>
        <time>2021-08-13T12:40:40Z</time>
      </trkpt>
      <trkpt lat="47.04498" lon="2.41058">
        <ele>131</ele>
        <time>2021-08-13T12:40:40Z</time>
      </trkpt>
      <trkpt lat="47.04498" lon="2.41058">
        <ele>131</ele>
        <time>2021-08-13T12:40:40Z</time>
      </trkpt>
      <trkpt lat="47.04498" lon="2.41058">
        <ele>131</ele>
        <time>2021-08-13T12:40:40Z</time>
      </trkpt>
      <trkpt lat="47.04498" lon="2.41058">
        <ele>131</ele>
        <time>2021-08-13T12:40:40Z</time>
      </trkpt>
      <trkpt lat="47.04498" lon="2.41058">
        <ele>131</ele>
        <time>2021-08-13T12:40:40Z</time>
      </trkpt>
      <trkpt lat="47.04498" lon="2.41058">
        <ele>131</ele>
        <time>2021-08-13T12:40:40Z</time>
      </trkpt>
      <trkpt lat="47.04498" lon="2.41058">
        <ele>131</ele>
        <time>2021-08-13T12:40:40Z</time>
      </trkpt>
      <trkpt lat="47.04498" lon="2.41057">
        <ele>131</ele>
        <time>2021-08-13T12:40:40Z</time>
      </trkpt>
      <trkpt lat="47.04498" lon="2.41057">
        <ele>131</ele>
        <time>2021-08-13T12:40:40Z</time>
      </trkpt>
      <trkpt lat="47.04498" lon="2.41057">
        <ele>131</ele>
        <time>2021-08-13T12:40:40Z</time>
      </trkpt>
      <trkpt lat="47.04498" lon="2.41057">
        <ele>131</ele>
        <time>2021-08-13T12:40:40Z</time>
      </trkpt>
      <trkpt lat="47.04498" lon="2.41056">
        <ele>131</ele>
        <time>2021-08-13T12:40:40Z</time>
      </trkpt>
      <trkpt lat="47.04497" lon="2.41058">
        <ele>131</ele>
        <time>2021-08-13T12:40:40Z</time>
      </trkpt>
      <trkpt lat="47.04497" lon="2.41059">
        <ele>131</ele>
        <time>2021-08-13T12:40:40Z</time>
      </trkpt>
      <trkpt lat="47.04497" lon="2.41061">
        <ele>131</ele>
        <time>2021-08-13T12:40:40Z</time>
      </trkpt>
      <trkpt lat="47.04496" lon="2.41064">
        <ele>131</ele>
        <time>2021-08-13T12:40:40Z</time>
      </trkpt>
      <trkpt lat="47.04495" lon="2.41069">
        <ele>131</ele>
        <time>2021-08-13T12:40:40Z</time>
      </trkpt>
      <trkpt lat="47.04494" lon="2.41074">
        <ele>131</ele>
        <time>2021-08-13T12:40:40Z</time>
      </trkpt>
      <trkpt lat="47.04493" lon="2.4108">
        <ele>131</ele>
        <time>2021-08-13T12:40:40Z</time>
      </trkpt>
      <trkpt lat="47.04491" lon="2.41087">
        <ele>132</ele>
        <time>2021-08-13T12:40:40Z</time>
      </trkpt>
      <trkpt lat="47.04489" lon="2.41094">
        <ele>132</ele>
        <time>2021-08-13T12:40:40Z</time>
      </trkpt>
      <trkpt lat="47.04487" lon="2.41102">
        <ele>132</ele>
        <time>2021-08-13T12:40:40Z</time>
      </trkpt>
      <trkpt lat="47.04485" lon="2.41108">
        <ele>132</ele>
        <time>2021-08-13T12:40:40Z</time>
      </trkpt>
      <trkpt lat="47.04485" lon="2.41114">
        <ele>132</ele>
        <time>2021-08-13T12:40:40Z</time>
      </trkpt>
      <trkpt lat="47.04483" lon="2.41122">
        <ele>132</ele>
        <time>2021-08-13T12:40:40Z</time>
      </trkpt>
      <trkpt lat="47.04482" lon="2.41127">
        <ele>132</ele>
        <time>2021-08-13T12:40:40Z</time>
      </trkpt>
      <trkpt lat="47.0448" lon="2.41135">
        <ele>132</ele>
        <time>2021-08-13T12:40:40Z</time>
      </trkpt>
      <trkpt lat="47.04478" lon="2.41144">
        <ele>133</ele>
        <time>2021-08-13T12:40:40Z</time>
      </trkpt>
      <trkpt lat="47.04477" lon="2.41154">
        <ele>133</ele>
        <time>2021-08-13T12:40:40Z</time>
      </trkpt>
      <trkpt lat="47.04478" lon="2.41163">
        <ele>133</ele>
        <time>2021-08-13T12:40:40Z</time>
      </trkpt>
      <trkpt lat="47.04479" lon="2.41171">
        <ele>132</ele>
        <time>2021-08-13T12:40:40Z</time>
      </trkpt>
      <trkpt lat="47.04479" lon="2.41181">
        <ele>132</ele>
        <time>2021-08-13T12:40:40Z</time>
      </trkpt>
      <trkpt lat="47.04476" lon="2.41189">
        <ele>132</ele>
        <time>2021-08-13T12:40:40Z</time>
      </trkpt>
      <trkpt lat="47.04474" lon="2.41198">
        <ele>132</ele>
        <time>2021-08-13T12:40:40Z</time>
      </trkpt>
      <trkpt lat="47.04472" lon="2.41207">
        <ele>131</ele>
        <time>2021-08-13T12:40:40Z</time>
      </trkpt>
      <trkpt lat="47.0447" lon="2.41217">
        <ele>131</ele>
        <time>2021-08-13T12:40:40Z</time>
      </trkpt>
      <trkpt lat="47.04468" lon="2.41226">
        <ele>131</ele>
        <time>2021-08-13T12:40:40Z</time>
      </trkpt>
      <trkpt lat="47.04467" lon="2.41234">
        <ele>131</ele>
        <time>2021-08-13T12:40:40Z</time>
      </trkpt>
      <trkpt lat="47.04465" lon="2.41242">
        <ele>131</ele>
        <time>2021-08-13T12:40:40Z</time>
      </trkpt>
      <trkpt lat="47.04463" lon="2.4125">
        <ele>131</ele>
        <time>2021-08-13T12:40:40Z</time>
      </trkpt>
      <trkpt lat="47.0446" lon="2.41259">
        <ele>131</ele>
        <time>2021-08-13T12:40:40Z</time>
      </trkpt>
      <trkpt lat="47.04458" lon="2.41267">
        <ele>132</ele>
        <time>2021-08-13T12:40:40Z</time>
      </trkpt>
      <trkpt lat="47.04456" lon="2.41276">
        <ele>132</ele>
        <time>2021-08-13T12:40:40Z</time>
      </trkpt>
      <trkpt lat="47.04453" lon="2.41286">
        <ele>132</ele>
        <time>2021-08-13T12:40:40Z</time>
      </trkpt>
      <trkpt lat="47.04452" lon="2.41293">
        <ele>132</ele>
        <time>2021-08-13T12:40:40Z</time>
      </trkpt>
      <trkpt lat="47.0445" lon="2.41302">
        <ele>133</ele>
        <time>2021-08-13T12:40:40Z</time>
      </trkpt>
      <trkpt lat="47.04448" lon="2.41311">
        <ele>133</ele>
        <time>2021-08-13T12:40:40Z</time>
      </trkpt>
      <trkpt lat="47.04445" lon="2.41321">
        <ele>133</ele>
        <time>2021-08-13T12:40:40Z</time>
      </trkpt>
      <trkpt lat="47.04443" lon="2.4133">
        <ele>132</ele>
        <time>2021-08-13T12:40:40Z</time>
      </trkpt>
      <trkpt lat="47.04441" lon="2.41341">
        <ele>132</ele>
        <time>2021-08-13T12:40:40Z</time>
      </trkpt>
      <trkpt lat="47.04438" lon="2.4135">
        <ele>132</ele>
        <time>2021-08-13T12:40:40Z</time>
      </trkpt>
      <trkpt lat="47.04436" lon="2.4136">
        <ele>132</ele>
        <time>2021-08-13T12:40:40Z</time>
      </trkpt>
      <trkpt lat="47.04435" lon="2.41367">
        <ele>132</ele>
        <time>2021-08-13T12:40:40Z</time>
      </trkpt>
      <trkpt lat="47.04433" lon="2.41376">
        <ele>132</ele>
        <time>2021-08-13T12:40:40Z</time>
      </trkpt>
      <trkpt lat="47.04431" lon="2.41385">
        <ele>132</ele>
        <time>2021-08-13T12:40:40Z</time>
      </trkpt>
      <trkpt lat="47.04429" lon="2.41396">
        <ele>132</ele>
        <time>2021-08-13T12:40:40Z</time>
      </trkpt>
      <trkpt lat="47.04426" lon="2.41405">
        <ele>132</ele>
        <time>2021-08-13T12:40:40Z</time>
      </trkpt>
      <trkpt lat="47.04426" lon="2.41414">
        <ele>132</ele>
        <time>2021-08-13T12:40:40Z</time>
      </trkpt>
      <trkpt lat="47.04424" lon="2.41424">
        <ele>132</ele>
        <time>2021-08-13T12:40:40Z</time>
      </trkpt>
      <trkpt lat="47.04422" lon="2.41433">
        <ele>132</ele>
        <time>2021-08-13T12:40:40Z</time>
      </trkpt>
      <trkpt lat="47.0442" lon="2.4144">
        <ele>132</ele>
        <time>2021-08-13T12:40:40Z</time>
      </trkpt>
      <trkpt lat="47.04418" lon="2.4145">
        <ele>133</ele>
        <time>2021-08-13T12:40:40Z</time>
      </trkpt>
      <trkpt lat="47.04415" lon="2.4146">
        <ele>133</ele>
        <time>2021-08-13T12:40:40Z</time>
      </trkpt>
      <trkpt lat="47.04413" lon="2.41469">
        <ele>133</ele>
        <time>2021-08-13T12:40:40Z</time>
      </trkpt>
      <trkpt lat="47.04411" lon="2.41479">
        <ele>134</ele>
        <time>2021-08-13T12:40:40Z</time>
      </trkpt>
      <trkpt lat="47.04409" lon="2.41489">
        <ele>134</ele>
        <time>2021-08-13T12:40:40Z</time>
      </trkpt>
      <trkpt lat="47.04407" lon="2.41498">
        <ele>135</ele>
        <time>2021-08-13T12:40:40Z</time>
      </trkpt>
      <trkpt lat="47.04406" lon="2.41509">
        <ele>135</ele>
        <time>2021-08-13T12:40:40Z</time>
      </trkpt>
      <trkpt lat="47.04387" lon="2.4154">
        <ele>134</ele>
        <time>2021-08-13T12:40:40Z</time>
      </trkpt>
      <trkpt lat="47.04369" lon="2.41584">
        <ele>134</ele>
        <time>2021-08-13T12:40:40Z</time>
      </trkpt>
      <trkpt lat="47.04357" lon="2.41628">
        <ele>134</ele>
        <time>2021-08-13T12:40:40Z</time>
      </trkpt>
      <trkpt lat="47.04343" lon="2.4167">
        <ele>135</ele>
        <time>2021-08-13T12:40:40Z</time>
      </trkpt>
      <trkpt lat="47.04322" lon="2.41701">
        <ele>136</ele>
        <time>2021-08-13T12:40:40Z</time>
      </trkpt>
      <trkpt lat="47.04307" lon="2.41732">
        <ele>135</ele>
        <time>2021-08-13T12:40:40Z</time>
      </trkpt>
      <trkpt lat="47.04304" lon="2.4174">
        <ele>134</ele>
        <time>2021-08-13T12:40:40Z</time>
      </trkpt>
      <trkpt lat="47.04298" lon="2.41754">
        <ele>134</ele>
        <time>2021-08-13T12:40:40Z</time>
      </trkpt>
      <trkpt lat="47.04295" lon="2.41762">
        <ele>134</ele>
        <time>2021-08-13T12:40:40Z</time>
      </trkpt>
      <trkpt lat="47.04291" lon="2.4177">
        <ele>133</ele>
        <time>2021-08-13T12:40:40Z</time>
      </trkpt>
      <trkpt lat="47.04289" lon="2.41781">
        <ele>133</ele>
        <time>2021-08-13T12:40:40Z</time>
      </trkpt>
      <trkpt lat="47.04289" lon="2.41792">
        <ele>133</ele>
        <time>2021-08-13T12:40:40Z</time>
      </trkpt>
      <trkpt lat="47.04288" lon="2.41801">
        <ele>133</ele>
        <time>2021-08-13T12:40:40Z</time>
      </trkpt>
      <trkpt lat="47.04288" lon="2.41809">
        <ele>133</ele>
        <time>2021-08-13T12:40:40Z</time>
      </trkpt>
      <trkpt lat="47.04287" lon="2.41814">
        <ele>133</ele>
        <time>2021-08-13T12:40:40Z</time>
      </trkpt>
      <trkpt lat="47.04287" lon="2.41821">
        <ele>133</ele>
        <time>2021-08-13T12:40:40Z</time>
      </trkpt>
      <trkpt lat="47.04285" lon="2.41829">
        <ele>133</ele>
        <time>2021-08-13T12:40:40Z</time>
      </trkpt>
      <trkpt lat="47.04284" lon="2.41835">
        <ele>133</ele>
        <time>2021-08-13T12:40:40Z</time>
      </trkpt>
      <trkpt lat="47.04282" lon="2.41841">
        <ele>133</ele>
        <time>2021-08-13T12:40:40Z</time>
      </trkpt>
      <trkpt lat="47.04278" lon="2.41847">
        <ele>133</ele>
        <time>2021-08-13T12:40:40Z</time>
      </trkpt>
      <trkpt lat="47.04272" lon="2.41853">
        <ele>133</ele>
        <time>2021-08-13T12:40:40Z</time>
      </trkpt>
      <trkpt lat="47.04266" lon="2.41855">
        <ele>133</ele>
        <time>2021-08-13T12:40:40Z</time>
      </trkpt>
      <trkpt lat="47.04263" lon="2.41858">
        <ele>133</ele>
        <time>2021-08-13T12:40:40Z</time>
      </trkpt>
      <trkpt lat="47.04257" lon="2.41858">
        <ele>133</ele>
        <time>2021-08-13T12:40:40Z</time>
      </trkpt>
      <trkpt lat="47.04253" lon="2.41864">
        <ele>134</ele>
        <time>2021-08-13T12:40:40Z</time>
      </trkpt>
      <trkpt lat="47.04248" lon="2.4187">
        <ele>134</ele>
        <time>2021-08-13T12:40:40Z</time>
      </trkpt>
      <trkpt lat="47.04245" lon="2.41877">
        <ele>134</ele>
        <time>2021-08-13T12:40:40Z</time>
      </trkpt>
      <trkpt lat="47.04241" lon="2.41884">
        <ele>134</ele>
        <time>2021-08-13T12:40:40Z</time>
      </trkpt>
      <trkpt lat="47.04238" lon="2.41891">
        <ele>134</ele>
        <time>2021-08-13T12:40:40Z</time>
      </trkpt>
      <trkpt lat="47.04235" lon="2.41898">
        <ele>134</ele>
        <time>2021-08-13T12:40:40Z</time>
      </trkpt>
      <trkpt lat="47.04231" lon="2.41906">
        <ele>134</ele>
        <time>2021-08-13T12:40:40Z</time>
      </trkpt>
      <trkpt lat="47.04226" lon="2.41912">
        <ele>134</ele>
        <time>2021-08-13T12:40:40Z</time>
      </trkpt>
      <trkpt lat="47.04223" lon="2.41918">
        <ele>134</ele>
        <time>2021-08-13T12:40:40Z</time>
      </trkpt>
      <trkpt lat="47.04218" lon="2.41926">
        <ele>134</ele>
        <time>2021-08-13T12:40:40Z</time>
      </trkpt>
      <trkpt lat="47.04215" lon="2.41934">
        <ele>134</ele>
        <time>2021-08-13T12:40:40Z</time>
      </trkpt>
      <trkpt lat="47.04212" lon="2.41942">
        <ele>134</ele>
        <time>2021-08-13T12:40:40Z</time>
      </trkpt>
      <trkpt lat="47.04208" lon="2.41948">
        <ele>134</ele>
        <time>2021-08-13T12:40:40Z</time>
      </trkpt>
      <trkpt lat="47.04205" lon="2.41957">
        <ele>134</ele>
        <time>2021-08-13T12:40:40Z</time>
      </trkpt>
      <trkpt lat="47.04202" lon="2.41966">
        <ele>134</ele>
        <time>2021-08-13T12:40:40Z</time>
      </trkpt>
      <trkpt lat="47.04196" lon="2.41974">
        <ele>134</ele>
        <time>2021-08-13T12:40:40Z</time>
      </trkpt>
      <trkpt lat="47.04193" lon="2.41981">
        <ele>134</ele>
        <time>2021-08-13T12:40:40Z</time>
      </trkpt>
      <trkpt lat="47.0419" lon="2.41987">
        <ele>134</ele>
        <time>2021-08-13T12:40:40Z</time>
      </trkpt>
      <trkpt lat="47.04185" lon="2.41993">
        <ele>134</ele>
        <time>2021-08-13T12:40:40Z</time>
      </trkpt>
      <trkpt lat="47.04182" lon="2.42">
        <ele>134</ele>
        <time>2021-08-13T12:40:40Z</time>
      </trkpt>
      <trkpt lat="47.04179" lon="2.42008">
        <ele>134</ele>
        <time>2021-08-13T12:40:40Z</time>
      </trkpt>
      <trkpt lat="47.04175" lon="2.42017">
        <ele>134</ele>
        <time>2021-08-13T12:40:40Z</time>
      </trkpt>
      <trkpt lat="47.0417" lon="2.42025">
        <ele>134</ele>
        <time>2021-08-13T12:40:40Z</time>
      </trkpt>
      <trkpt lat="47.04167" lon="2.42031">
        <ele>134</ele>
        <time>2021-08-13T12:40:40Z</time>
      </trkpt>
      <trkpt lat="47.04163" lon="2.42038">
        <ele>134</ele>
        <time>2021-08-13T12:40:40Z</time>
      </trkpt>
      <trkpt lat="47.04159" lon="2.42047">
        <ele>134</ele>
        <time>2021-08-13T12:40:40Z</time>
      </trkpt>
      <trkpt lat="47.04156" lon="2.42055">
        <ele>134</ele>
        <time>2021-08-13T12:40:40Z</time>
      </trkpt>
      <trkpt lat="47.04153" lon="2.42063">
        <ele>134</ele>
        <time>2021-08-13T12:40:40Z</time>
      </trkpt>
      <trkpt lat="47.04148" lon="2.4207">
        <ele>134</ele>
        <time>2021-08-13T12:40:40Z</time>
      </trkpt>
      <trkpt lat="47.04144" lon="2.42078">
        <ele>134</ele>
        <time>2021-08-13T12:40:40Z</time>
      </trkpt>
      <trkpt lat="47.04141" lon="2.42086">
        <ele>134</ele>
        <time>2021-08-13T12:40:40Z</time>
      </trkpt>
      <trkpt lat="47.04138" lon="2.42096">
        <ele>134</ele>
        <time>2021-08-13T12:40:40Z</time>
      </trkpt>
      <trkpt lat="47.04133" lon="2.42104">
        <ele>134</ele>
        <time>2021-08-13T12:40:40Z</time>
      </trkpt>
      <trkpt lat="47.04129" lon="2.42112">
        <ele>134</ele>
        <time>2021-08-13T12:40:40Z</time>
      </trkpt>
      <trkpt lat="47.04125" lon="2.4212">
        <ele>134</ele>
        <time>2021-08-13T12:40:40Z</time>
      </trkpt>
      <trkpt lat="47.04122" lon="2.42128">
        <ele>134</ele>
        <time>2021-08-13T12:40:40Z</time>
      </trkpt>
      <trkpt lat="47.04119" lon="2.42136">
        <ele>135</ele>
        <time>2021-08-13T12:40:40Z</time>
      </trkpt>
      <trkpt lat="47.04115" lon="2.42143">
        <ele>135</ele>
        <time>2021-08-13T12:40:40Z</time>
      </trkpt>
      <trkpt lat="47.0411" lon="2.4215">
        <ele>135</ele>
        <time>2021-08-13T12:40:40Z</time>
      </trkpt>
      <trkpt lat="47.04107" lon="2.42157">
        <ele>135</ele>
        <time>2021-08-13T12:40:40Z</time>
      </trkpt>
      <trkpt lat="47.04103" lon="2.42165">
        <ele>135</ele>
        <time>2021-08-13T12:40:40Z</time>
      </trkpt>
      <trkpt lat="47.041" lon="2.42173">
        <ele>135</ele>
        <time>2021-08-13T12:40:40Z</time>
      </trkpt>
      <trkpt lat="47.04096" lon="2.42182">
        <ele>135</ele>
        <time>2021-08-13T12:40:40Z</time>
      </trkpt>
      <trkpt lat="47.04093" lon="2.4219">
        <ele>135</ele>
        <time>2021-08-13T12:40:40Z</time>
      </trkpt>
      <trkpt lat="47.04075" lon="2.42229">
        <ele>134</ele>
        <time>2021-08-13T12:40:40Z</time>
      </trkpt>
      <trkpt lat="47.04057" lon="2.4227">
        <ele>132</ele>
        <time>2021-08-13T12:40:40Z</time>
      </trkpt>
      <trkpt lat="47.04037" lon="2.4231">
        <ele>132</ele>
        <time>2021-08-13T12:40:40Z</time>
      </trkpt>
      <trkpt lat="47.04016" lon="2.42359">
        <ele>131</ele>
        <time>2021-08-13T12:40:40Z</time>
      </trkpt>
      <trkpt lat="47.03988" lon="2.42424">
        <ele>130</ele>
        <time>2021-08-13T12:40:40Z</time>
      </trkpt>
      <trkpt lat="47.03975" lon="2.42449">
        <ele>129</ele>
        <time>2021-08-13T12:40:40Z</time>
      </trkpt>
      <trkpt lat="47.03972" lon="2.42458">
        <ele>129</ele>
        <time>2021-08-13T12:40:40Z</time>
      </trkpt>
      <trkpt lat="47.03963" lon="2.42472">
        <ele>129</ele>
        <time>2021-08-13T12:40:40Z</time>
      </trkpt>
      <trkpt lat="47.03959" lon="2.4248">
        <ele>129</ele>
        <time>2021-08-13T12:40:40Z</time>
      </trkpt>
      <trkpt lat="47.03956" lon="2.42487">
        <ele>129</ele>
        <time>2021-08-13T12:40:40Z</time>
      </trkpt>
      <trkpt lat="47.03951" lon="2.42495">
        <ele>129</ele>
        <time>2021-08-13T12:40:40Z</time>
      </trkpt>
      <trkpt lat="47.03944" lon="2.42509">
        <ele>130</ele>
        <time>2021-08-13T12:40:40Z</time>
      </trkpt>
      <trkpt lat="47.03927" lon="2.4255">
        <ele>131</ele>
        <time>2021-08-13T12:40:40Z</time>
      </trkpt>
      <trkpt lat="47.03909" lon="2.4259">
        <ele>133</ele>
        <time>2021-08-13T12:40:40Z</time>
      </trkpt>
      <trkpt lat="47.03899" lon="2.42633">
        <ele>132</ele>
        <time>2021-08-13T12:40:40Z</time>
      </trkpt>
      <trkpt lat="47.03889" lon="2.42687">
        <ele>131</ele>
        <time>2021-08-13T12:40:40Z</time>
      </trkpt>
      <trkpt lat="47.03876" lon="2.42744">
        <ele>132</ele>
        <time>2021-08-13T12:40:40Z</time>
      </trkpt>
      <trkpt lat="47.03866" lon="2.4278">
        <ele>131</ele>
        <time>2021-08-13T12:40:40Z</time>
      </trkpt>
      <trkpt lat="47.03863" lon="2.42788">
        <ele>131</ele>
        <time>2021-08-13T12:40:40Z</time>
      </trkpt>
      <trkpt lat="47.03847" lon="2.42841">
        <ele>131</ele>
        <time>2021-08-13T12:40:40Z</time>
      </trkpt>
      <trkpt lat="47.03833" lon="2.42886">
        <ele>130</ele>
        <time>2021-08-13T12:40:40Z</time>
      </trkpt>
      <trkpt lat="47.03821" lon="2.42929">
        <ele>129</ele>
        <time>2021-08-13T12:40:40Z</time>
      </trkpt>
      <trkpt lat="47.03809" lon="2.42973">
        <ele>129</ele>
        <time>2021-08-13T12:40:40Z</time>
      </trkpt>
      <trkpt lat="47.038" lon="2.43018">
        <ele>130</ele>
        <time>2021-08-13T12:40:40Z</time>
      </trkpt>
      <trkpt lat="47.03783" lon="2.43048">
        <ele>130</ele>
        <time>2021-08-13T12:40:40Z</time>
      </trkpt>
      <trkpt lat="47.03779" lon="2.43053">
        <ele>130</ele>
        <time>2021-08-13T12:40:40Z</time>
      </trkpt>
      <trkpt lat="47.03774" lon="2.43067">
        <ele>131</ele>
        <time>2021-08-13T12:40:40Z</time>
      </trkpt>
      <trkpt lat="47.03771" lon="2.43075">
        <ele>131</ele>
        <time>2021-08-13T12:40:40Z</time>
      </trkpt>
      <trkpt lat="47.03769" lon="2.43083">
        <ele>131</ele>
        <time>2021-08-13T12:40:40Z</time>
      </trkpt>
      <trkpt lat="47.03766" lon="2.4309">
        <ele>131</ele>
        <time>2021-08-13T12:40:40Z</time>
      </trkpt>
      <trkpt lat="47.03763" lon="2.431">
        <ele>131</ele>
        <time>2021-08-13T12:40:40Z</time>
      </trkpt>
      <trkpt lat="47.03758" lon="2.43111">
        <ele>131</ele>
        <time>2021-08-13T12:40:40Z</time>
      </trkpt>
      <trkpt lat="47.03756" lon="2.43124">
        <ele>130</ele>
        <time>2021-08-13T12:40:40Z</time>
      </trkpt>
      <trkpt lat="47.0375" lon="2.43131">
        <ele>130</ele>
        <time>2021-08-13T12:40:40Z</time>
      </trkpt>
      <trkpt lat="47.03748" lon="2.43137">
        <ele>130</ele>
        <time>2021-08-13T12:40:40Z</time>
      </trkpt>
      <trkpt lat="47.03744" lon="2.43147">
        <ele>129</ele>
        <time>2021-08-13T12:40:40Z</time>
      </trkpt>
      <trkpt lat="47.03746" lon="2.43151">
        <ele>129</ele>
        <time>2021-08-13T12:40:40Z</time>
      </trkpt>
      <trkpt lat="47.03743" lon="2.43158">
        <ele>129</ele>
        <time>2021-08-13T12:40:40Z</time>
      </trkpt>
      <trkpt lat="47.03739" lon="2.43174">
        <ele>129</ele>
        <time>2021-08-13T12:40:40Z</time>
      </trkpt>
      <trkpt lat="47.03737" lon="2.43182">
        <ele>129</ele>
        <time>2021-08-13T12:40:40Z</time>
      </trkpt>
      <trkpt lat="47.03735" lon="2.43192">
        <ele>129</ele>
        <time>2021-08-13T12:40:40Z</time>
      </trkpt>
      <trkpt lat="47.03731" lon="2.43202">
        <ele>129</ele>
        <time>2021-08-13T12:40:40Z</time>
      </trkpt>
      <trkpt lat="47.03729" lon="2.4321">
        <ele>129</ele>
        <time>2021-08-13T12:40:40Z</time>
      </trkpt>
      <trkpt lat="47.03727" lon="2.4322">
        <ele>129</ele>
        <time>2021-08-13T12:40:40Z</time>
      </trkpt>
      <trkpt lat="47.03724" lon="2.43229">
        <ele>129</ele>
        <time>2021-08-13T12:40:40Z</time>
      </trkpt>
      <trkpt lat="47.03723" lon="2.43238">
        <ele>129</ele>
        <time>2021-08-13T12:40:40Z</time>
      </trkpt>
      <trkpt lat="47.03721" lon="2.43249">
        <ele>130</ele>
        <time>2021-08-13T12:40:40Z</time>
      </trkpt>
      <trkpt lat="47.03718" lon="2.43256">
        <ele>130</ele>
        <time>2021-08-13T12:40:40Z</time>
      </trkpt>
      <trkpt lat="47.03715" lon="2.43264">
        <ele>130</ele>
        <time>2021-08-13T12:40:40Z</time>
      </trkpt>
      <trkpt lat="47.03713" lon="2.43273">
        <ele>130</ele>
        <time>2021-08-13T12:40:40Z</time>
      </trkpt>
      <trkpt lat="47.0371" lon="2.43282">
        <ele>131</ele>
        <time>2021-08-13T12:40:40Z</time>
      </trkpt>
      <trkpt lat="47.03706" lon="2.4329">
        <ele>131</ele>
        <time>2021-08-13T12:40:40Z</time>
      </trkpt>
      <trkpt lat="47.03704" lon="2.433">
        <ele>131</ele>
        <time>2021-08-13T12:40:40Z</time>
      </trkpt>
      <trkpt lat="47.03701" lon="2.43309">
        <ele>131</ele>
        <time>2021-08-13T12:40:40Z</time>
      </trkpt>
      <trkpt lat="47.03698" lon="2.43318">
        <ele>132</ele>
        <time>2021-08-13T12:40:40Z</time>
      </trkpt>
      <trkpt lat="47.03696" lon="2.43326">
        <ele>132</ele>
        <time>2021-08-13T12:40:40Z</time>
      </trkpt>
      <trkpt lat="47.03694" lon="2.43335">
        <ele>133</ele>
        <time>2021-08-13T12:40:40Z</time>
      </trkpt>
      <trkpt lat="47.03692" lon="2.43347">
        <ele>133</ele>
        <time>2021-08-13T12:40:40Z</time>
      </trkpt>
      <trkpt lat="47.03691" lon="2.43355">
        <ele>133</ele>
        <time>2021-08-13T12:40:40Z</time>
      </trkpt>
      <trkpt lat="47.03689" lon="2.43362">
        <ele>133</ele>
        <time>2021-08-13T12:40:40Z</time>
      </trkpt>
      <trkpt lat="47.03688" lon="2.43371">
        <ele>132</ele>
        <time>2021-08-13T12:40:40Z</time>
      </trkpt>
      <trkpt lat="47.03687" lon="2.4338">
        <ele>132</ele>
        <time>2021-08-13T12:40:40Z</time>
      </trkpt>
      <trkpt lat="47.03688" lon="2.43389">
        <ele>131</ele>
        <time>2021-08-13T12:40:40Z</time>
      </trkpt>
      <trkpt lat="47.03689" lon="2.43399">
        <ele>131</ele>
        <time>2021-08-13T12:40:40Z</time>
      </trkpt>
      <trkpt lat="47.03687" lon="2.43409">
        <ele>131</ele>
        <time>2021-08-13T12:40:40Z</time>
      </trkpt>
      <trkpt lat="47.03685" lon="2.43419">
        <ele>131</ele>
        <time>2021-08-13T12:40:40Z</time>
      </trkpt>
      <trkpt lat="47.03682" lon="2.43428">
        <ele>131</ele>
        <time>2021-08-13T12:40:40Z</time>
      </trkpt>
      <trkpt lat="47.03679" lon="2.43438">
        <ele>132</ele>
        <time>2021-08-13T12:40:40Z</time>
      </trkpt>
      <trkpt lat="47.03676" lon="2.43448">
        <ele>132</ele>
        <time>2021-08-13T12:40:40Z</time>
      </trkpt>
      <trkpt lat="47.03673" lon="2.43458">
        <ele>133</ele>
        <time>2021-08-13T12:40:40Z</time>
      </trkpt>
      <trkpt lat="47.03671" lon="2.43466">
        <ele>133</ele>
        <time>2021-08-13T12:40:40Z</time>
      </trkpt>
      <trkpt lat="47.03668" lon="2.43475">
        <ele>133</ele>
        <time>2021-08-13T12:40:40Z</time>
      </trkpt>
      <trkpt lat="47.03662" lon="2.43481">
        <ele>134</ele>
        <time>2021-08-13T12:40:40Z</time>
      </trkpt>
      <trkpt lat="47.03657" lon="2.43487">
        <ele>134</ele>
        <time>2021-08-13T12:40:40Z</time>
      </trkpt>
      <trkpt lat="47.03652" lon="2.43493">
        <ele>134</ele>
        <time>2021-08-13T12:40:40Z</time>
      </trkpt>
      <trkpt lat="47.03649" lon="2.43501">
        <ele>134</ele>
        <time>2021-08-13T12:40:40Z</time>
      </trkpt>
      <trkpt lat="47.03645" lon="2.43508">
        <ele>135</ele>
        <time>2021-08-13T12:40:40Z</time>
      </trkpt>
      <trkpt lat="47.03645" lon="2.43518">
        <ele>134</ele>
        <time>2021-08-13T12:40:40Z</time>
      </trkpt>
      <trkpt lat="47.03644" lon="2.43527">
        <ele>134</ele>
        <time>2021-08-13T12:40:40Z</time>
      </trkpt>
      <trkpt lat="47.03646" lon="2.43537">
        <ele>134</ele>
        <time>2021-08-13T12:40:40Z</time>
      </trkpt>
      <trkpt lat="47.03647" lon="2.43547">
        <ele>134</ele>
        <time>2021-08-13T12:40:40Z</time>
      </trkpt>
      <trkpt lat="47.03645" lon="2.43558">
        <ele>134</ele>
        <time>2021-08-13T12:40:40Z</time>
      </trkpt>
      <trkpt lat="47.03642" lon="2.43568">
        <ele>134</ele>
        <time>2021-08-13T12:40:40Z</time>
      </trkpt>
      <trkpt lat="47.0364" lon="2.43574">
        <ele>134</ele>
        <time>2021-08-13T12:40:40Z</time>
      </trkpt>
      <trkpt lat="47.03637" lon="2.43582">
        <ele>134</ele>
        <time>2021-08-13T12:40:40Z</time>
      </trkpt>
      <trkpt lat="47.03633" lon="2.43591">
        <ele>134</ele>
        <time>2021-08-13T12:40:40Z</time>
      </trkpt>
      <trkpt lat="47.03623" lon="2.43637">
        <ele>134</ele>
        <time>2021-08-13T12:40:40Z</time>
      </trkpt>
      <trkpt lat="47.0361" lon="2.43682">
        <ele>132</ele>
        <time>2021-08-13T12:40:40Z</time>
      </trkpt>
      <trkpt lat="47.03597" lon="2.43727">
        <ele>131</ele>
        <time>2021-08-13T12:40:40Z</time>
      </trkpt>
      <trkpt lat="47.03583" lon="2.43769">
        <ele>131</ele>
        <time>2021-08-13T12:40:40Z</time>
      </trkpt>
      <trkpt lat="47.03569" lon="2.43813">
        <ele>131</ele>
        <time>2021-08-13T12:40:40Z</time>
      </trkpt>
      <trkpt lat="47.03558" lon="2.43847">
        <ele>131</ele>
        <time>2021-08-13T12:40:40Z</time>
      </trkpt>
      <trkpt lat="47.03556" lon="2.43856">
        <ele>131</ele>
        <time>2021-08-13T12:40:40Z</time>
      </trkpt>
      <trkpt lat="47.03544" lon="2.43899">
        <ele>131</ele>
        <time>2021-08-13T12:40:40Z</time>
      </trkpt>
      <trkpt lat="47.03531" lon="2.43944">
        <ele>131</ele>
        <time>2021-08-13T12:40:40Z</time>
      </trkpt>
      <trkpt lat="47.03524" lon="2.43992">
        <ele>131</ele>
        <time>2021-08-13T12:40:40Z</time>
      </trkpt>
      <trkpt lat="47.03512" lon="2.44038">
        <ele>131</ele>
        <time>2021-08-13T12:40:40Z</time>
      </trkpt>
      <trkpt lat="47.03499" lon="2.44078">
        <ele>131</ele>
        <time>2021-08-13T12:40:40Z</time>
      </trkpt>
      <trkpt lat="47.0349" lon="2.44106">
        <ele>131</ele>
        <time>2021-08-13T12:40:40Z</time>
      </trkpt>
      <trkpt lat="47.03488" lon="2.44113">
        <ele>131</ele>
        <time>2021-08-13T12:40:40Z</time>
      </trkpt>
      <trkpt lat="47.03483" lon="2.44128">
        <ele>131</ele>
        <time>2021-08-13T12:40:40Z</time>
      </trkpt>
      <trkpt lat="47.03481" lon="2.44134">
        <ele>131</ele>
        <time>2021-08-13T12:40:40Z</time>
      </trkpt>
      <trkpt lat="47.03479" lon="2.4414">
        <ele>132</ele>
        <time>2021-08-13T12:40:40Z</time>
      </trkpt>
      <trkpt lat="47.03477" lon="2.44147">
        <ele>132</ele>
        <time>2021-08-13T12:40:40Z</time>
      </trkpt>
      <trkpt lat="47.03475" lon="2.44155">
        <ele>132</ele>
        <time>2021-08-13T12:40:40Z</time>
      </trkpt>
      <trkpt lat="47.03473" lon="2.44162">
        <ele>132</ele>
        <time>2021-08-13T12:40:40Z</time>
      </trkpt>
      <trkpt lat="47.03472" lon="2.4417">
        <ele>132</ele>
        <time>2021-08-13T12:40:40Z</time>
      </trkpt>
      <trkpt lat="47.03469" lon="2.44176">
        <ele>132</ele>
        <time>2021-08-13T12:40:40Z</time>
      </trkpt>
      <trkpt lat="47.03467" lon="2.44184">
        <ele>132</ele>
        <time>2021-08-13T12:40:40Z</time>
      </trkpt>
      <trkpt lat="47.03465" lon="2.44192">
        <ele>132</ele>
        <time>2021-08-13T12:40:40Z</time>
      </trkpt>
      <trkpt lat="47.03463" lon="2.44199">
        <ele>132</ele>
        <time>2021-08-13T12:40:40Z</time>
      </trkpt>
      <trkpt lat="47.0346" lon="2.44206">
        <ele>132</ele>
        <time>2021-08-13T12:40:40Z</time>
      </trkpt>
      <trkpt lat="47.03458" lon="2.44216">
        <ele>132</ele>
        <time>2021-08-13T12:40:40Z</time>
      </trkpt>
      <trkpt lat="47.03456" lon="2.44224">
        <ele>132</ele>
        <time>2021-08-13T12:40:40Z</time>
      </trkpt>
      <trkpt lat="47.03454" lon="2.44233">
        <ele>132</ele>
        <time>2021-08-13T12:40:40Z</time>
      </trkpt>
      <trkpt lat="47.03451" lon="2.44242">
        <ele>132</ele>
        <time>2021-08-13T12:40:40Z</time>
      </trkpt>
      <trkpt lat="47.03449" lon="2.4425">
        <ele>132</ele>
        <time>2021-08-13T12:40:40Z</time>
      </trkpt>
      <trkpt lat="47.03446" lon="2.44259">
        <ele>132</ele>
        <time>2021-08-13T12:40:40Z</time>
      </trkpt>
      <trkpt lat="47.03443" lon="2.44268">
        <ele>132</ele>
        <time>2021-08-13T12:40:40Z</time>
      </trkpt>
      <trkpt lat="47.03442" lon="2.44276">
        <ele>132</ele>
        <time>2021-08-13T12:40:40Z</time>
      </trkpt>
      <trkpt lat="47.0344" lon="2.44285">
        <ele>132</ele>
        <time>2021-08-13T12:40:40Z</time>
      </trkpt>
      <trkpt lat="47.03438" lon="2.44294">
        <ele>132</ele>
        <time>2021-08-13T12:40:40Z</time>
      </trkpt>
      <trkpt lat="47.03435" lon="2.44303">
        <ele>132</ele>
        <time>2021-08-13T12:40:40Z</time>
      </trkpt>
      <trkpt lat="47.03432" lon="2.44311">
        <ele>131</ele>
        <time>2021-08-13T12:40:40Z</time>
      </trkpt>
      <trkpt lat="47.0343" lon="2.44321">
        <ele>131</ele>
        <time>2021-08-13T12:40:40Z</time>
      </trkpt>
      <trkpt lat="47.03428" lon="2.4433">
        <ele>130</ele>
        <time>2021-08-13T12:40:40Z</time>
      </trkpt>
      <trkpt lat="47.03425" lon="2.44338">
        <ele>130</ele>
        <time>2021-08-13T12:40:40Z</time>
      </trkpt>
      <trkpt lat="47.03423" lon="2.44347">
        <ele>130</ele>
        <time>2021-08-13T12:40:40Z</time>
      </trkpt>
      <trkpt lat="47.0342" lon="2.44357">
        <ele>130</ele>
        <time>2021-08-13T12:40:40Z</time>
      </trkpt>
      <trkpt lat="47.03418" lon="2.44366">
        <ele>130</ele>
        <time>2021-08-13T12:40:40Z</time>
      </trkpt>
      <trkpt lat="47.03415" lon="2.44375">
        <ele>131</ele>
        <time>2021-08-13T12:40:40Z</time>
      </trkpt>
      <trkpt lat="47.03412" lon="2.44384">
        <ele>131</ele>
        <time>2021-08-13T12:40:40Z</time>
      </trkpt>
      <trkpt lat="47.03409" lon="2.44393">
        <ele>131</ele>
        <time>2021-08-13T12:40:40Z</time>
      </trkpt>
      <trkpt lat="47.03407" lon="2.44401">
        <ele>131</ele>
        <time>2021-08-13T12:40:40Z</time>
      </trkpt>
      <trkpt lat="47.03404" lon="2.4441">
        <ele>131</ele>
        <time>2021-08-13T12:40:40Z</time>
      </trkpt>
      <trkpt lat="47.03401" lon="2.44418">
        <ele>132</ele>
        <time>2021-08-13T12:40:40Z</time>
      </trkpt>
      <trkpt lat="47.03399" lon="2.44427">
        <ele>132</ele>
        <time>2021-08-13T12:40:40Z</time>
      </trkpt>
      <trkpt lat="47.03397" lon="2.44436">
        <ele>132</ele>
        <time>2021-08-13T12:40:40Z</time>
      </trkpt>
      <trkpt lat="47.03395" lon="2.44445">
        <ele>132</ele>
        <time>2021-08-13T12:40:40Z</time>
      </trkpt>
      <trkpt lat="47.03392" lon="2.44454">
        <ele>132</ele>
        <time>2021-08-13T12:40:40Z</time>
      </trkpt>
      <trkpt lat="47.0339" lon="2.44463">
        <ele>132</ele>
        <time>2021-08-13T12:40:40Z</time>
      </trkpt>
      <trkpt lat="47.03388" lon="2.44472">
        <ele>132</ele>
        <time>2021-08-13T12:40:40Z</time>
      </trkpt>
      <trkpt lat="47.03385" lon="2.44482">
        <ele>132</ele>
        <time>2021-08-13T12:40:40Z</time>
      </trkpt>
      <trkpt lat="47.03383" lon="2.44491">
        <ele>132</ele>
        <time>2021-08-13T12:40:40Z</time>
      </trkpt>
      <trkpt lat="47.0338" lon="2.445">
        <ele>131</ele>
        <time>2021-08-13T12:40:40Z</time>
      </trkpt>
      <trkpt lat="47.03377" lon="2.44509">
        <ele>131</ele>
        <time>2021-08-13T12:40:40Z</time>
      </trkpt>
      <trkpt lat="47.03375" lon="2.44518">
        <ele>131</ele>
        <time>2021-08-13T12:40:40Z</time>
      </trkpt>
      <trkpt lat="47.03372" lon="2.44527">
        <ele>131</ele>
        <time>2021-08-13T12:40:40Z</time>
      </trkpt>
      <trkpt lat="47.03369" lon="2.44536">
        <ele>131</ele>
        <time>2021-08-13T12:40:40Z</time>
      </trkpt>
      <trkpt lat="47.03366" lon="2.44546">
        <ele>131</ele>
        <time>2021-08-13T12:40:40Z</time>
      </trkpt>
      <trkpt lat="47.03364" lon="2.44555">
        <ele>131</ele>
        <time>2021-08-13T12:40:40Z</time>
      </trkpt>
      <trkpt lat="47.03362" lon="2.44564">
        <ele>131</ele>
        <time>2021-08-13T12:40:40Z</time>
      </trkpt>
      <trkpt lat="47.03359" lon="2.44573">
        <ele>131</ele>
        <time>2021-08-13T12:40:40Z</time>
      </trkpt>
      <trkpt lat="47.03356" lon="2.44582">
        <ele>131</ele>
        <time>2021-08-13T12:40:40Z</time>
      </trkpt>
      <trkpt lat="47.03354" lon="2.44591">
        <ele>132</ele>
        <time>2021-08-13T12:40:40Z</time>
      </trkpt>
      <trkpt lat="47.03351" lon="2.446">
        <ele>132</ele>
        <time>2021-08-13T12:40:40Z</time>
      </trkpt>
      <trkpt lat="47.03348" lon="2.44609">
        <ele>132</ele>
        <time>2021-08-13T12:40:40Z</time>
      </trkpt>
      <trkpt lat="47.03345" lon="2.44618">
        <ele>132</ele>
        <time>2021-08-13T12:40:40Z</time>
      </trkpt>
      <trkpt lat="47.03343" lon="2.44626">
        <ele>132</ele>
        <time>2021-08-13T12:40:40Z</time>
      </trkpt>
      <trkpt lat="47.0334" lon="2.44635">
        <ele>132</ele>
        <time>2021-08-13T12:40:40Z</time>
      </trkpt>
      <trkpt lat="47.03337" lon="2.44643">
        <ele>132</ele>
        <time>2021-08-13T12:40:40Z</time>
      </trkpt>
      <trkpt lat="47.03317" lon="2.44684">
        <ele>132</ele>
        <time>2021-08-13T12:40:40Z</time>
      </trkpt>
      <trkpt lat="47.03295" lon="2.44718">
        <ele>132</ele>
        <time>2021-08-13T12:40:40Z</time>
      </trkpt>
      <trkpt lat="47.03269" lon="2.44747">
        <ele>131</ele>
        <time>2021-08-13T12:40:40Z</time>
      </trkpt>
      <trkpt lat="47.03239" lon="2.44769">
        <ele>131</ele>
        <time>2021-08-13T12:40:40Z</time>
      </trkpt>
      <trkpt lat="47.03208" lon="2.44785">
        <ele>132</ele>
        <time>2021-08-13T12:40:40Z</time>
      </trkpt>
      <trkpt lat="47.03182" lon="2.44791">
        <ele>134</ele>
        <time>2021-08-13T12:40:40Z</time>
      </trkpt>
      <trkpt lat="47.03175" lon="2.44792">
        <ele>134</ele>
        <time>2021-08-13T12:40:40Z</time>
      </trkpt>
      <trkpt lat="47.03144" lon="2.44794">
        <ele>135</ele>
        <time>2021-08-13T12:40:40Z</time>
      </trkpt>
      <trkpt lat="47.03113" lon="2.44789">
        <ele>136</ele>
        <time>2021-08-13T12:40:40Z</time>
      </trkpt>
      <trkpt lat="47.03083" lon="2.44777">
        <ele>136</ele>
        <time>2021-08-13T12:40:40Z</time>
      </trkpt>
      <trkpt lat="47.0305" lon="2.44761">
        <ele>133</ele>
        <time>2021-08-13T12:40:40Z</time>
      </trkpt>
      <trkpt lat="47.03018" lon="2.44747">
        <ele>132</ele>
        <time>2021-08-13T12:40:40Z</time>
      </trkpt>
      <trkpt lat="47.02993" lon="2.44736">
        <ele>132</ele>
        <time>2021-08-13T12:40:40Z</time>
      </trkpt>
      <trkpt lat="47.02988" lon="2.44734">
        <ele>132</ele>
        <time>2021-08-13T12:40:40Z</time>
      </trkpt>
      <trkpt lat="47.02959" lon="2.44725">
        <ele>133</ele>
        <time>2021-08-13T12:40:40Z</time>
      </trkpt>
      <trkpt lat="47.02923" lon="2.44706">
        <ele>134</ele>
        <time>2021-08-13T12:40:40Z</time>
      </trkpt>
      <trkpt lat="47.02888" lon="2.44692">
        <ele>135</ele>
        <time>2021-08-13T12:40:40Z</time>
      </trkpt>
      <trkpt lat="47.02859" lon="2.44681">
        <ele>135</ele>
        <time>2021-08-13T12:40:40Z</time>
      </trkpt>
      <trkpt lat="47.02826" lon="2.44665">
        <ele>134</ele>
        <time>2021-08-13T12:40:40Z</time>
      </trkpt>
      <trkpt lat="47.02799" lon="2.44652">
        <ele>134</ele>
        <time>2021-08-13T12:40:40Z</time>
      </trkpt>
      <trkpt lat="47.02792" lon="2.44649">
        <ele>134</ele>
        <time>2021-08-13T12:40:40Z</time>
      </trkpt>
      <trkpt lat="47.02779" lon="2.44644">
        <ele>134</ele>
        <time>2021-08-13T12:40:40Z</time>
      </trkpt>
      <trkpt lat="47.02772" lon="2.4464">
        <ele>134</ele>
        <time>2021-08-13T12:40:40Z</time>
      </trkpt>
      <trkpt lat="47.02765" lon="2.44638">
        <ele>133</ele>
        <time>2021-08-13T12:40:40Z</time>
      </trkpt>
      <trkpt lat="47.02758" lon="2.44634">
        <ele>133</ele>
        <time>2021-08-13T12:40:40Z</time>
      </trkpt>
      <trkpt lat="47.02752" lon="2.44631">
        <ele>133</ele>
        <time>2021-08-13T12:40:40Z</time>
      </trkpt>
      <trkpt lat="47.02745" lon="2.44628">
        <ele>133</ele>
        <time>2021-08-13T12:40:40Z</time>
      </trkpt>
      <trkpt lat="47.02739" lon="2.44626">
        <ele>133</ele>
        <time>2021-08-13T12:40:40Z</time>
      </trkpt>
      <trkpt lat="47.02732" lon="2.44623">
        <ele>133</ele>
        <time>2021-08-13T12:40:40Z</time>
      </trkpt>
      <trkpt lat="47.02726" lon="2.44621">
        <ele>133</ele>
        <time>2021-08-13T12:40:40Z</time>
      </trkpt>
      <trkpt lat="47.02721" lon="2.44618">
        <ele>133</ele>
        <time>2021-08-13T12:40:40Z</time>
      </trkpt>
      <trkpt lat="47.02715" lon="2.44617">
        <ele>133</ele>
        <time>2021-08-13T12:40:40Z</time>
      </trkpt>
      <trkpt lat="47.02709" lon="2.44613">
        <ele>133</ele>
        <time>2021-08-13T12:40:40Z</time>
      </trkpt>
      <trkpt lat="47.02702" lon="2.4461">
        <ele>132</ele>
        <time>2021-08-13T12:40:40Z</time>
      </trkpt>
      <trkpt lat="47.02696" lon="2.44608">
        <ele>132</ele>
        <time>2021-08-13T12:40:40Z</time>
      </trkpt>
      <trkpt lat="47.02689" lon="2.44605">
        <ele>132</ele>
        <time>2021-08-13T12:40:40Z</time>
      </trkpt>
      <trkpt lat="47.02682" lon="2.44602">
        <ele>132</ele>
        <time>2021-08-13T12:40:40Z</time>
      </trkpt>
      <trkpt lat="47.02675" lon="2.44599">
        <ele>132</ele>
        <time>2021-08-13T12:40:40Z</time>
      </trkpt>
      <trkpt lat="47.02668" lon="2.44596">
        <ele>132</ele>
        <time>2021-08-13T12:40:40Z</time>
      </trkpt>
      <trkpt lat="47.02662" lon="2.44594">
        <ele>132</ele>
        <time>2021-08-13T12:40:40Z</time>
      </trkpt>
      <trkpt lat="47.02655" lon="2.44591">
        <ele>132</ele>
        <time>2021-08-13T12:40:40Z</time>
      </trkpt>
      <trkpt lat="47.02649" lon="2.44588">
        <ele>132</ele>
        <time>2021-08-13T12:40:40Z</time>
      </trkpt>
      <trkpt lat="47.02643" lon="2.44586">
        <ele>132</ele>
        <time>2021-08-13T12:40:40Z</time>
      </trkpt>
      <trkpt lat="47.02636" lon="2.44583">
        <ele>133</ele>
        <time>2021-08-13T12:40:40Z</time>
      </trkpt>
      <trkpt lat="47.02629" lon="2.4458">
        <ele>133</ele>
        <time>2021-08-13T12:40:40Z</time>
      </trkpt>
      <trkpt lat="47.02622" lon="2.44577">
        <ele>133</ele>
        <time>2021-08-13T12:40:40Z</time>
      </trkpt>
      <trkpt lat="47.02615" lon="2.44575">
        <ele>133</ele>
        <time>2021-08-13T12:40:40Z</time>
      </trkpt>
      <trkpt lat="47.02609" lon="2.44572">
        <ele>132</ele>
        <time>2021-08-13T12:40:40Z</time>
      </trkpt>
      <trkpt lat="47.02602" lon="2.44569">
        <ele>132</ele>
        <time>2021-08-13T12:40:40Z</time>
      </trkpt>
      <trkpt lat="47.02595" lon="2.44566">
        <ele>132</ele>
        <time>2021-08-13T12:40:40Z</time>
      </trkpt>
      <trkpt lat="47.02589" lon="2.44563">
        <ele>132</ele>
        <time>2021-08-13T12:40:40Z</time>
      </trkpt>
      <trkpt lat="47.02583" lon="2.4456">
        <ele>132</ele>
        <time>2021-08-13T12:40:40Z</time>
      </trkpt>
      <trkpt lat="47.02577" lon="2.44558">
        <ele>132</ele>
        <time>2021-08-13T12:40:40Z</time>
      </trkpt>
      <trkpt lat="47.02571" lon="2.44555">
        <ele>131</ele>
        <time>2021-08-13T12:40:40Z</time>
      </trkpt>
      <trkpt lat="47.02564" lon="2.44553">
        <ele>131</ele>
        <time>2021-08-13T12:40:40Z</time>
      </trkpt>
      <trkpt lat="47.02557" lon="2.4455">
        <ele>131</ele>
        <time>2021-08-13T12:40:40Z</time>
      </trkpt>
      <trkpt lat="47.0255" lon="2.44547">
        <ele>132</ele>
        <time>2021-08-13T12:40:40Z</time>
      </trkpt>
      <trkpt lat="47.02544" lon="2.44545">
        <ele>132</ele>
        <time>2021-08-13T12:40:40Z</time>
      </trkpt>
      <trkpt lat="47.02538" lon="2.44542">
        <ele>132</ele>
        <time>2021-08-13T12:40:40Z</time>
      </trkpt>
      <trkpt lat="47.02531" lon="2.44539">
        <ele>132</ele>
        <time>2021-08-13T12:40:40Z</time>
      </trkpt>
      <trkpt lat="47.02525" lon="2.44535">
        <ele>132</ele>
        <time>2021-08-13T12:40:40Z</time>
      </trkpt>
      <trkpt lat="47.02518" lon="2.44532">
        <ele>132</ele>
        <time>2021-08-13T12:40:40Z</time>
      </trkpt>
      <trkpt lat="47.02512" lon="2.44529">
        <ele>132</ele>
        <time>2021-08-13T12:40:40Z</time>
      </trkpt>
      <trkpt lat="47.02505" lon="2.44527">
        <ele>132</ele>
        <time>2021-08-13T12:40:40Z</time>
      </trkpt>
      <trkpt lat="47.02498" lon="2.44524">
        <ele>131</ele>
        <time>2021-08-13T12:40:40Z</time>
      </trkpt>
      <trkpt lat="47.02492" lon="2.44521">
        <ele>131</ele>
        <time>2021-08-13T12:40:40Z</time>
      </trkpt>
      <trkpt lat="47.02485" lon="2.44519">
        <ele>131</ele>
        <time>2021-08-13T12:40:40Z</time>
      </trkpt>
      <trkpt lat="47.02479" lon="2.44516">
        <ele>131</ele>
        <time>2021-08-13T12:40:40Z</time>
      </trkpt>
      <trkpt lat="47.02472" lon="2.44513">
        <ele>131</ele>
        <time>2021-08-13T12:40:40Z</time>
      </trkpt>
      <trkpt lat="47.02465" lon="2.44511">
        <ele>131</ele>
        <time>2021-08-13T12:40:40Z</time>
      </trkpt>
      <trkpt lat="47.02459" lon="2.44508">
        <ele>132</ele>
        <time>2021-08-13T12:40:40Z</time>
      </trkpt>
      <trkpt lat="47.02452" lon="2.44506">
        <ele>132</ele>
        <time>2021-08-13T12:40:40Z</time>
      </trkpt>
      <trkpt lat="47.02447" lon="2.44503">
        <ele>132</ele>
        <time>2021-08-13T12:40:40Z</time>
      </trkpt>
      <trkpt lat="47.0244" lon="2.445">
        <ele>133</ele>
        <time>2021-08-13T12:40:40Z</time>
      </trkpt>
      <trkpt lat="47.02433" lon="2.44497">
        <ele>133</ele>
        <time>2021-08-13T12:40:40Z</time>
      </trkpt>
      <trkpt lat="47.02427" lon="2.44496">
        <ele>133</ele>
        <time>2021-08-13T12:40:40Z</time>
      </trkpt>
      <trkpt lat="47.02421" lon="2.44492">
        <ele>134</ele>
        <time>2021-08-13T12:40:40Z</time>
      </trkpt>
      <trkpt lat="47.02415" lon="2.44489">
        <ele>134</ele>
        <time>2021-08-13T12:40:40Z</time>
      </trkpt>
      <trkpt lat="47.02409" lon="2.44487">
        <ele>134</ele>
        <time>2021-08-13T12:40:40Z</time>
      </trkpt>
      <trkpt lat="47.02403" lon="2.44484">
        <ele>134</ele>
        <time>2021-08-13T12:40:40Z</time>
      </trkpt>
      <trkpt lat="47.02397" lon="2.44482">
        <ele>134</ele>
        <time>2021-08-13T12:40:40Z</time>
      </trkpt>
      <trkpt lat="47.0239" lon="2.44479">
        <ele>134</ele>
        <time>2021-08-13T12:40:40Z</time>
      </trkpt>
      <trkpt lat="47.02358" lon="2.44465">
        <ele>135</ele>
        <time>2021-08-13T12:40:40Z</time>
      </trkpt>
      <trkpt lat="47.02324" lon="2.44449">
        <ele>137</ele>
        <time>2021-08-13T12:40:40Z</time>
      </trkpt>
      <trkpt lat="47.02294" lon="2.44441">
        <ele>137</ele>
        <time>2021-08-13T12:40:40Z</time>
      </trkpt>
      <trkpt lat="47.0226" lon="2.44443">
        <ele>136</ele>
        <time>2021-08-13T12:40:40Z</time>
      </trkpt>
      <trkpt lat="47.02229" lon="2.44448">
        <ele>133</ele>
        <time>2021-08-13T12:40:40Z</time>
      </trkpt>
      <trkpt lat="47.0221" lon="2.44454">
        <ele>133</ele>
        <time>2021-08-13T12:40:40Z</time>
      </trkpt>
      <trkpt lat="47.02203" lon="2.44456">
        <ele>132</ele>
        <time>2021-08-13T12:40:40Z</time>
      </trkpt>
      <trkpt lat="47.02198" lon="2.4446">
        <ele>132</ele>
        <time>2021-08-13T12:40:40Z</time>
      </trkpt>
      <trkpt lat="47.02192" lon="2.44464">
        <ele>132</ele>
        <time>2021-08-13T12:40:40Z</time>
      </trkpt>
      <trkpt lat="47.02186" lon="2.44469">
        <ele>132</ele>
        <time>2021-08-13T12:40:40Z</time>
      </trkpt>
      <trkpt lat="47.0218" lon="2.44472">
        <ele>132</ele>
        <time>2021-08-13T12:40:40Z</time>
      </trkpt>
      <trkpt lat="47.02175" lon="2.44476">
        <ele>132</ele>
        <time>2021-08-13T12:40:40Z</time>
      </trkpt>
      <trkpt lat="47.0217" lon="2.44479">
        <ele>132</ele>
        <time>2021-08-13T12:40:40Z</time>
      </trkpt>
      <trkpt lat="47.02165" lon="2.44482">
        <ele>132</ele>
        <time>2021-08-13T12:40:40Z</time>
      </trkpt>
      <trkpt lat="47.02161" lon="2.44484">
        <ele>132</ele>
        <time>2021-08-13T12:40:40Z</time>
      </trkpt>
      <trkpt lat="47.0216" lon="2.44484">
        <ele>132</ele>
        <time>2021-08-13T12:40:40Z</time>
      </trkpt>
      <trkpt lat="47.0216" lon="2.44484">
        <ele>132</ele>
        <time>2021-08-13T12:40:40Z</time>
      </trkpt>
      <trkpt lat="47.0216" lon="2.44484">
        <ele>132</ele>
        <time>2021-08-13T12:40:40Z</time>
      </trkpt>
      <trkpt lat="47.0216" lon="2.44484">
        <ele>132</ele>
        <time>2021-08-13T12:40:40Z</time>
      </trkpt>
      <trkpt lat="47.0216" lon="2.44484">
        <ele>133</ele>
        <time>2021-08-13T12:40:40Z</time>
      </trkpt>
      <trkpt lat="47.0216" lon="2.44484">
        <ele>133</ele>
        <time>2021-08-13T12:40:40Z</time>
      </trkpt>
      <trkpt lat="47.0216" lon="2.44484">
        <ele>133</ele>
        <time>2021-08-13T12:40:40Z</time>
      </trkpt>
      <trkpt lat="47.0216" lon="2.44484">
        <ele>132</ele>
        <time>2021-08-13T12:40:40Z</time>
      </trkpt>
      <trkpt lat="47.0216" lon="2.44484">
        <ele>132</ele>
        <time>2021-08-13T12:40:40Z</time>
      </trkpt>
      <trkpt lat="47.0216" lon="2.44484">
        <ele>132</ele>
        <time>2021-08-13T12:40:40Z</time>
      </trkpt>
      <trkpt lat="47.0216" lon="2.44483">
        <ele>132</ele>
        <time>2021-08-13T12:40:40Z</time>
      </trkpt>
      <trkpt lat="47.0216" lon="2.44483">
        <ele>132</ele>
        <time>2021-08-13T12:40:40Z</time>
      </trkpt>
      <trkpt lat="47.0216" lon="2.44484">
        <ele>132</ele>
        <time>2021-08-13T12:40:40Z</time>
      </trkpt>
      <trkpt lat="47.0216" lon="2.44484">
        <ele>132</ele>
        <time>2021-08-13T12:40:40Z</time>
      </trkpt>
      <trkpt lat="47.02161" lon="2.44486">
        <ele>133</ele>
        <time>2021-08-13T12:40:40Z</time>
      </trkpt>
      <trkpt lat="47.02161" lon="2.44486">
        <ele>133</ele>
        <time>2021-08-13T12:40:40Z</time>
      </trkpt>
      <trkpt lat="47.02161" lon="2.44485">
        <ele>133</ele>
        <time>2021-08-13T12:40:40Z</time>
      </trkpt>
      <trkpt lat="47.02161" lon="2.44484">
        <ele>132</ele>
        <time>2021-08-13T12:40:40Z</time>
      </trkpt>
      <trkpt lat="47.02161" lon="2.44485">
        <ele>133</ele>
        <time>2021-08-13T12:40:40Z</time>
      </trkpt>
      <trkpt lat="47.02161" lon="2.44485">
        <ele>133</ele>
        <time>2021-08-13T12:40:40Z</time>
      </trkpt>
      <trkpt lat="47.02161" lon="2.44485">
        <ele>133</ele>
        <time>2021-08-13T12:40:40Z</time>
      </trkpt>
      <trkpt lat="47.02159" lon="2.44485">
        <ele>133</ele>
        <time>2021-08-13T12:40:40Z</time>
      </trkpt>
      <trkpt lat="47.02157" lon="2.44486">
        <ele>133</ele>
        <time>2021-08-13T12:40:40Z</time>
      </trkpt>
      <trkpt lat="47.02155" lon="2.44486">
        <ele>133</ele>
        <time>2021-08-13T12:40:40Z</time>
      </trkpt>
      <trkpt lat="47.02151" lon="2.44487">
        <ele>133</ele>
        <time>2021-08-13T12:40:40Z</time>
      </trkpt>
      <trkpt lat="47.02131" lon="2.44498">
        <ele>133</ele>
        <time>2021-08-13T12:40:40Z</time>
      </trkpt>
      <trkpt lat="47.02106" lon="2.44518">
        <ele>133</ele>
        <time>2021-08-13T12:40:40Z</time>
      </trkpt>
      <trkpt lat="47.02076" lon="2.44538">
        <ele>133</ele>
        <time>2021-08-13T12:40:40Z</time>
      </trkpt>
      <trkpt lat="47.02047" lon="2.4456">
        <ele>134</ele>
        <time>2021-08-13T12:40:40Z</time>
      </trkpt>
      <trkpt lat="47.02042" lon="2.44564">
        <ele>134</ele>
        <time>2021-08-13T12:40:40Z</time>
      </trkpt>
      <trkpt lat="47.02036" lon="2.44568">
        <ele>134</ele>
        <time>2021-08-13T12:40:40Z</time>
      </trkpt>
      <trkpt lat="47.02031" lon="2.44572">
        <ele>135</ele>
        <time>2021-08-13T12:40:40Z</time>
      </trkpt>
      <trkpt lat="47.02024" lon="2.44575">
        <ele>135</ele>
        <time>2021-08-13T12:40:40Z</time>
      </trkpt>
      <trkpt lat="47.02018" lon="2.4458">
        <ele>135</ele>
        <time>2021-08-13T12:40:40Z</time>
      </trkpt>
      <trkpt lat="47.02012" lon="2.44584">
        <ele>135</ele>
        <time>2021-08-13T12:40:40Z</time>
      </trkpt>
      <trkpt lat="47.02006" lon="2.44588">
        <ele>135</ele>
        <time>2021-08-13T12:40:40Z</time>
      </trkpt>
      <trkpt lat="47.01976" lon="2.44609">
        <ele>134</ele>
        <time>2021-08-13T12:40:40Z</time>
      </trkpt>
      <trkpt lat="47.01944" lon="2.44632">
        <ele>133</ele>
        <time>2021-08-13T12:40:40Z</time>
      </trkpt>
      <trkpt lat="47.01914" lon="2.44661">
        <ele>133</ele>
        <time>2021-08-13T12:40:40Z</time>
      </trkpt>
      <trkpt lat="47.01889" lon="2.44697">
        <ele>135</ele>
        <time>2021-08-13T12:40:40Z</time>
      </trkpt>
      <trkpt lat="47.01865" lon="2.44734">
        <ele>135</ele>
        <time>2021-08-13T12:40:40Z</time>
      </trkpt>
      <trkpt lat="47.01843" lon="2.44759">
        <ele>135</ele>
        <time>2021-08-13T12:40:40Z</time>
      </trkpt>
      <trkpt lat="47.01838" lon="2.44766">
        <ele>135</ele>
        <time>2021-08-13T12:40:40Z</time>
      </trkpt>
      <trkpt lat="47.01812" lon="2.44801">
        <ele>135</ele>
        <time>2021-08-13T12:40:40Z</time>
      </trkpt>
      <trkpt lat="47.01789" lon="2.44832">
        <ele>134</ele>
        <time>2021-08-13T12:40:40Z</time>
      </trkpt>
      <trkpt lat="47.01768" lon="2.4486">
        <ele>134</ele>
        <time>2021-08-13T12:40:40Z</time>
      </trkpt>
      <trkpt lat="47.01746" lon="2.44891">
        <ele>135</ele>
        <time>2021-08-13T12:40:40Z</time>
      </trkpt>
      <trkpt lat="47.01722" lon="2.44924">
        <ele>134</ele>
        <time>2021-08-13T12:40:40Z</time>
      </trkpt>
      <trkpt lat="47.01704" lon="2.4495">
        <ele>134</ele>
        <time>2021-08-13T12:40:40Z</time>
      </trkpt>
      <trkpt lat="47.01699" lon="2.44956">
        <ele>134</ele>
        <time>2021-08-13T12:40:40Z</time>
      </trkpt>
      <trkpt lat="47.01674" lon="2.44989">
        <ele>134</ele>
        <time>2021-08-13T12:40:40Z</time>
      </trkpt>
      <trkpt lat="47.01652" lon="2.45024">
        <ele>134</ele>
        <time>2021-08-13T12:40:40Z</time>
      </trkpt>
      <trkpt lat="47.01631" lon="2.45062">
        <ele>134</ele>
        <time>2021-08-13T12:40:40Z</time>
      </trkpt>
      <trkpt lat="47.01613" lon="2.45102">
        <ele>134</ele>
        <time>2021-08-13T12:40:40Z</time>
      </trkpt>
      <trkpt lat="47.01595" lon="2.45144">
        <ele>134</ele>
        <time>2021-08-13T12:40:40Z</time>
      </trkpt>
      <trkpt lat="47.01582" lon="2.45178">
        <ele>134</ele>
        <time>2021-08-13T12:40:40Z</time>
      </trkpt>
      <trkpt lat="47.01579" lon="2.45187">
        <ele>134</ele>
        <time>2021-08-13T12:40:40Z</time>
      </trkpt>
      <trkpt lat="47.01564" lon="2.45231">
        <ele>134</ele>
        <time>2021-08-13T12:40:40Z</time>
      </trkpt>
      <trkpt lat="47.01552" lon="2.45277">
        <ele>135</ele>
        <time>2021-08-13T12:40:40Z</time>
      </trkpt>
      <trkpt lat="47.0154" lon="2.45324">
        <ele>136</ele>
        <time>2021-08-13T12:40:40Z</time>
      </trkpt>
      <trkpt lat="47.01534" lon="2.45371">
        <ele>137</ele>
        <time>2021-08-13T12:40:40Z</time>
      </trkpt>
      <trkpt lat="47.01526" lon="2.45419">
        <ele>138</ele>
        <time>2021-08-13T12:40:40Z</time>
      </trkpt>
      <trkpt lat="47.01522" lon="2.45457">
        <ele>137</ele>
        <time>2021-08-13T12:40:40Z</time>
      </trkpt>
      <trkpt lat="47.01522" lon="2.45468">
        <ele>137</ele>
        <time>2021-08-13T12:40:40Z</time>
      </trkpt>
      <trkpt lat="47.01514" lon="2.45517">
        <ele>137</ele>
        <time>2021-08-13T12:40:40Z</time>
      </trkpt>
      <trkpt lat="47.01506" lon="2.45565">
        <ele>137</ele>
        <time>2021-08-13T12:40:40Z</time>
      </trkpt>
      <trkpt lat="47.01501" lon="2.45612">
        <ele>138</ele>
        <time>2021-08-13T12:40:40Z</time>
      </trkpt>
      <trkpt lat="47.01495" lon="2.45651">
        <ele>138</ele>
        <time>2021-08-13T12:40:40Z</time>
      </trkpt>
      <trkpt lat="47.01484" lon="2.45663">
        <ele>138</ele>
        <time>2021-08-13T12:40:40Z</time>
      </trkpt>
      <trkpt lat="47.01479" lon="2.4568">
        <ele>138</ele>
        <time>2021-08-13T12:40:40Z</time>
      </trkpt>
      <trkpt lat="47.01479" lon="2.45685">
        <ele>138</ele>
        <time>2021-08-13T12:40:40Z</time>
      </trkpt>
      <trkpt lat="47.01477" lon="2.45696">
        <ele>139</ele>
        <time>2021-08-13T12:40:40Z</time>
      </trkpt>
      <trkpt lat="47.01476" lon="2.45701">
        <ele>139</ele>
        <time>2021-08-13T12:40:40Z</time>
      </trkpt>
      <trkpt lat="47.01475" lon="2.45707">
        <ele>139</ele>
        <time>2021-08-13T12:40:40Z</time>
      </trkpt>
      <trkpt lat="47.01473" lon="2.45712">
        <ele>139</ele>
        <time>2021-08-13T12:40:40Z</time>
      </trkpt>
      <trkpt lat="47.01472" lon="2.45718">
        <ele>139</ele>
        <time>2021-08-13T12:40:40Z</time>
      </trkpt>
      <trkpt lat="47.01471" lon="2.45725">
        <ele>139</ele>
        <time>2021-08-13T12:40:40Z</time>
      </trkpt>
      <trkpt lat="47.0147" lon="2.45732">
        <ele>139</ele>
        <time>2021-08-13T12:40:40Z</time>
      </trkpt>
      <trkpt lat="47.01469" lon="2.45739">
        <ele>139</ele>
        <time>2021-08-13T12:40:40Z</time>
      </trkpt>
      <trkpt lat="47.01468" lon="2.45746">
        <ele>138</ele>
        <time>2021-08-13T12:40:40Z</time>
      </trkpt>
      <trkpt lat="47.01466" lon="2.45754">
        <ele>138</ele>
        <time>2021-08-13T12:40:40Z</time>
      </trkpt>
      <trkpt lat="47.01465" lon="2.45761">
        <ele>138</ele>
        <time>2021-08-13T12:40:40Z</time>
      </trkpt>
      <trkpt lat="47.01463" lon="2.4577">
        <ele>137</ele>
        <time>2021-08-13T12:40:40Z</time>
      </trkpt>
      <trkpt lat="47.01461" lon="2.45778">
        <ele>137</ele>
        <time>2021-08-13T12:40:40Z</time>
      </trkpt>
      <trkpt lat="47.0146" lon="2.45786">
        <ele>137</ele>
        <time>2021-08-13T12:40:40Z</time>
      </trkpt>
      <trkpt lat="47.01458" lon="2.45794">
        <ele>137</ele>
        <time>2021-08-13T12:40:40Z</time>
      </trkpt>
      <trkpt lat="47.01455" lon="2.45802">
        <ele>137</ele>
        <time>2021-08-13T12:40:40Z</time>
      </trkpt>
      <trkpt lat="47.01454" lon="2.4581">
        <ele>137</ele>
        <time>2021-08-13T12:40:40Z</time>
      </trkpt>
      <trkpt lat="47.01452" lon="2.45819">
        <ele>137</ele>
        <time>2021-08-13T12:40:40Z</time>
      </trkpt>
      <trkpt lat="47.0145" lon="2.45827">
        <ele>137</ele>
        <time>2021-08-13T12:40:40Z</time>
      </trkpt>
      <trkpt lat="47.01448" lon="2.45835">
        <ele>137</ele>
        <time>2021-08-13T12:40:40Z</time>
      </trkpt>
      <trkpt lat="47.01445" lon="2.45843">
        <ele>136</ele>
        <time>2021-08-13T12:40:40Z</time>
      </trkpt>
      <trkpt lat="47.01441" lon="2.4585">
        <ele>136</ele>
        <time>2021-08-13T12:40:40Z</time>
      </trkpt>
      <trkpt lat="47.01438" lon="2.45856">
        <ele>136</ele>
        <time>2021-08-13T12:40:40Z</time>
      </trkpt>
      <trkpt lat="47.01435" lon="2.45864">
        <ele>136</ele>
        <time>2021-08-13T12:40:40Z</time>
      </trkpt>
      <trkpt lat="47.01431" lon="2.45872">
        <ele>136</ele>
        <time>2021-08-13T12:40:40Z</time>
      </trkpt>
      <trkpt lat="47.01427" lon="2.45878">
        <ele>136</ele>
        <time>2021-08-13T12:40:40Z</time>
      </trkpt>
      <trkpt lat="47.01422" lon="2.45886">
        <ele>136</ele>
        <time>2021-08-13T12:40:40Z</time>
      </trkpt>
      <trkpt lat="47.01417" lon="2.45894">
        <ele>136</ele>
        <time>2021-08-13T12:40:40Z</time>
      </trkpt>
      <trkpt lat="47.01412" lon="2.45902">
        <ele>136</ele>
        <time>2021-08-13T12:40:40Z</time>
      </trkpt>
      <trkpt lat="47.01409" lon="2.45908">
        <ele>136</ele>
        <time>2021-08-13T12:40:40Z</time>
      </trkpt>
      <trkpt lat="47.01382" lon="2.45934">
        <ele>137</ele>
        <time>2021-08-13T12:40:40Z</time>
      </trkpt>
      <trkpt lat="47.01352" lon="2.45957">
        <ele>137</ele>
        <time>2021-08-13T12:40:40Z</time>
      </trkpt>
      <trkpt lat="47.0132" lon="2.45976">
        <ele>137</ele>
        <time>2021-08-13T12:40:40Z</time>
      </trkpt>
      <trkpt lat="47.01289" lon="2.45997">
        <ele>137</ele>
        <time>2021-08-13T12:40:40Z</time>
      </trkpt>
      <trkpt lat="47.01283" lon="2.46001">
        <ele>137</ele>
        <time>2021-08-13T12:40:40Z</time>
      </trkpt>
      <trkpt lat="47.01278" lon="2.46005">
        <ele>138</ele>
        <time>2021-08-13T12:40:40Z</time>
      </trkpt>
      <trkpt lat="47.01272" lon="2.46008">
        <ele>138</ele>
        <time>2021-08-13T12:40:40Z</time>
      </trkpt>
      <trkpt lat="47.01266" lon="2.46012">
        <ele>138</ele>
        <time>2021-08-13T12:40:40Z</time>
      </trkpt>
      <trkpt lat="47.0126" lon="2.46015">
        <ele>138</ele>
        <time>2021-08-13T12:40:40Z</time>
      </trkpt>
      <trkpt lat="47.01254" lon="2.46018">
        <ele>138</ele>
        <time>2021-08-13T12:40:40Z</time>
      </trkpt>
      <trkpt lat="47.01222" lon="2.46036">
        <ele>138</ele>
        <time>2021-08-13T12:40:40Z</time>
      </trkpt>
      <trkpt lat="47.0119" lon="2.46049">
        <ele>138</ele>
        <time>2021-08-13T12:40:40Z</time>
      </trkpt>
      <trkpt lat="47.01153" lon="2.4605">
        <ele>139</ele>
        <time>2021-08-13T12:40:40Z</time>
      </trkpt>
      <trkpt lat="47.01119" lon="2.46042">
        <ele>138</ele>
        <time>2021-08-13T12:40:40Z</time>
      </trkpt>
      <trkpt lat="47.01072" lon="2.46015">
        <ele>137</ele>
        <time>2021-08-13T12:40:40Z</time>
      </trkpt>
      <trkpt lat="47.01033" lon="2.4599">
        <ele>139</ele>
        <time>2021-08-13T12:40:40Z</time>
      </trkpt>
      <trkpt lat="47.0102" lon="2.45982">
        <ele>141</ele>
        <time>2021-08-13T12:40:40Z</time>
      </trkpt>
      <trkpt lat="47.00977" lon="2.45951">
        <ele>141</ele>
        <time>2021-08-13T12:40:40Z</time>
      </trkpt>
      <trkpt lat="47.00945" lon="2.45929">
        <ele>139</ele>
        <time>2021-08-13T12:40:40Z</time>
      </trkpt>
      <trkpt lat="47.00908" lon="2.45906">
        <ele>140</ele>
        <time>2021-08-13T12:40:40Z</time>
      </trkpt>
      <trkpt lat="47.0087" lon="2.4588">
        <ele>142</ele>
        <time>2021-08-13T12:40:40Z</time>
      </trkpt>
      <trkpt lat="47.00832" lon="2.45854">
        <ele>145</ele>
        <time>2021-08-13T12:40:40Z</time>
      </trkpt>
      <trkpt lat="47.00807" lon="2.45837">
        <ele>141</ele>
        <time>2021-08-13T12:40:40Z</time>
      </trkpt>
      <trkpt lat="47.00795" lon="2.45828">
        <ele>140</ele>
        <time>2021-08-13T12:40:40Z</time>
      </trkpt>
      <trkpt lat="47.00788" lon="2.45823">
        <ele>140</ele>
        <time>2021-08-13T12:40:40Z</time>
      </trkpt>
      <trkpt lat="47.00782" lon="2.45819">
        <ele>140</ele>
        <time>2021-08-13T12:40:40Z</time>
      </trkpt>
      <trkpt lat="47.00775" lon="2.45814">
        <ele>139</ele>
        <time>2021-08-13T12:40:40Z</time>
      </trkpt>
      <trkpt lat="47.00769" lon="2.4581">
        <ele>139</ele>
        <time>2021-08-13T12:40:40Z</time>
      </trkpt>
      <trkpt lat="47.00763" lon="2.45806">
        <ele>139</ele>
        <time>2021-08-13T12:40:40Z</time>
      </trkpt>
      <trkpt lat="47.00757" lon="2.45802">
        <ele>138</ele>
        <time>2021-08-13T12:40:40Z</time>
      </trkpt>
      <trkpt lat="47.00751" lon="2.45798">
        <ele>138</ele>
        <time>2021-08-13T12:40:40Z</time>
      </trkpt>
      <trkpt lat="47.00744" lon="2.45793">
        <ele>137</ele>
        <time>2021-08-13T12:40:40Z</time>
      </trkpt>
      <trkpt lat="47.00739" lon="2.45787">
        <ele>136</ele>
        <time>2021-08-13T12:40:40Z</time>
      </trkpt>
      <trkpt lat="47.00732" lon="2.45783">
        <ele>135</ele>
        <time>2021-08-13T12:40:40Z</time>
      </trkpt>
      <trkpt lat="47.00726" lon="2.45779">
        <ele>135</ele>
        <time>2021-08-13T12:40:40Z</time>
      </trkpt>
      <trkpt lat="47.00719" lon="2.45776">
        <ele>135</ele>
        <time>2021-08-13T12:40:40Z</time>
      </trkpt>
      <trkpt lat="47.00712" lon="2.45771">
        <ele>135</ele>
        <time>2021-08-13T12:40:40Z</time>
      </trkpt>
      <trkpt lat="47.00706" lon="2.45767">
        <ele>136</ele>
        <time>2021-08-13T12:40:40Z</time>
      </trkpt>
      <trkpt lat="47.00699" lon="2.45762">
        <ele>137</ele>
        <time>2021-08-13T12:40:40Z</time>
      </trkpt>
      <trkpt lat="47.00686" lon="2.45753">
        <ele>137</ele>
        <time>2021-08-13T12:40:40Z</time>
      </trkpt>
      <trkpt lat="47.00679" lon="2.45749">
        <ele>138</ele>
        <time>2021-08-13T12:40:40Z</time>
      </trkpt>
      <trkpt lat="47.00673" lon="2.45744">
        <ele>138</ele>
        <time>2021-08-13T12:40:40Z</time>
      </trkpt>
      <trkpt lat="47.00666" lon="2.4574">
        <ele>138</ele>
        <time>2021-08-13T12:40:40Z</time>
      </trkpt>
      <trkpt lat="47.0066" lon="2.45736">
        <ele>138</ele>
        <time>2021-08-13T12:40:40Z</time>
      </trkpt>
      <trkpt lat="47.00647" lon="2.45727">
        <ele>139</ele>
        <time>2021-08-13T12:40:40Z</time>
      </trkpt>
      <trkpt lat="47.0064" lon="2.45723">
        <ele>139</ele>
        <time>2021-08-13T12:40:40Z</time>
      </trkpt>
      <trkpt lat="47.00634" lon="2.45719">
        <ele>139</ele>
        <time>2021-08-13T12:40:40Z</time>
      </trkpt>
      <trkpt lat="47.00627" lon="2.45716">
        <ele>139</ele>
        <time>2021-08-13T12:40:40Z</time>
      </trkpt>
      <trkpt lat="47.00621" lon="2.45711">
        <ele>139</ele>
        <time>2021-08-13T12:40:40Z</time>
      </trkpt>
      <trkpt lat="47.00615" lon="2.45707">
        <ele>139</ele>
        <time>2021-08-13T12:40:40Z</time>
      </trkpt>
      <trkpt lat="47.00608" lon="2.45702">
        <ele>139</ele>
        <time>2021-08-13T12:40:40Z</time>
      </trkpt>
      <trkpt lat="47.00602" lon="2.45697">
        <ele>139</ele>
        <time>2021-08-13T12:40:40Z</time>
      </trkpt>
      <trkpt lat="47.00596" lon="2.45693">
        <ele>139</ele>
        <time>2021-08-13T12:40:40Z</time>
      </trkpt>
      <trkpt lat="47.0059" lon="2.4569">
        <ele>139</ele>
        <time>2021-08-13T12:40:40Z</time>
      </trkpt>
      <trkpt lat="47.00584" lon="2.45686">
        <ele>139</ele>
        <time>2021-08-13T12:40:40Z</time>
      </trkpt>
      <trkpt lat="47.00577" lon="2.45682">
        <ele>139</ele>
        <time>2021-08-13T12:40:40Z</time>
      </trkpt>
      <trkpt lat="47.00571" lon="2.45677">
        <ele>139</ele>
        <time>2021-08-13T12:40:40Z</time>
      </trkpt>
      <trkpt lat="47.00566" lon="2.45673">
        <ele>138</ele>
        <time>2021-08-13T12:40:40Z</time>
      </trkpt>
      <trkpt lat="47.00559" lon="2.45671">
        <ele>139</ele>
        <time>2021-08-13T12:40:40Z</time>
      </trkpt>
      <trkpt lat="47.00553" lon="2.45667">
        <ele>139</ele>
        <time>2021-08-13T12:40:40Z</time>
      </trkpt>
      <trkpt lat="47.00548" lon="2.45663">
        <ele>139</ele>
        <time>2021-08-13T12:40:40Z</time>
      </trkpt>
      <trkpt lat="47.00541" lon="2.45659">
        <ele>139</ele>
        <time>2021-08-13T12:40:40Z</time>
      </trkpt>
      <trkpt lat="47.00535" lon="2.45655">
        <ele>139</ele>
        <time>2021-08-13T12:40:40Z</time>
      </trkpt>
      <trkpt lat="47.00529" lon="2.45651">
        <ele>139</ele>
        <time>2021-08-13T12:40:40Z</time>
      </trkpt>
      <trkpt lat="47.00523" lon="2.45646">
        <ele>139</ele>
        <time>2021-08-13T12:40:40Z</time>
      </trkpt>
      <trkpt lat="47.00517" lon="2.45642">
        <ele>139</ele>
        <time>2021-08-13T12:40:40Z</time>
      </trkpt>
      <trkpt lat="47.00511" lon="2.45638">
        <ele>140</ele>
        <time>2021-08-13T12:40:40Z</time>
      </trkpt>
      <trkpt lat="47.00505" lon="2.45634">
        <ele>140</ele>
        <time>2021-08-13T12:40:40Z</time>
      </trkpt>
      <trkpt lat="47.00498" lon="2.4563">
        <ele>140</ele>
        <time>2021-08-13T12:40:40Z</time>
      </trkpt>
      <trkpt lat="47.00492" lon="2.45626">
        <ele>140</ele>
        <time>2021-08-13T12:40:40Z</time>
      </trkpt>
      <trkpt lat="47.00486" lon="2.45622">
        <ele>140</ele>
        <time>2021-08-13T12:40:40Z</time>
      </trkpt>
      <trkpt lat="47.0048" lon="2.45619">
        <ele>140</ele>
        <time>2021-08-13T12:40:40Z</time>
      </trkpt>
      <trkpt lat="47.00474" lon="2.45614">
        <ele>141</ele>
        <time>2021-08-13T12:40:40Z</time>
      </trkpt>
      <trkpt lat="47.00468" lon="2.45611">
        <ele>141</ele>
        <time>2021-08-13T12:40:40Z</time>
      </trkpt>
      <trkpt lat="47.00461" lon="2.45607">
        <ele>140</ele>
        <time>2021-08-13T12:40:40Z</time>
      </trkpt>
      <trkpt lat="47.00455" lon="2.45602">
        <ele>140</ele>
        <time>2021-08-13T12:40:40Z</time>
      </trkpt>
      <trkpt lat="47.00449" lon="2.45598">
        <ele>140</ele>
        <time>2021-08-13T12:40:40Z</time>
      </trkpt>
      <trkpt lat="47.00442" lon="2.45593">
        <ele>140</ele>
        <time>2021-08-13T12:40:40Z</time>
      </trkpt>
      <trkpt lat="47.00436" lon="2.45588">
        <ele>140</ele>
        <time>2021-08-13T12:40:40Z</time>
      </trkpt>
      <trkpt lat="47.00429" lon="2.45583">
        <ele>140</ele>
        <time>2021-08-13T12:40:40Z</time>
      </trkpt>
      <trkpt lat="47.00423" lon="2.4558">
        <ele>140</ele>
        <time>2021-08-13T12:40:40Z</time>
      </trkpt>
      <trkpt lat="47.00417" lon="2.45576">
        <ele>140</ele>
        <time>2021-08-13T12:40:40Z</time>
      </trkpt>
      <trkpt lat="47.00411" lon="2.45572">
        <ele>139</ele>
        <time>2021-08-13T12:40:40Z</time>
      </trkpt>
      <trkpt lat="47.00381" lon="2.45551">
        <ele>139</ele>
        <time>2021-08-13T12:40:40Z</time>
      </trkpt>
      <trkpt lat="47.00349" lon="2.45533">
        <ele>138</ele>
        <time>2021-08-13T12:40:40Z</time>
      </trkpt>
      <trkpt lat="47.00318" lon="2.45514">
        <ele>137</ele>
        <time>2021-08-13T12:40:40Z</time>
      </trkpt>
      <trkpt lat="47.00285" lon="2.455">
        <ele>135</ele>
        <time>2021-08-13T12:40:40Z</time>
      </trkpt>
      <trkpt lat="47.00252" lon="2.45496">
        <ele>137</ele>
        <time>2021-08-13T12:40:40Z</time>
      </trkpt>
      <trkpt lat="47.00227" lon="2.45498">
        <ele>139</ele>
        <time>2021-08-13T12:40:40Z</time>
      </trkpt>
      <trkpt lat="47.00221" lon="2.455">
        <ele>139</ele>
        <time>2021-08-13T12:40:40Z</time>
      </trkpt>
      <trkpt lat="47.00188" lon="2.45508">
        <ele>140</ele>
        <time>2021-08-13T12:40:40Z</time>
      </trkpt>
      <trkpt lat="47.00158" lon="2.45523">
        <ele>141</ele>
        <time>2021-08-13T12:40:40Z</time>
      </trkpt>
      <trkpt lat="47.00129" lon="2.45544">
        <ele>141</ele>
        <time>2021-08-13T12:40:40Z</time>
      </trkpt>
      <trkpt lat="47.00103" lon="2.45565">
        <ele>142</ele>
        <time>2021-08-13T12:40:40Z</time>
      </trkpt>
      <trkpt lat="47.0008" lon="2.45583">
        <ele>143</ele>
        <time>2021-08-13T12:40:40Z</time>
      </trkpt>
      <trkpt lat="47.00061" lon="2.45599">
        <ele>144</ele>
        <time>2021-08-13T12:40:40Z</time>
      </trkpt>
      <trkpt lat="47.00055" lon="2.45603">
        <ele>144</ele>
        <time>2021-08-13T12:40:40Z</time>
      </trkpt>
      <trkpt lat="47.00035" lon="2.45617">
        <ele>143</ele>
        <time>2021-08-13T12:40:40Z</time>
      </trkpt>
      <trkpt lat="47.00029" lon="2.45621">
        <ele>142</ele>
        <time>2021-08-13T12:40:40Z</time>
      </trkpt>
      <trkpt lat="47.00027" lon="2.45621">
        <ele>142</ele>
        <time>2021-08-13T12:40:40Z</time>
      </trkpt>
      <trkpt lat="47.00025" lon="2.45622">
        <ele>142</ele>
        <time>2021-08-13T12:40:40Z</time>
      </trkpt>
      <trkpt lat="47.00024" lon="2.45622">
        <ele>142</ele>
        <time>2021-08-13T12:40:40Z</time>
      </trkpt>
      <trkpt lat="47.00024" lon="2.45622">
        <ele>142</ele>
        <time>2021-08-13T12:40:40Z</time>
      </trkpt>
      <trkpt lat="47.00024" lon="2.45622">
        <ele>142</ele>
        <time>2021-08-13T12:40:40Z</time>
      </trkpt>
      <trkpt lat="47.00024" lon="2.45621">
        <ele>142</ele>
        <time>2021-08-13T12:40:40Z</time>
      </trkpt>
      <trkpt lat="47.00024" lon="2.45621">
        <ele>142</ele>
        <time>2021-08-13T12:40:40Z</time>
      </trkpt>
      <trkpt lat="47.00025" lon="2.45621">
        <ele>142</ele>
        <time>2021-08-13T12:40:40Z</time>
      </trkpt>
      <trkpt lat="47.00024" lon="2.4562">
        <ele>142</ele>
        <time>2021-08-13T12:40:40Z</time>
      </trkpt>
      <trkpt lat="47.00024" lon="2.45619">
        <ele>142</ele>
        <time>2021-08-13T12:40:40Z</time>
      </trkpt>
      <trkpt lat="47.00023" lon="2.45619">
        <ele>142</ele>
        <time>2021-08-13T12:40:40Z</time>
      </trkpt>
      <trkpt lat="47.00023" lon="2.45619">
        <ele>142</ele>
        <time>2021-08-13T12:40:40Z</time>
      </trkpt>
      <trkpt lat="47.00023" lon="2.45619">
        <ele>142</ele>
        <time>2021-08-13T12:40:40Z</time>
      </trkpt>
      <trkpt lat="47.00023" lon="2.45619">
        <ele>142</ele>
        <time>2021-08-13T12:40:40Z</time>
      </trkpt>
      <trkpt lat="47.00023" lon="2.45618">
        <ele>141</ele>
        <time>2021-08-13T12:40:40Z</time>
      </trkpt>
      <trkpt lat="47.00023" lon="2.45618">
        <ele>141</ele>
        <time>2021-08-13T12:40:40Z</time>
      </trkpt>
      <trkpt lat="47.00023" lon="2.45619">
        <ele>142</ele>
        <time>2021-08-13T12:40:40Z</time>
      </trkpt>
      <trkpt lat="47.00022" lon="2.45619">
        <ele>141</ele>
        <time>2021-08-13T12:40:40Z</time>
      </trkpt>
      <trkpt lat="47.00021" lon="2.45618">
        <ele>141</ele>
        <time>2021-08-13T12:40:40Z</time>
      </trkpt>
      <trkpt lat="47.0002" lon="2.45616">
        <ele>141</ele>
        <time>2021-08-13T12:40:40Z</time>
      </trkpt>
      <trkpt lat="47.0002" lon="2.45616">
        <ele>141</ele>
        <time>2021-08-13T12:40:40Z</time>
      </trkpt>
      <trkpt lat="47.0002" lon="2.45616">
        <ele>141</ele>
        <time>2021-08-13T12:40:40Z</time>
      </trkpt>
      <trkpt lat="47.0002" lon="2.45615">
        <ele>141</ele>
        <time>2021-08-13T12:40:40Z</time>
      </trkpt>
      <trkpt lat="47.00021" lon="2.45615">
        <ele>141</ele>
        <time>2021-08-13T12:40:40Z</time>
      </trkpt>
      <trkpt lat="47.00021" lon="2.45616">
        <ele>141</ele>
        <time>2021-08-13T12:40:40Z</time>
      </trkpt>
      <trkpt lat="47.00021" lon="2.45616">
        <ele>141</ele>
        <time>2021-08-13T12:40:40Z</time>
      </trkpt>
      <trkpt lat="47.00022" lon="2.45617">
        <ele>141</ele>
        <time>2021-08-13T12:40:40Z</time>
      </trkpt>
      <trkpt lat="47.00022" lon="2.45616">
        <ele>141</ele>
        <time>2021-08-13T12:40:40Z</time>
      </trkpt>
      <trkpt lat="47.00022" lon="2.45616">
        <ele>141</ele>
        <time>2021-08-13T12:40:40Z</time>
      </trkpt>
      <trkpt lat="47.00022" lon="2.45616">
        <ele>141</ele>
        <time>2021-08-13T12:40:40Z</time>
      </trkpt>
      <trkpt lat="47.00022" lon="2.45616">
        <ele>141</ele>
        <time>2021-08-13T12:40:40Z</time>
      </trkpt>
      <trkpt lat="47.00021" lon="2.45616">
        <ele>141</ele>
        <time>2021-08-13T12:40:40Z</time>
      </trkpt>
      <trkpt lat="47.00021" lon="2.45616">
        <ele>141</ele>
        <time>2021-08-13T12:40:40Z</time>
      </trkpt>
      <trkpt lat="47.00022" lon="2.45615">
        <ele>141</ele>
        <time>2021-08-13T12:40:40Z</time>
      </trkpt>
      <trkpt lat="47.00018" lon="2.45618">
        <ele>141</ele>
        <time>2021-08-13T12:40:40Z</time>
      </trkpt>
      <trkpt lat="47.0001" lon="2.45596">
        <ele>139</ele>
        <time>2021-08-13T12:40:40Z</time>
      </trkpt>
      <trkpt lat="46.99993" lon="2.45568">
        <ele>139</ele>
        <time>2021-08-13T12:40:40Z</time>
      </trkpt>
      <trkpt lat="46.99963" lon="2.4557">
        <ele>140</ele>
        <time>2021-08-13T12:40:40Z</time>
      </trkpt>
      <trkpt lat="46.99939" lon="2.45572">
        <ele>142</ele>
        <time>2021-08-13T12:40:40Z</time>
      </trkpt>
      <trkpt lat="46.99934" lon="2.45572">
        <ele>142</ele>
        <time>2021-08-13T12:40:40Z</time>
      </trkpt>
      <trkpt lat="46.99908" lon="2.45577">
        <ele>143</ele>
        <time>2021-08-13T12:40:40Z</time>
      </trkpt>
      <trkpt lat="46.99882" lon="2.45575">
        <ele>143</ele>
        <time>2021-08-13T12:40:40Z</time>
      </trkpt>
      <trkpt lat="46.99868" lon="2.45541">
        <ele>146</ele>
        <time>2021-08-13T12:40:40Z</time>
      </trkpt>
      <trkpt lat="46.99866" lon="2.455">
        <ele>147</ele>
        <time>2021-08-13T12:40:40Z</time>
      </trkpt>
      <trkpt lat="46.99862" lon="2.4546">
        <ele>149</ele>
        <time>2021-08-13T12:40:40Z</time>
      </trkpt>
      <trkpt lat="46.99859" lon="2.45435">
        <ele>151</ele>
        <time>2021-08-13T12:40:40Z</time>
      </trkpt>
      <trkpt lat="46.99859" lon="2.45431">
        <ele>151</ele>
        <time>2021-08-13T12:40:40Z</time>
      </trkpt>
      <trkpt lat="46.99839" lon="2.45423">
        <ele>151</ele>
        <time>2021-08-13T12:40:40Z</time>
      </trkpt>
      <trkpt lat="46.99811" lon="2.45423">
        <ele>153</ele>
        <time>2021-08-13T12:40:40Z</time>
      </trkpt>
      <trkpt lat="46.99784" lon="2.45415">
        <ele>154</ele>
        <time>2021-08-13T12:40:40Z</time>
      </trkpt>
      <trkpt lat="46.99756" lon="2.45417">
        <ele>154</ele>
        <time>2021-08-13T12:40:40Z</time>
      </trkpt>
      <trkpt lat="46.99728" lon="2.45432">
        <ele>155</ele>
        <time>2021-08-13T12:40:40Z</time>
      </trkpt>
      <trkpt lat="46.99707" lon="2.45445">
        <ele>156</ele>
        <time>2021-08-13T12:40:40Z</time>
      </trkpt>
      <trkpt lat="46.99701" lon="2.45448">
        <ele>156</ele>
        <time>2021-08-13T12:40:40Z</time>
      </trkpt>
      <trkpt lat="46.99672" lon="2.45463">
        <ele>156</ele>
        <time>2021-08-13T12:40:40Z</time>
      </trkpt>
      <trkpt lat="46.99645" lon="2.45479">
        <ele>156</ele>
        <time>2021-08-13T12:40:40Z</time>
      </trkpt>
      <trkpt lat="46.99618" lon="2.45495">
        <ele>156</ele>
        <time>2021-08-13T12:40:40Z</time>
      </trkpt>
      <trkpt lat="46.99591" lon="2.45511">
        <ele>157</ele>
        <time>2021-08-13T12:40:40Z</time>
      </trkpt>
      <trkpt lat="46.99563" lon="2.45527">
        <ele>158</ele>
        <time>2021-08-13T12:40:40Z</time>
      </trkpt>
      <trkpt lat="46.9954" lon="2.45542">
        <ele>158</ele>
        <time>2021-08-13T12:40:40Z</time>
      </trkpt>
      <trkpt lat="46.99534" lon="2.45547">
        <ele>158</ele>
        <time>2021-08-13T12:40:40Z</time>
      </trkpt>
      <trkpt lat="46.99506" lon="2.45572">
        <ele>158</ele>
        <time>2021-08-13T12:40:40Z</time>
      </trkpt>
      <trkpt lat="46.99477" lon="2.45599">
        <ele>157</ele>
        <time>2021-08-13T12:40:40Z</time>
      </trkpt>
      <trkpt lat="46.99446" lon="2.45626">
        <ele>156</ele>
        <time>2021-08-13T12:40:40Z</time>
      </trkpt>
      <trkpt lat="46.99417" lon="2.45657">
        <ele>155</ele>
        <time>2021-08-13T12:40:40Z</time>
      </trkpt>
      <trkpt lat="46.9939" lon="2.45678">
        <ele>154</ele>
        <time>2021-08-13T12:40:40Z</time>
      </trkpt>
      <trkpt lat="46.99372" lon="2.45698">
        <ele>153</ele>
        <time>2021-08-13T12:40:40Z</time>
      </trkpt>
      <trkpt lat="46.9937" lon="2.45706">
        <ele>153</ele>
        <time>2021-08-13T12:40:40Z</time>
      </trkpt>
      <trkpt lat="46.9935" lon="2.45742">
        <ele>153</ele>
        <time>2021-08-13T12:40:40Z</time>
      </trkpt>
      <trkpt lat="46.9933" lon="2.45776">
        <ele>155</ele>
        <time>2021-08-13T12:40:40Z</time>
      </trkpt>
      <trkpt lat="46.9931" lon="2.45807">
        <ele>154</ele>
        <time>2021-08-13T12:40:40Z</time>
      </trkpt>
      <trkpt lat="46.99288" lon="2.4584">
        <ele>154</ele>
        <time>2021-08-13T12:40:40Z</time>
      </trkpt>
      <trkpt lat="46.99266" lon="2.45875">
        <ele>154</ele>
        <time>2021-08-13T12:40:40Z</time>
      </trkpt>
      <trkpt lat="46.99248" lon="2.45903">
        <ele>155</ele>
        <time>2021-08-13T12:40:40Z</time>
      </trkpt>
      <trkpt lat="46.99244" lon="2.45909">
        <ele>155</ele>
        <time>2021-08-13T12:40:40Z</time>
      </trkpt>
      <trkpt lat="46.99239" lon="2.45917">
        <ele>155</ele>
        <time>2021-08-13T12:40:40Z</time>
      </trkpt>
      <trkpt lat="46.99235" lon="2.45924">
        <ele>155</ele>
        <time>2021-08-13T12:40:40Z</time>
      </trkpt>
      <trkpt lat="46.99231" lon="2.4593">
        <ele>155</ele>
        <time>2021-08-13T12:40:40Z</time>
      </trkpt>
      <trkpt lat="46.99226" lon="2.45937">
        <ele>155</ele>
        <time>2021-08-13T12:40:40Z</time>
      </trkpt>
      <trkpt lat="46.99222" lon="2.45944">
        <ele>156</ele>
        <time>2021-08-13T12:40:40Z</time>
      </trkpt>
      <trkpt lat="46.99218" lon="2.45951">
        <ele>156</ele>
        <time>2021-08-13T12:40:40Z</time>
      </trkpt>
      <trkpt lat="46.99214" lon="2.45958">
        <ele>156</ele>
        <time>2021-08-13T12:40:40Z</time>
      </trkpt>
      <trkpt lat="46.9921" lon="2.45965">
        <ele>156</ele>
        <time>2021-08-13T12:40:40Z</time>
      </trkpt>
      <trkpt lat="46.99205" lon="2.45972">
        <ele>156</ele>
        <time>2021-08-13T12:40:40Z</time>
      </trkpt>
      <trkpt lat="46.99201" lon="2.45978">
        <ele>156</ele>
        <time>2021-08-13T12:40:40Z</time>
      </trkpt>
      <trkpt lat="46.99196" lon="2.45985">
        <ele>156</ele>
        <time>2021-08-13T12:40:40Z</time>
      </trkpt>
      <trkpt lat="46.99192" lon="2.45991">
        <ele>157</ele>
        <time>2021-08-13T12:40:40Z</time>
      </trkpt>
      <trkpt lat="46.99187" lon="2.45998">
        <ele>157</ele>
        <time>2021-08-13T12:40:40Z</time>
      </trkpt>
      <trkpt lat="46.99184" lon="2.46004">
        <ele>156</ele>
        <time>2021-08-13T12:40:40Z</time>
      </trkpt>
      <trkpt lat="46.99179" lon="2.46012">
        <ele>156</ele>
        <time>2021-08-13T12:40:40Z</time>
      </trkpt>
      <trkpt lat="46.99175" lon="2.46019">
        <ele>156</ele>
        <time>2021-08-13T12:40:40Z</time>
      </trkpt>
      <trkpt lat="46.99171" lon="2.46026">
        <ele>156</ele>
        <time>2021-08-13T12:40:40Z</time>
      </trkpt>
      <trkpt lat="46.99167" lon="2.46033">
        <ele>156</ele>
        <time>2021-08-13T12:40:40Z</time>
      </trkpt>
      <trkpt lat="46.99162" lon="2.4604">
        <ele>156</ele>
        <time>2021-08-13T12:40:40Z</time>
      </trkpt>
      <trkpt lat="46.99158" lon="2.46047">
        <ele>156</ele>
        <time>2021-08-13T12:40:40Z</time>
      </trkpt>
      <trkpt lat="46.99153" lon="2.46054">
        <ele>156</ele>
        <time>2021-08-13T12:40:40Z</time>
      </trkpt>
      <trkpt lat="46.99149" lon="2.46061">
        <ele>156</ele>
        <time>2021-08-13T12:40:40Z</time>
      </trkpt>
      <trkpt lat="46.99145" lon="2.46068">
        <ele>156</ele>
        <time>2021-08-13T12:40:40Z</time>
      </trkpt>
      <trkpt lat="46.99141" lon="2.46074">
        <ele>156</ele>
        <time>2021-08-13T12:40:40Z</time>
      </trkpt>
      <trkpt lat="46.99136" lon="2.46081">
        <ele>156</ele>
        <time>2021-08-13T12:40:40Z</time>
      </trkpt>
      <trkpt lat="46.99132" lon="2.46088">
        <ele>156</ele>
        <time>2021-08-13T12:40:40Z</time>
      </trkpt>
      <trkpt lat="46.99127" lon="2.46095">
        <ele>156</ele>
        <time>2021-08-13T12:40:40Z</time>
      </trkpt>
      <trkpt lat="46.99124" lon="2.46102">
        <ele>156</ele>
        <time>2021-08-13T12:40:40Z</time>
      </trkpt>
      <trkpt lat="46.99119" lon="2.4611">
        <ele>156</ele>
        <time>2021-08-13T12:40:40Z</time>
      </trkpt>
      <trkpt lat="46.99115" lon="2.46117">
        <ele>156</ele>
        <time>2021-08-13T12:40:40Z</time>
      </trkpt>
      <trkpt lat="46.9911" lon="2.46124">
        <ele>156</ele>
        <time>2021-08-13T12:40:40Z</time>
      </trkpt>
      <trkpt lat="46.99106" lon="2.46132">
        <ele>156</ele>
        <time>2021-08-13T12:40:40Z</time>
      </trkpt>
      <trkpt lat="46.99102" lon="2.46139">
        <ele>156</ele>
        <time>2021-08-13T12:40:40Z</time>
      </trkpt>
      <trkpt lat="46.99098" lon="2.46146">
        <ele>156</ele>
        <time>2021-08-13T12:40:40Z</time>
      </trkpt>
      <trkpt lat="46.99093" lon="2.46153">
        <ele>156</ele>
        <time>2021-08-13T12:40:40Z</time>
      </trkpt>
      <trkpt lat="46.99089" lon="2.4616">
        <ele>156</ele>
        <time>2021-08-13T12:40:40Z</time>
      </trkpt>
      <trkpt lat="46.99085" lon="2.46167">
        <ele>156</ele>
        <time>2021-08-13T12:40:40Z</time>
      </trkpt>
      <trkpt lat="46.9908" lon="2.46174">
        <ele>155</ele>
        <time>2021-08-13T12:40:40Z</time>
      </trkpt>
      <trkpt lat="46.99076" lon="2.46181">
        <ele>155</ele>
        <time>2021-08-13T12:40:40Z</time>
      </trkpt>
      <trkpt lat="46.99072" lon="2.46188">
        <ele>155</ele>
        <time>2021-08-13T12:40:40Z</time>
      </trkpt>
      <trkpt lat="46.99067" lon="2.46195">
        <ele>155</ele>
        <time>2021-08-13T12:40:40Z</time>
      </trkpt>
      <trkpt lat="46.99063" lon="2.46202">
        <ele>154</ele>
        <time>2021-08-13T12:40:40Z</time>
      </trkpt>
      <trkpt lat="46.99058" lon="2.4621">
        <ele>154</ele>
        <time>2021-08-13T12:40:40Z</time>
      </trkpt>
      <trkpt lat="46.99054" lon="2.46217">
        <ele>154</ele>
        <time>2021-08-13T12:40:40Z</time>
      </trkpt>
      <trkpt lat="46.9905" lon="2.46223">
        <ele>154</ele>
        <time>2021-08-13T12:40:40Z</time>
      </trkpt>
      <trkpt lat="46.99045" lon="2.46231">
        <ele>154</ele>
        <time>2021-08-13T12:40:40Z</time>
      </trkpt>
      <trkpt lat="46.99041" lon="2.46238">
        <ele>154</ele>
        <time>2021-08-13T12:40:40Z</time>
      </trkpt>
      <trkpt lat="46.99036" lon="2.46246">
        <ele>154</ele>
        <time>2021-08-13T12:40:40Z</time>
      </trkpt>
      <trkpt lat="46.99031" lon="2.46253">
        <ele>154</ele>
        <time>2021-08-13T12:40:40Z</time>
      </trkpt>
      <trkpt lat="46.99027" lon="2.46261">
        <ele>155</ele>
        <time>2021-08-13T12:40:40Z</time>
      </trkpt>
      <trkpt lat="46.99022" lon="2.46268">
        <ele>155</ele>
        <time>2021-08-13T12:40:40Z</time>
      </trkpt>
      <trkpt lat="46.99017" lon="2.46276">
        <ele>155</ele>
        <time>2021-08-13T12:40:40Z</time>
      </trkpt>
      <trkpt lat="46.99012" lon="2.46284">
        <ele>154</ele>
        <time>2021-08-13T12:40:40Z</time>
      </trkpt>
      <trkpt lat="46.99008" lon="2.46292">
        <ele>154</ele>
        <time>2021-08-13T12:40:40Z</time>
      </trkpt>
      <trkpt lat="46.99003" lon="2.46299">
        <ele>154</ele>
        <time>2021-08-13T12:40:40Z</time>
      </trkpt>
      <trkpt lat="46.98998" lon="2.46307">
        <ele>153</ele>
        <time>2021-08-13T12:40:40Z</time>
      </trkpt>
      <trkpt lat="46.98993" lon="2.46315">
        <ele>153</ele>
        <time>2021-08-13T12:40:40Z</time>
      </trkpt>
      <trkpt lat="46.98989" lon="2.46323">
        <ele>153</ele>
        <time>2021-08-13T12:40:40Z</time>
      </trkpt>
      <trkpt lat="46.98984" lon="2.46331">
        <ele>152</ele>
        <time>2021-08-13T12:40:40Z</time>
      </trkpt>
      <trkpt lat="46.98979" lon="2.46339">
        <ele>152</ele>
        <time>2021-08-13T12:40:40Z</time>
      </trkpt>
      <trkpt lat="46.98975" lon="2.46347">
        <ele>152</ele>
        <time>2021-08-13T12:40:40Z</time>
      </trkpt>
      <trkpt lat="46.98949" lon="2.46388">
        <ele>152</ele>
        <time>2021-08-13T12:40:40Z</time>
      </trkpt>
      <trkpt lat="46.98925" lon="2.46427">
        <ele>152</ele>
        <time>2021-08-13T12:40:40Z</time>
      </trkpt>
      <trkpt lat="46.98901" lon="2.46466">
        <ele>152</ele>
        <time>2021-08-13T12:40:40Z</time>
      </trkpt>
      <trkpt lat="46.9888" lon="2.46503">
        <ele>153</ele>
        <time>2021-08-13T12:40:40Z</time>
      </trkpt>
      <trkpt lat="46.98858" lon="2.46538">
        <ele>154</ele>
        <time>2021-08-13T12:40:40Z</time>
      </trkpt>
      <trkpt lat="46.98844" lon="2.46566">
        <ele>153</ele>
        <time>2021-08-13T12:40:40Z</time>
      </trkpt>
      <trkpt lat="46.9884" lon="2.46574">
        <ele>153</ele>
        <time>2021-08-13T12:40:40Z</time>
      </trkpt>
      <trkpt lat="46.98822" lon="2.46612">
        <ele>153</ele>
        <time>2021-08-13T12:40:40Z</time>
      </trkpt>
      <trkpt lat="46.98806" lon="2.4665">
        <ele>153</ele>
        <time>2021-08-13T12:40:40Z</time>
      </trkpt>
      <trkpt lat="46.98792" lon="2.46688">
        <ele>153</ele>
        <time>2021-08-13T12:40:40Z</time>
      </trkpt>
      <trkpt lat="46.98776" lon="2.46726">
        <ele>155</ele>
        <time>2021-08-13T12:40:40Z</time>
      </trkpt>
      <trkpt lat="46.9876" lon="2.46765">
        <ele>154</ele>
        <time>2021-08-13T12:40:40Z</time>
      </trkpt>
      <trkpt lat="46.98748" lon="2.46795">
        <ele>154</ele>
        <time>2021-08-13T12:40:40Z</time>
      </trkpt>
      <trkpt lat="46.98744" lon="2.46804">
        <ele>154</ele>
        <time>2021-08-13T12:40:40Z</time>
      </trkpt>
      <trkpt lat="46.98741" lon="2.46812">
        <ele>154</ele>
        <time>2021-08-13T12:40:40Z</time>
      </trkpt>
      <trkpt lat="46.98738" lon="2.4682">
        <ele>154</ele>
        <time>2021-08-13T12:40:40Z</time>
      </trkpt>
      <trkpt lat="46.98736" lon="2.46827">
        <ele>154</ele>
        <time>2021-08-13T12:40:40Z</time>
      </trkpt>
      <trkpt lat="46.98732" lon="2.46835">
        <ele>154</ele>
        <time>2021-08-13T12:40:40Z</time>
      </trkpt>
      <trkpt lat="46.98729" lon="2.46844">
        <ele>154</ele>
        <time>2021-08-13T12:40:40Z</time>
      </trkpt>
      <trkpt lat="46.98726" lon="2.46852">
        <ele>154</ele>
        <time>2021-08-13T12:40:40Z</time>
      </trkpt>
      <trkpt lat="46.98722" lon="2.4686">
        <ele>154</ele>
        <time>2021-08-13T12:40:40Z</time>
      </trkpt>
      <trkpt lat="46.98719" lon="2.46868">
        <ele>154</ele>
        <time>2021-08-13T12:40:40Z</time>
      </trkpt>
      <trkpt lat="46.98715" lon="2.46876">
        <ele>154</ele>
        <time>2021-08-13T12:40:40Z</time>
      </trkpt>
      <trkpt lat="46.98712" lon="2.46885">
        <ele>154</ele>
        <time>2021-08-13T12:40:40Z</time>
      </trkpt>
      <trkpt lat="46.98708" lon="2.46893">
        <ele>154</ele>
        <time>2021-08-13T12:40:40Z</time>
      </trkpt>
      <trkpt lat="46.98705" lon="2.46901">
        <ele>154</ele>
        <time>2021-08-13T12:40:40Z</time>
      </trkpt>
      <trkpt lat="46.98702" lon="2.4691">
        <ele>154</ele>
        <time>2021-08-13T12:40:40Z</time>
      </trkpt>
      <trkpt lat="46.98699" lon="2.46918">
        <ele>154</ele>
        <time>2021-08-13T12:40:40Z</time>
      </trkpt>
      <trkpt lat="46.98695" lon="2.46926">
        <ele>154</ele>
        <time>2021-08-13T12:40:40Z</time>
      </trkpt>
      <trkpt lat="46.98691" lon="2.46935">
        <ele>154</ele>
        <time>2021-08-13T12:40:40Z</time>
      </trkpt>
      <trkpt lat="46.98688" lon="2.46944">
        <ele>154</ele>
        <time>2021-08-13T12:40:40Z</time>
      </trkpt>
      <trkpt lat="46.98684" lon="2.46952">
        <ele>153</ele>
        <time>2021-08-13T12:40:40Z</time>
      </trkpt>
      <trkpt lat="46.9868" lon="2.46961">
        <ele>153</ele>
        <time>2021-08-13T12:40:40Z</time>
      </trkpt>
      <trkpt lat="46.98676" lon="2.4697">
        <ele>153</ele>
        <time>2021-08-13T12:40:40Z</time>
      </trkpt>
      <trkpt lat="46.98673" lon="2.4698">
        <ele>153</ele>
        <time>2021-08-13T12:40:40Z</time>
      </trkpt>
      <trkpt lat="46.98669" lon="2.46989">
        <ele>153</ele>
        <time>2021-08-13T12:40:40Z</time>
      </trkpt>
      <trkpt lat="46.98665" lon="2.46999">
        <ele>152</ele>
        <time>2021-08-13T12:40:40Z</time>
      </trkpt>
      <trkpt lat="46.98661" lon="2.47008">
        <ele>152</ele>
        <time>2021-08-13T12:40:40Z</time>
      </trkpt>
      <trkpt lat="46.98657" lon="2.47018">
        <ele>152</ele>
        <time>2021-08-13T12:40:40Z</time>
      </trkpt>
      <trkpt lat="46.98654" lon="2.47028">
        <ele>152</ele>
        <time>2021-08-13T12:40:40Z</time>
      </trkpt>
      <trkpt lat="46.98649" lon="2.47038">
        <ele>152</ele>
        <time>2021-08-13T12:40:40Z</time>
      </trkpt>
      <trkpt lat="46.98645" lon="2.47048">
        <ele>152</ele>
        <time>2021-08-13T12:40:40Z</time>
      </trkpt>
      <trkpt lat="46.98641" lon="2.47058">
        <ele>151</ele>
        <time>2021-08-13T12:40:40Z</time>
      </trkpt>
      <trkpt lat="46.98637" lon="2.47068">
        <ele>151</ele>
        <time>2021-08-13T12:40:40Z</time>
      </trkpt>
      <trkpt lat="46.98633" lon="2.47078">
        <ele>150</ele>
        <time>2021-08-13T12:40:40Z</time>
      </trkpt>
      <trkpt lat="46.98628" lon="2.47088">
        <ele>149</ele>
        <time>2021-08-13T12:40:40Z</time>
      </trkpt>
      <trkpt lat="46.98624" lon="2.47098">
        <ele>149</ele>
        <time>2021-08-13T12:40:40Z</time>
      </trkpt>
      <trkpt lat="46.9862" lon="2.47109">
        <ele>149</ele>
        <time>2021-08-13T12:40:40Z</time>
      </trkpt>
      <trkpt lat="46.98616" lon="2.47119">
        <ele>148</ele>
        <time>2021-08-13T12:40:40Z</time>
      </trkpt>
      <trkpt lat="46.98611" lon="2.4713">
        <ele>146</ele>
        <time>2021-08-13T12:40:40Z</time>
      </trkpt>
      <trkpt lat="46.98607" lon="2.47141">
        <ele>146</ele>
        <time>2021-08-13T12:40:40Z</time>
      </trkpt>
      <trkpt lat="46.98603" lon="2.47151">
        <ele>145</ele>
        <time>2021-08-13T12:40:40Z</time>
      </trkpt>
      <trkpt lat="46.98598" lon="2.47162">
        <ele>145</ele>
        <time>2021-08-13T12:40:40Z</time>
      </trkpt>
      <trkpt lat="46.98594" lon="2.47173">
        <ele>144</ele>
        <time>2021-08-13T12:40:40Z</time>
      </trkpt>
      <trkpt lat="46.98589" lon="2.47184">
        <ele>144</ele>
        <time>2021-08-13T12:40:40Z</time>
      </trkpt>
      <trkpt lat="46.98585" lon="2.47194">
        <ele>144</ele>
        <time>2021-08-13T12:40:40Z</time>
      </trkpt>
      <trkpt lat="46.98581" lon="2.47204">
        <ele>143</ele>
        <time>2021-08-13T12:40:40Z</time>
      </trkpt>
      <trkpt lat="46.98577" lon="2.47214">
        <ele>143</ele>
        <time>2021-08-13T12:40:40Z</time>
      </trkpt>
      <trkpt lat="46.98573" lon="2.47223">
        <ele>143</ele>
        <time>2021-08-13T12:40:40Z</time>
      </trkpt>
      <trkpt lat="46.98569" lon="2.47232">
        <ele>143</ele>
        <time>2021-08-13T12:40:40Z</time>
      </trkpt>
      <trkpt lat="46.98566" lon="2.47241">
        <ele>143</ele>
        <time>2021-08-13T12:40:40Z</time>
      </trkpt>
      <trkpt lat="46.98563" lon="2.4725">
        <ele>143</ele>
        <time>2021-08-13T12:40:40Z</time>
      </trkpt>
      <trkpt lat="46.98559" lon="2.47258">
        <ele>144</ele>
        <time>2021-08-13T12:40:40Z</time>
      </trkpt>
      <trkpt lat="46.98556" lon="2.47266">
        <ele>144</ele>
        <time>2021-08-13T12:40:40Z</time>
      </trkpt>
      <trkpt lat="46.98553" lon="2.47274">
        <ele>144</ele>
        <time>2021-08-13T12:40:40Z</time>
      </trkpt>
      <trkpt lat="46.9855" lon="2.47281">
        <ele>145</ele>
        <time>2021-08-13T12:40:40Z</time>
      </trkpt>
      <trkpt lat="46.98546" lon="2.47288">
        <ele>145</ele>
        <time>2021-08-13T12:40:40Z</time>
      </trkpt>
      <trkpt lat="46.9854" lon="2.47303">
        <ele>146</ele>
        <time>2021-08-13T12:40:40Z</time>
      </trkpt>
      <trkpt lat="46.98534" lon="2.47318">
        <ele>147</ele>
        <time>2021-08-13T12:40:40Z</time>
      </trkpt>
      <trkpt lat="46.98531" lon="2.47325">
        <ele>147</ele>
        <time>2021-08-13T12:40:40Z</time>
      </trkpt>
      <trkpt lat="46.98528" lon="2.47332">
        <ele>147</ele>
        <time>2021-08-13T12:40:40Z</time>
      </trkpt>
      <trkpt lat="46.98526" lon="2.4734">
        <ele>148</ele>
        <time>2021-08-13T12:40:40Z</time>
      </trkpt>
      <trkpt lat="46.98522" lon="2.47347">
        <ele>149</ele>
        <time>2021-08-13T12:40:40Z</time>
      </trkpt>
      <trkpt lat="46.98504" lon="2.47392">
        <ele>151</ele>
        <time>2021-08-13T12:40:40Z</time>
      </trkpt>
      <trkpt lat="46.98486" lon="2.47437">
        <ele>152</ele>
        <time>2021-08-13T12:40:40Z</time>
      </trkpt>
      <trkpt lat="46.98471" lon="2.47474">
        <ele>152</ele>
        <time>2021-08-13T12:40:40Z</time>
      </trkpt>
      <trkpt lat="46.98456" lon="2.47511">
        <ele>152</ele>
        <time>2021-08-13T12:40:40Z</time>
      </trkpt>
      <trkpt lat="46.98439" lon="2.47555">
        <ele>154</ele>
        <time>2021-08-13T12:40:40Z</time>
      </trkpt>
      <trkpt lat="46.98423" lon="2.47592">
        <ele>155</ele>
        <time>2021-08-13T12:40:40Z</time>
      </trkpt>
      <trkpt lat="46.9842" lon="2.476">
        <ele>155</ele>
        <time>2021-08-13T12:40:40Z</time>
      </trkpt>
      <trkpt lat="46.98405" lon="2.47638">
        <ele>155</ele>
        <time>2021-08-13T12:40:40Z</time>
      </trkpt>
      <trkpt lat="46.98389" lon="2.47675">
        <ele>156</ele>
        <time>2021-08-13T12:40:40Z</time>
      </trkpt>
      <trkpt lat="46.98374" lon="2.47712">
        <ele>157</ele>
        <time>2021-08-13T12:40:40Z</time>
      </trkpt>
      <trkpt lat="46.9836" lon="2.47749">
        <ele>158</ele>
        <time>2021-08-13T12:40:40Z</time>
      </trkpt>
      <trkpt lat="46.98345" lon="2.47786">
        <ele>158</ele>
        <time>2021-08-13T12:40:40Z</time>
      </trkpt>
      <trkpt lat="46.98332" lon="2.47816">
        <ele>160</ele>
        <time>2021-08-13T12:40:40Z</time>
      </trkpt>
      <trkpt lat="46.98329" lon="2.47823">
        <ele>160</ele>
        <time>2021-08-13T12:40:40Z</time>
      </trkpt>
      <trkpt lat="46.98312" lon="2.47869">
        <ele>161</ele>
        <time>2021-08-13T12:40:40Z</time>
      </trkpt>
      <trkpt lat="46.98297" lon="2.47905">
        <ele>162</ele>
        <time>2021-08-13T12:40:40Z</time>
      </trkpt>
      <trkpt lat="46.98282" lon="2.47942">
        <ele>162</ele>
        <time>2021-08-13T12:40:40Z</time>
      </trkpt>
      <trkpt lat="46.98266" lon="2.47979">
        <ele>164</ele>
        <time>2021-08-13T12:40:40Z</time>
      </trkpt>
      <trkpt lat="46.98251" lon="2.48016">
        <ele>165</ele>
        <time>2021-08-13T12:40:40Z</time>
      </trkpt>
      <trkpt lat="46.98239" lon="2.48046">
        <ele>165</ele>
        <time>2021-08-13T12:40:40Z</time>
      </trkpt>
      <trkpt lat="46.98236" lon="2.48053">
        <ele>165</ele>
        <time>2021-08-13T12:40:40Z</time>
      </trkpt>
      <trkpt lat="46.98233" lon="2.4806">
        <ele>165</ele>
        <time>2021-08-13T12:40:40Z</time>
      </trkpt>
      <trkpt lat="46.9823" lon="2.48068">
        <ele>165</ele>
        <time>2021-08-13T12:40:40Z</time>
      </trkpt>
      <trkpt lat="46.98227" lon="2.48076">
        <ele>165</ele>
        <time>2021-08-13T12:40:40Z</time>
      </trkpt>
      <trkpt lat="46.98225" lon="2.48083">
        <ele>165</ele>
        <time>2021-08-13T12:40:40Z</time>
      </trkpt>
      <trkpt lat="46.98222" lon="2.48091">
        <ele>166</ele>
        <time>2021-08-13T12:40:40Z</time>
      </trkpt>
      <trkpt lat="46.98218" lon="2.48098">
        <ele>166</ele>
        <time>2021-08-13T12:40:40Z</time>
      </trkpt>
      <trkpt lat="46.98215" lon="2.48105">
        <ele>166</ele>
        <time>2021-08-13T12:40:40Z</time>
      </trkpt>
      <trkpt lat="46.98212" lon="2.48113">
        <ele>167</ele>
        <time>2021-08-13T12:40:40Z</time>
      </trkpt>
      <trkpt lat="46.98209" lon="2.48121">
        <ele>167</ele>
        <time>2021-08-13T12:40:40Z</time>
      </trkpt>
      <trkpt lat="46.98206" lon="2.48128">
        <ele>167</ele>
        <time>2021-08-13T12:40:40Z</time>
      </trkpt>
      <trkpt lat="46.98202" lon="2.48136">
        <ele>167</ele>
        <time>2021-08-13T12:40:40Z</time>
      </trkpt>
      <trkpt lat="46.98199" lon="2.48144">
        <ele>167</ele>
        <time>2021-08-13T12:40:40Z</time>
      </trkpt>
      <trkpt lat="46.98196" lon="2.48152">
        <ele>167</ele>
        <time>2021-08-13T12:40:40Z</time>
      </trkpt>
      <trkpt lat="46.98193" lon="2.4816">
        <ele>168</ele>
        <time>2021-08-13T12:40:40Z</time>
      </trkpt>
      <trkpt lat="46.98189" lon="2.48168">
        <ele>168</ele>
        <time>2021-08-13T12:40:40Z</time>
      </trkpt>
      <trkpt lat="46.98186" lon="2.48176">
        <ele>168</ele>
        <time>2021-08-13T12:40:40Z</time>
      </trkpt>
      <trkpt lat="46.98183" lon="2.48183">
        <ele>168</ele>
        <time>2021-08-13T12:40:40Z</time>
      </trkpt>
      <trkpt lat="46.9818" lon="2.48191">
        <ele>168</ele>
        <time>2021-08-13T12:40:40Z</time>
      </trkpt>
      <trkpt lat="46.98177" lon="2.48199">
        <ele>168</ele>
        <time>2021-08-13T12:40:40Z</time>
      </trkpt>
      <trkpt lat="46.98174" lon="2.48206">
        <ele>168</ele>
        <time>2021-08-13T12:40:40Z</time>
      </trkpt>
      <trkpt lat="46.9817" lon="2.48213">
        <ele>168</ele>
        <time>2021-08-13T12:40:40Z</time>
      </trkpt>
      <trkpt lat="46.98167" lon="2.48221">
        <ele>168</ele>
        <time>2021-08-13T12:40:40Z</time>
      </trkpt>
      <trkpt lat="46.98164" lon="2.48228">
        <ele>167</ele>
        <time>2021-08-13T12:40:40Z</time>
      </trkpt>
      <trkpt lat="46.98161" lon="2.48236">
        <ele>167</ele>
        <time>2021-08-13T12:40:40Z</time>
      </trkpt>
      <trkpt lat="46.98159" lon="2.48243">
        <ele>167</ele>
        <time>2021-08-13T12:40:40Z</time>
      </trkpt>
      <trkpt lat="46.98155" lon="2.48251">
        <ele>167</ele>
        <time>2021-08-13T12:40:40Z</time>
      </trkpt>
      <trkpt lat="46.98152" lon="2.48258">
        <ele>167</ele>
        <time>2021-08-13T12:40:40Z</time>
      </trkpt>
      <trkpt lat="46.98148" lon="2.48265">
        <ele>167</ele>
        <time>2021-08-13T12:40:40Z</time>
      </trkpt>
      <trkpt lat="46.98146" lon="2.48273">
        <ele>167</ele>
        <time>2021-08-13T12:40:40Z</time>
      </trkpt>
      <trkpt lat="46.98142" lon="2.48281">
        <ele>167</ele>
        <time>2021-08-13T12:40:40Z</time>
      </trkpt>
      <trkpt lat="46.9814" lon="2.48288">
        <ele>167</ele>
        <time>2021-08-13T12:40:40Z</time>
      </trkpt>
      <trkpt lat="46.98137" lon="2.48296">
        <ele>166</ele>
        <time>2021-08-13T12:40:40Z</time>
      </trkpt>
      <trkpt lat="46.98134" lon="2.48303">
        <ele>166</ele>
        <time>2021-08-13T12:40:40Z</time>
      </trkpt>
      <trkpt lat="46.98131" lon="2.48311">
        <ele>166</ele>
        <time>2021-08-13T12:40:40Z</time>
      </trkpt>
      <trkpt lat="46.98127" lon="2.48318">
        <ele>167</ele>
        <time>2021-08-13T12:40:40Z</time>
      </trkpt>
      <trkpt lat="46.98124" lon="2.48326">
        <ele>167</ele>
        <time>2021-08-13T12:40:40Z</time>
      </trkpt>
      <trkpt lat="46.98122" lon="2.48333">
        <ele>167</ele>
        <time>2021-08-13T12:40:40Z</time>
      </trkpt>
      <trkpt lat="46.98118" lon="2.4834">
        <ele>167</ele>
        <time>2021-08-13T12:40:40Z</time>
      </trkpt>
      <trkpt lat="46.98115" lon="2.48348">
        <ele>167</ele>
        <time>2021-08-13T12:40:40Z</time>
      </trkpt>
      <trkpt lat="46.98112" lon="2.48355">
        <ele>167</ele>
        <time>2021-08-13T12:40:40Z</time>
      </trkpt>
      <trkpt lat="46.98109" lon="2.48363">
        <ele>167</ele>
        <time>2021-08-13T12:40:40Z</time>
      </trkpt>
      <trkpt lat="46.98106" lon="2.4837">
        <ele>167</ele>
        <time>2021-08-13T12:40:40Z</time>
      </trkpt>
      <trkpt lat="46.98103" lon="2.48378">
        <ele>167</ele>
        <time>2021-08-13T12:40:40Z</time>
      </trkpt>
      <trkpt lat="46.981" lon="2.48385">
        <ele>167</ele>
        <time>2021-08-13T12:40:40Z</time>
      </trkpt>
      <trkpt lat="46.98097" lon="2.48393">
        <ele>167</ele>
        <time>2021-08-13T12:40:40Z</time>
      </trkpt>
      <trkpt lat="46.98094" lon="2.48401">
        <ele>167</ele>
        <time>2021-08-13T12:40:40Z</time>
      </trkpt>
      <trkpt lat="46.98091" lon="2.48409">
        <ele>167</ele>
        <time>2021-08-13T12:40:40Z</time>
      </trkpt>
      <trkpt lat="46.98088" lon="2.48417">
        <ele>167</ele>
        <time>2021-08-13T12:40:40Z</time>
      </trkpt>
      <trkpt lat="46.98086" lon="2.48425">
        <ele>167</ele>
        <time>2021-08-13T12:40:40Z</time>
      </trkpt>
      <trkpt lat="46.98082" lon="2.48432">
        <ele>167</ele>
        <time>2021-08-13T12:40:40Z</time>
      </trkpt>
      <trkpt lat="46.98079" lon="2.48439">
        <ele>167</ele>
        <time>2021-08-13T12:40:40Z</time>
      </trkpt>
      <trkpt lat="46.98076" lon="2.48447">
        <ele>167</ele>
        <time>2021-08-13T12:40:40Z</time>
      </trkpt>
      <trkpt lat="46.98073" lon="2.48454">
        <ele>167</ele>
        <time>2021-08-13T12:40:40Z</time>
      </trkpt>
      <trkpt lat="46.98069" lon="2.48462">
        <ele>167</ele>
        <time>2021-08-13T12:40:40Z</time>
      </trkpt>
      <trkpt lat="46.98066" lon="2.48469">
        <ele>167</ele>
        <time>2021-08-13T12:40:40Z</time>
      </trkpt>
      <trkpt lat="46.98063" lon="2.48476">
        <ele>166</ele>
        <time>2021-08-13T12:40:40Z</time>
      </trkpt>
      <trkpt lat="46.9806" lon="2.48484">
        <ele>166</ele>
        <time>2021-08-13T12:40:40Z</time>
      </trkpt>
      <trkpt lat="46.98057" lon="2.48492">
        <ele>166</ele>
        <time>2021-08-13T12:40:40Z</time>
      </trkpt>
      <trkpt lat="46.98054" lon="2.48499">
        <ele>167</ele>
        <time>2021-08-13T12:40:40Z</time>
      </trkpt>
      <trkpt lat="46.98052" lon="2.48506">
        <ele>167</ele>
        <time>2021-08-13T12:40:40Z</time>
      </trkpt>
      <trkpt lat="46.98049" lon="2.48514">
        <ele>167</ele>
        <time>2021-08-13T12:40:40Z</time>
      </trkpt>
      <trkpt lat="46.98034" lon="2.4855">
        <ele>168</ele>
        <time>2021-08-13T12:40:40Z</time>
      </trkpt>
      <trkpt lat="46.9802" lon="2.48585">
        <ele>168</ele>
        <time>2021-08-13T12:40:40Z</time>
      </trkpt>
      <trkpt lat="46.98005" lon="2.48619">
        <ele>168</ele>
        <time>2021-08-13T12:40:40Z</time>
      </trkpt>
      <trkpt lat="46.97991" lon="2.48656">
        <ele>168</ele>
        <time>2021-08-13T12:40:40Z</time>
      </trkpt>
      <trkpt lat="46.97976" lon="2.48692">
        <ele>168</ele>
        <time>2021-08-13T12:40:40Z</time>
      </trkpt>
      <trkpt lat="46.97965" lon="2.48721">
        <ele>168</ele>
        <time>2021-08-13T12:40:40Z</time>
      </trkpt>
      <trkpt lat="46.97962" lon="2.48728">
        <ele>167</ele>
        <time>2021-08-13T12:40:40Z</time>
      </trkpt>
      <trkpt lat="46.97947" lon="2.48765">
        <ele>167</ele>
        <time>2021-08-13T12:40:40Z</time>
      </trkpt>
      <trkpt lat="46.97933" lon="2.48801">
        <ele>168</ele>
        <time>2021-08-13T12:40:40Z</time>
      </trkpt>
      <trkpt lat="46.97931" lon="2.48808">
        <ele>168</ele>
        <time>2021-08-13T12:40:40Z</time>
      </trkpt>
      <trkpt lat="46.97929" lon="2.48814">
        <ele>168</ele>
        <time>2021-08-13T12:40:40Z</time>
      </trkpt>
      <trkpt lat="46.97927" lon="2.48821">
        <ele>168</ele>
        <time>2021-08-13T12:40:40Z</time>
      </trkpt>
      <trkpt lat="46.97925" lon="2.48827">
        <ele>168</ele>
        <time>2021-08-13T12:40:40Z</time>
      </trkpt>
      <trkpt lat="46.97924" lon="2.48834">
        <ele>168</ele>
        <time>2021-08-13T12:40:40Z</time>
      </trkpt>
      <trkpt lat="46.97924" lon="2.48841">
        <ele>169</ele>
        <time>2021-08-13T12:40:40Z</time>
      </trkpt>
      <trkpt lat="46.97927" lon="2.48848">
        <ele>169</ele>
        <time>2021-08-13T12:40:40Z</time>
      </trkpt>
      <trkpt lat="46.97952" lon="2.48863">
        <ele>168</ele>
        <time>2021-08-13T12:40:40Z</time>
      </trkpt>
      <trkpt lat="46.97978" lon="2.48877">
        <ele>167</ele>
        <time>2021-08-13T12:40:40Z</time>
      </trkpt>
      <trkpt lat="46.98007" lon="2.4889">
        <ele>166</ele>
        <time>2021-08-13T12:40:40Z</time>
      </trkpt>
      <trkpt lat="46.98037" lon="2.48903">
        <ele>166</ele>
        <time>2021-08-13T12:40:40Z</time>
      </trkpt>
      <trkpt lat="46.98069" lon="2.48911">
        <ele>166</ele>
        <time>2021-08-13T12:40:40Z</time>
      </trkpt>
      <trkpt lat="46.98094" lon="2.48917">
        <ele>165</ele>
        <time>2021-08-13T12:40:40Z</time>
      </trkpt>
      <trkpt lat="46.98101" lon="2.48918">
        <ele>164</ele>
        <time>2021-08-13T12:40:40Z</time>
      </trkpt>
      <trkpt lat="46.98107" lon="2.48918">
        <ele>164</ele>
        <time>2021-08-13T12:40:40Z</time>
      </trkpt>
      <trkpt lat="46.98114" lon="2.4892">
        <ele>164</ele>
        <time>2021-08-13T12:40:40Z</time>
      </trkpt>
      <trkpt lat="46.98121" lon="2.48922">
        <ele>164</ele>
        <time>2021-08-13T12:40:40Z</time>
      </trkpt>
      <trkpt lat="46.98128" lon="2.48923">
        <ele>164</ele>
        <time>2021-08-13T12:40:40Z</time>
      </trkpt>
      <trkpt lat="46.98135" lon="2.48925">
        <ele>164</ele>
        <time>2021-08-13T12:40:40Z</time>
      </trkpt>
      <trkpt lat="46.98142" lon="2.48926">
        <ele>163</ele>
        <time>2021-08-13T12:40:40Z</time>
      </trkpt>
      <trkpt lat="46.98149" lon="2.48929">
        <ele>163</ele>
        <time>2021-08-13T12:40:40Z</time>
      </trkpt>
      <trkpt lat="46.98157" lon="2.48931">
        <ele>163</ele>
        <time>2021-08-13T12:40:40Z</time>
      </trkpt>
      <trkpt lat="46.98165" lon="2.48935">
        <ele>163</ele>
        <time>2021-08-13T12:40:40Z</time>
      </trkpt>
      <trkpt lat="46.98172" lon="2.48937">
        <ele>162</ele>
        <time>2021-08-13T12:40:40Z</time>
      </trkpt>
      <trkpt lat="46.98179" lon="2.48941">
        <ele>162</ele>
        <time>2021-08-13T12:40:40Z</time>
      </trkpt>
      <trkpt lat="46.98186" lon="2.48945">
        <ele>161</ele>
        <time>2021-08-13T12:40:40Z</time>
      </trkpt>
      <trkpt lat="46.98192" lon="2.48949">
        <ele>161</ele>
        <time>2021-08-13T12:40:40Z</time>
      </trkpt>
      <trkpt lat="46.98199" lon="2.48952">
        <ele>160</ele>
        <time>2021-08-13T12:40:40Z</time>
      </trkpt>
      <trkpt lat="46.98206" lon="2.48956">
        <ele>160</ele>
        <time>2021-08-13T12:40:40Z</time>
      </trkpt>
      <trkpt lat="46.98214" lon="2.4896">
        <ele>160</ele>
        <time>2021-08-13T12:40:40Z</time>
      </trkpt>
      <trkpt lat="46.98221" lon="2.48963">
        <ele>159</ele>
        <time>2021-08-13T12:40:40Z</time>
      </trkpt>
      <trkpt lat="46.98228" lon="2.48966">
        <ele>159</ele>
        <time>2021-08-13T12:40:40Z</time>
      </trkpt>
      <trkpt lat="46.98235" lon="2.48969">
        <ele>159</ele>
        <time>2021-08-13T12:40:40Z</time>
      </trkpt>
      <trkpt lat="46.98242" lon="2.48972">
        <ele>158</ele>
        <time>2021-08-13T12:40:40Z</time>
      </trkpt>
      <trkpt lat="46.98248" lon="2.48974">
        <ele>158</ele>
        <time>2021-08-13T12:40:40Z</time>
      </trkpt>
      <trkpt lat="46.98256" lon="2.48977">
        <ele>157</ele>
        <time>2021-08-13T12:40:40Z</time>
      </trkpt>
      <trkpt lat="46.98263" lon="2.48979">
        <ele>157</ele>
        <time>2021-08-13T12:40:40Z</time>
      </trkpt>
      <trkpt lat="46.98269" lon="2.48982">
        <ele>156</ele>
        <time>2021-08-13T12:40:40Z</time>
      </trkpt>
      <trkpt lat="46.98276" lon="2.48985">
        <ele>156</ele>
        <time>2021-08-13T12:40:40Z</time>
      </trkpt>
      <trkpt lat="46.98283" lon="2.48989">
        <ele>156</ele>
        <time>2021-08-13T12:40:40Z</time>
      </trkpt>
      <trkpt lat="46.98288" lon="2.48992">
        <ele>156</ele>
        <time>2021-08-13T12:40:40Z</time>
      </trkpt>
      <trkpt lat="46.98295" lon="2.48995">
        <ele>155</ele>
        <time>2021-08-13T12:40:40Z</time>
      </trkpt>
      <trkpt lat="46.98301" lon="2.48999">
        <ele>155</ele>
        <time>2021-08-13T12:40:40Z</time>
      </trkpt>
      <trkpt lat="46.98308" lon="2.49002">
        <ele>154</ele>
        <time>2021-08-13T12:40:40Z</time>
      </trkpt>
      <trkpt lat="46.98313" lon="2.49007">
        <ele>154</ele>
        <time>2021-08-13T12:40:40Z</time>
      </trkpt>
      <trkpt lat="46.98319" lon="2.49011">
        <ele>154</ele>
        <time>2021-08-13T12:40:40Z</time>
      </trkpt>
      <trkpt lat="46.98323" lon="2.49018">
        <ele>153</ele>
        <time>2021-08-13T12:40:40Z</time>
      </trkpt>
      <trkpt lat="46.98324" lon="2.49026">
        <ele>153</ele>
        <time>2021-08-13T12:40:40Z</time>
      </trkpt>
      <trkpt lat="46.98372" lon="2.48932">
        <ele>148.4</ele>
      </trkpt>
      <trkpt lat="46.98391" lon="2.48904">
        <ele>147.7</ele>
      </trkpt>
      <trkpt lat="46.98415" lon="2.48875">
        <ele>147.1</ele>
      </trkpt>
      <trkpt lat="46.98426" lon="2.48858">
        <ele>147.2</ele>
      </trkpt>
      <trkpt lat="46.98437" lon="2.48833">
        <ele>147.5</ele>
      </trkpt>
      <trkpt lat="46.98442" lon="2.48831">
        <ele>147.3</ele>
      </trkpt>
      <trkpt lat="46.98446" lon="2.48832">
        <ele>146.9</ele>
      </trkpt>
      <trkpt lat="46.98455" lon="2.48841">
        <ele>145.9</ele>
      </trkpt>
      <trkpt lat="46.98502" lon="2.48881">
        <ele>140.7</ele>
      </trkpt>
      <trkpt lat="46.98524" lon="2.48906">
        <ele>139.4</ele>
      </trkpt>
      <trkpt lat="46.98529" lon="2.48915">
        <ele>139</ele>
      </trkpt>
      <trkpt lat="46.98532" lon="2.48943">
        <ele>139.3</ele>
      </trkpt>
      <trkpt lat="46.9853" lon="2.49059">
        <ele>139.5</ele>
      </trkpt>
      <trkpt lat="46.98531" lon="2.49093">
        <ele>139.2</ele>
      </trkpt>
      <trkpt lat="46.98533" lon="2.49108">
        <ele>139</ele>
      </trkpt>
      <trkpt lat="46.98539" lon="2.49125">
        <ele>138.7</ele>
      </trkpt>
      <trkpt lat="46.98555" lon="2.49154">
        <ele>138.3</ele>
      </trkpt>
      <trkpt lat="46.98562" lon="2.49162">
        <ele>138.1</ele>
      </trkpt>
      <trkpt lat="46.98579" lon="2.49175">
        <ele>138.1</ele>
      </trkpt>
      <trkpt lat="46.98589" lon="2.49178">
        <ele>138.3</ele>
      </trkpt>
      <trkpt lat="46.98602" lon="2.49191">
        <ele>138.8</ele>
      </trkpt>
      <trkpt lat="46.98607" lon="2.49201">
        <ele>139.1</ele>
      </trkpt>
      <trkpt lat="46.98608" lon="2.49222">
        <ele>139.5</ele>
      </trkpt>
      <trkpt lat="46.98607" lon="2.49263">
        <ele>140</ele>
      </trkpt>
      <trkpt lat="46.98611" lon="2.4928">
        <ele>140.4</ele>
      </trkpt>
      <trkpt lat="46.98635" lon="2.49342">
        <ele>141</ele>
      </trkpt>
      <trkpt lat="46.9864" lon="2.49363">
        <ele>141</ele>
      </trkpt>
      <trkpt lat="46.98661" lon="2.49491">
        <ele>141</ele>
      </trkpt>
      <trkpt lat="46.98673" lon="2.49533">
        <ele>141.3</ele>
      </trkpt>
      <trkpt lat="46.9869" lon="2.49579">
        <ele>142.1</ele>
      </trkpt>
      <trkpt lat="46.98735" lon="2.49689">
        <ele>141</ele>
      </trkpt>
      <trkpt lat="46.98762" lon="2.49742">
        <ele>141.1</ele>
      </trkpt>
      <trkpt lat="46.9879" lon="2.49779">
        <ele>142.8</ele>
      </trkpt>
      <trkpt lat="46.98811" lon="2.49802">
        <ele>143.4</ele>
      </trkpt>
      <trkpt lat="46.9883" lon="2.49818">
        <ele>143.5</ele>
      </trkpt>
      <trkpt lat="46.98909" lon="2.49877">
        <ele>144.4</ele>
      </trkpt>
      <trkpt lat="46.98926" lon="2.49896">
        <ele>144.6</ele>
      </trkpt>
      <trkpt lat="46.99038" lon="2.50009">
        <ele>146.2</ele>
      </trkpt>
      <trkpt lat="46.99061" lon="2.50038">
        <ele>145.9</ele>
      </trkpt>
      <trkpt lat="46.99079" lon="2.50069">
        <ele>144.8</ele>
      </trkpt>
      <trkpt lat="46.99097" lon="2.50104">
        <ele>145.3</ele>
      </trkpt>
      <trkpt lat="46.99124" lon="2.50179">
        <ele>147.5</ele>
      </trkpt>
      <trkpt lat="46.99188" lon="2.50333">
        <ele>145.6</ele>
      </trkpt>
      <trkpt lat="46.99194" lon="2.50389">
        <ele>144.2</ele>
      </trkpt>
      <trkpt lat="46.99195" lon="2.50414">
        <ele>143.4</ele>
      </trkpt>
      <trkpt lat="46.99194" lon="2.50428">
        <ele>143.3</ele>
      </trkpt>
      <trkpt lat="46.99183" lon="2.50496">
        <ele>142.8</ele>
      </trkpt>
      <trkpt lat="46.99168" lon="2.50561">
        <ele>142.1</ele>
      </trkpt>
      <trkpt lat="46.99164" lon="2.50588">
        <ele>141.9</ele>
      </trkpt>
      <trkpt lat="46.99163" lon="2.50606">
        <ele>141.9</ele>
      </trkpt>
      <trkpt lat="46.99166" lon="2.50634">
        <ele>142</ele>
      </trkpt>
      <trkpt lat="46.99172" lon="2.50662">
        <ele>142.4</ele>
      </trkpt>
      <trkpt lat="46.9918" lon="2.50683">
        <ele>143.1</ele>
      </trkpt>
      <trkpt lat="46.99198" lon="2.50711">
        <ele>144.4</ele>
      </trkpt>
      <trkpt lat="46.99218" lon="2.50728">
        <ele>145.5</ele>
      </trkpt>
      <trkpt lat="46.99235" lon="2.50745">
        <ele>146.3</ele>
      </trkpt>
      <trkpt lat="46.99349" lon="2.50893">
        <ele>155.8</ele>
      </trkpt>
      <trkpt lat="46.99373" lon="2.50915">
        <ele>156.5</ele>
      </trkpt>
      <trkpt lat="46.99377" lon="2.50916">
        <ele>156.5</ele>
      </trkpt>
      <trkpt lat="46.99382" lon="2.50914">
        <ele>156.4</ele>
      </trkpt>
      <trkpt lat="46.99406" lon="2.50948">
        <ele>157.5</ele>
      </trkpt>
      <trkpt lat="46.99421" lon="2.50971">
        <ele>158.6</ele>
      </trkpt>
      <trkpt lat="46.99443" lon="2.51007">
        <ele>159.9</ele>
      </trkpt>
      <trkpt lat="46.99462" lon="2.51046">
        <ele>160.8</ele>
      </trkpt>
      <trkpt lat="46.9947" lon="2.51051">
        <ele>160.8</ele>
      </trkpt>
      <trkpt lat="46.99471" lon="2.51055">
        <ele>160.9</ele>
      </trkpt>
      <trkpt lat="46.99506" lon="2.51083">
        <ele>161</ele>
      </trkpt>
      <trkpt lat="46.99692" lon="2.51242">
        <ele>167.6</ele>
      </trkpt>
      <trkpt lat="46.99746" lon="2.51291">
        <ele>168.9</ele>
      </trkpt>
      <trkpt lat="46.99801" lon="2.51354">
        <ele>170.7</ele>
      </trkpt>
      <trkpt lat="46.99843" lon="2.51412">
        <ele>171</ele>
      </trkpt>
      <trkpt lat="46.9988" lon="2.51468">
        <ele>171.3</ele>
      </trkpt>
      <trkpt lat="46.99977" lon="2.51629">
        <ele>172.7</ele>
      </trkpt>
      <trkpt lat="47.00043" lon="2.5173">
        <ele>173.3</ele>
      </trkpt>
      <trkpt lat="47.00112" lon="2.51829">
        <ele>173.7</ele>
      </trkpt>
      <trkpt lat="47.00134" lon="2.51867">
        <ele>173.2</ele>
      </trkpt>
      <trkpt lat="47.0018" lon="2.51973">
        <ele>172.3</ele>
      </trkpt>
      <trkpt lat="47.00203" lon="2.52016">
        <ele>172.1</ele>
      </trkpt>
      <trkpt lat="47.00269" lon="2.52126">
        <ele>172.9</ele>
      </trkpt>
      <trkpt lat="47.00297" lon="2.52163">
        <ele>173</ele>
      </trkpt>
      <trkpt lat="47.00457" lon="2.52308">
        <ele>170.3</ele>
      </trkpt>
      <trkpt lat="47.00486" lon="2.52337">
        <ele>169.9</ele>
      </trkpt>
      <trkpt lat="47.00575" lon="2.52453">
        <ele>166.7</ele>
      </trkpt>
      <trkpt lat="47.00627" lon="2.52539">
        <ele>164.5</ele>
      </trkpt>
      <trkpt lat="47.00828" lon="2.52895">
        <ele>167.5</ele>
      </trkpt>
      <trkpt lat="47.00949" lon="2.53154">
        <ele>165</ele>
      </trkpt>
      <trkpt lat="47.00974" lon="2.53197">
        <ele>163.4</ele>
      </trkpt>
      <trkpt lat="47.01016" lon="2.53235">
        <ele>160.4</ele>
      </trkpt>
      <trkpt lat="47.01158" lon="2.53349">
        <ele>158.8</ele>
      </trkpt>
      <trkpt lat="47.02108" lon="2.50581">
        <ele>177.2</ele>
      </trkpt>
      <trkpt lat="47.02247" lon="2.50178">
        <ele>181.8</ele>
      </trkpt>
      <trkpt lat="47.0239" lon="2.49759">
        <ele>176.1</ele>
      </trkpt>
      <trkpt lat="47.02397" lon="2.49735">
        <ele>175.4</ele>
      </trkpt>
      <trkpt lat="47.02412" lon="2.49668">
        <ele>173.3</ele>
      </trkpt>
      <trkpt lat="47.02478" lon="2.49333">
        <ele>173</ele>
      </trkpt>
      <trkpt lat="47.02491" lon="2.49287">
        <ele>173.5</ele>
      </trkpt>
      <trkpt lat="47.02509" lon="2.49243">
        <ele>173.8</ele>
      </trkpt>
      <trkpt lat="47.02519" lon="2.49223">
        <ele>173.5</ele>
      </trkpt>
      <trkpt lat="47.02539" lon="2.49197">
        <ele>173.2</ele>
      </trkpt>
      <trkpt lat="47.02609" lon="2.49121">
        <ele>173</ele>
      </trkpt>
      <trkpt lat="47.0264" lon="2.49081">
        <ele>173</ele>
      </trkpt>
      <trkpt lat="47.02659" lon="2.4905">
        <ele>172.6</ele>
      </trkpt>
      <trkpt lat="47.02695" lon="2.48976">
        <ele>172.1</ele>
      </trkpt>
      <trkpt lat="47.02714" lon="2.48944">
        <ele>171.9</ele>
      </trkpt>
      <trkpt lat="47.02725" lon="2.48933">
        <ele>171.7</ele>
      </trkpt>
      <trkpt lat="47.0275" lon="2.4892">
        <ele>171</ele>
      </trkpt>
      <trkpt lat="47.02797" lon="2.489">
        <ele>169.5</ele>
      </trkpt>
      <trkpt lat="47.02823" lon="2.48884">
        <ele>168.8</ele>
      </trkpt>
      <trkpt lat="47.02852" lon="2.4886">
        <ele>167.9</ele>
      </trkpt>
      <trkpt lat="47.0286" lon="2.48849">
        <ele>167.6</ele>
      </trkpt>
      <trkpt lat="47.02866" lon="2.48838">
        <ele>167.3</ele>
      </trkpt>
      <trkpt lat="47.02871" lon="2.48826">
        <ele>167</ele>
      </trkpt>
      <trkpt lat="47.02906" lon="2.48495">
        <ele>164.2</ele>
      </trkpt>
      <trkpt lat="47.02918" lon="2.48431">
        <ele>164.8</ele>
      </trkpt>
      <trkpt lat="47.0293" lon="2.48405">
        <ele>164.7</ele>
      </trkpt>
      <trkpt lat="47.03143" lon="2.48101">
        <ele>162.1</ele>
      </trkpt>
      <trkpt lat="47.03224" lon="2.47984">
        <ele>160.3</ele>
      </trkpt>
      <trkpt lat="47.03409" lon="2.47722">
        <ele>160.4</ele>
      </trkpt>
      <trkpt lat="47.03481" lon="2.47619">
        <ele>164.3</ele>
      </trkpt>
      <trkpt lat="47.03553" lon="2.47512">
        <ele>164.7</ele>
      </trkpt>
      <trkpt lat="47.03629" lon="2.4739">
        <ele>163</ele>
      </trkpt>
      <trkpt lat="47.03888" lon="2.46941">
        <ele>159.6</ele>
      </trkpt>
      <trkpt lat="47.03905" lon="2.46918">
        <ele>158.9</ele>
      </trkpt>
      <trkpt lat="47.03963" lon="2.46852">
        <ele>156.5</ele>
      </trkpt>
      <trkpt lat="47.03982" lon="2.46827">
        <ele>155.4</ele>
      </trkpt>
      <trkpt lat="47.04031" lon="2.46751">
        <ele>151.4</ele>
      </trkpt>
      <trkpt lat="47.04084" lon="2.46665">
        <ele>149</ele>
      </trkpt>
      <trkpt lat="47.04104" lon="2.46628">
        <ele>149.7</ele>
      </trkpt>
      <trkpt lat="47.04144" lon="2.46549">
        <ele>151.4</ele>
      </trkpt>
      <trkpt lat="47.04191" lon="2.46449">
        <ele>153.5</ele>
      </trkpt>
      <trkpt lat="47.044" lon="2.45998">
        <ele>159.2</ele>
      </trkpt>
      <trkpt lat="47.04458" lon="2.45853">
        <ele>155.6</ele>
      </trkpt>
      <trkpt lat="47.04506" lon="2.45722">
        <ele>154</ele>
      </trkpt>
      <trkpt lat="47.04585" lon="2.45508">
        <ele>150</ele>
      </trkpt>
      <trkpt lat="47.04598" lon="2.45475">
        <ele>150.4</ele>
      </trkpt>
      <trkpt lat="47.04614" lon="2.45439">
        <ele>151</ele>
      </trkpt>
      <trkpt lat="47.0463" lon="2.45408">
        <ele>151.9</ele>
      </trkpt>
      <trkpt lat="47.04669" lon="2.45345">
        <ele>155.6</ele>
      </trkpt>
      <trkpt lat="47.04755" lon="2.45219">
        <ele>162</ele>
      </trkpt>
      <trkpt lat="47.048" lon="2.4515">
        <ele>164.9</ele>
      </trkpt>
      <trkpt lat="47.04837" lon="2.45087">
        <ele>164.2</ele>
      </trkpt>
      <trkpt lat="47.04926" lon="2.4491">
        <ele>162.6</ele>
      </trkpt>
      <trkpt lat="47.04921" lon="2.44899">
        <ele>162.6</ele>
      </trkpt>
      <trkpt lat="47.04852" lon="2.44742">
        <ele>162.8</ele>
      </trkpt>
      <trkpt lat="47.04837" lon="2.44714">
        <ele>163</ele>
      </trkpt>
      <trkpt lat="47.04807" lon="2.44669">
        <ele>163</ele>
      </trkpt>
      <trkpt lat="47.04792" lon="2.4465">
        <ele>162.7</ele>
      </trkpt>
      <trkpt lat="47.04755" lon="2.44611">
        <ele>161.7</ele>
      </trkpt>
      <trkpt lat="47.04735" lon="2.44595">
        <ele>161.2</ele>
      </trkpt>
      <trkpt lat="47.04673" lon="2.44549">
        <ele>160.6</ele>
      </trkpt>
      <trkpt lat="47.04641" lon="2.44522">
        <ele>159.9</ele>
      </trkpt>
      <trkpt lat="47.04626" lon="2.44506">
        <ele>159.5</ele>
      </trkpt>
      <trkpt lat="47.04593" lon="2.44465">
        <ele>158.3</ele>
      </trkpt>
      <trkpt lat="47.04497" lon="2.44333">
        <ele>155.9</ele>
      </trkpt>
      <trkpt lat="47.04492" lon="2.44324">
        <ele>155.5</ele>
      </trkpt>
      <trkpt lat="47.04452" lon="2.44227">
        <ele>153.2</ele>
      </trkpt>
      <trkpt lat="47.04381" lon="2.44074">
        <ele>147.8</ele>
      </trkpt>
      <trkpt lat="47.04299" lon="2.43898">
        <ele>143.8</ele>
      </trkpt>
      <trkpt lat="47.04263" lon="2.43829">
        <ele>141.4</ele>
      </trkpt>
      <trkpt lat="47.04226" lon="2.43765">
        <ele>139</ele>
      </trkpt>
      <trkpt lat="47.04204" lon="2.4373">
        <ele>137.8</ele>
      </trkpt>
      <trkpt lat="47.04181" lon="2.43698">
        <ele>136.7</ele>
      </trkpt>
      <trkpt lat="47.04149" lon="2.43647">
        <ele>135.3</ele>
      </trkpt>
      <trkpt lat="47.04115" lon="2.43579">
        <ele>133.5</ele>
      </trkpt>
      <trkpt lat="47.04073" lon="2.43487">
        <ele>130.9</ele>
      </trkpt>
      <trkpt lat="47.04063" lon="2.43468">
        <ele>130.7</ele>
      </trkpt>
      <trkpt lat="47.04023" lon="2.43408">
        <ele>130.3</ele>
      </trkpt>
      <trkpt lat="47.04015" lon="2.43417">
        <ele>130.2</ele>
      </trkpt>
      <trkpt lat="47.04023" lon="2.43408">
        <ele>130.3</ele>
      </trkpt>
      <trkpt lat="47.04045" lon="2.43371">
        <ele>130.5</ele>
      </trkpt>
      <trkpt lat="47.04061" lon="2.43342">
        <ele>130.7</ele>
      </trkpt>
      <trkpt lat="47.04074" lon="2.43314">
        <ele>130.7</ele>
      </trkpt>
      <trkpt lat="47.04078" lon="2.43303">
        <ele>130.6</ele>
      </trkpt>
      <trkpt lat="47.04175" lon="2.43069">
        <ele>127.6</ele>
      </trkpt>
      <trkpt lat="47.04192" lon="2.43018">
        <ele>129</ele>
      </trkpt>
      <trkpt lat="47.04243" lon="2.42799">
        <ele>130</ele>
      </trkpt>
      <trkpt lat="47.04267" lon="2.42736">
        <ele>129.7</ele>
      </trkpt>
      <trkpt lat="47.04286" lon="2.42694">
        <ele>130.1</ele>
      </trkpt>
      <trkpt lat="47.04423" lon="2.42405">
        <ele>130</ele>
      </trkpt>
      <trkpt lat="47.04448" lon="2.4236">
        <ele>129.8</ele>
      </trkpt>
      <trkpt lat="47.04493" lon="2.42293">
        <ele>130</ele>
      </trkpt>
      <trkpt lat="47.0452" lon="2.42248">
        <ele>130</ele>
      </trkpt>
      <trkpt lat="47.04567" lon="2.42142">
        <ele>129.5</ele>
      </trkpt>
      <trkpt lat="47.04608" lon="2.42058">
        <ele>129.5</ele>
      </trkpt>
      <trkpt lat="47.04715" lon="2.41862">
        <ele>128.2</ele>
      </trkpt>
      <trkpt lat="47.04729" lon="2.41833">
        <ele>128.7</ele>
      </trkpt>
      <trkpt lat="47.04783" lon="2.41702">
        <ele>128.8</ele>
      </trkpt>
      <trkpt lat="47.04825" lon="2.41594">
        <ele>130.8</ele>
      </trkpt>
      <trkpt lat="47.04844" lon="2.41524">
        <ele>131.9</ele>
      </trkpt>
      <trkpt lat="47.04859" lon="2.41441">
        <ele>131.2</ele>
      </trkpt>
      <trkpt lat="47.04886" lon="2.4131">
        <ele>130.3</ele>
      </trkpt>
      <trkpt lat="47.04924" lon="2.41113">
        <ele>130.9</ele>
      </trkpt>
      <trkpt lat="47.04946" lon="2.40918">
        <ele>129.1</ele>
      </trkpt>
      <trkpt lat="47.04946" lon="2.40896">
        <ele>128.6</ele>
      </trkpt>
      <trkpt lat="47.04942" lon="2.40853">
        <ele>127.6</ele>
      </trkpt>
      <trkpt lat="47.04967" lon="2.40826">
        <ele>128.1</ele>
      </trkpt>
      <trkpt lat="47.0504" lon="2.40733">
        <ele>127.4</ele>
      </trkpt>
      <trkpt lat="47.05071" lon="2.40704">
        <ele>128.9</ele>
      </trkpt>
      <trkpt lat="47.05082" lon="2.40696">
        <ele>129.3</ele>
      </trkpt>
      <trkpt lat="47.05113" lon="2.40678">
        <ele>129.2</ele>
      </trkpt>
      <trkpt lat="47.05145" lon="2.40664">
        <ele>129</ele>
      </trkpt>
      <trkpt lat="47.05373" lon="2.40572">
        <ele>126.8</ele>
      </trkpt>
      <trkpt lat="47.05376" lon="2.40582">
        <ele>126.5</ele>
      </trkpt>
      <trkpt lat="47.05383" lon="2.40588">
        <ele>126.4</ele>
      </trkpt>
      <trkpt lat="47.05386" lon="2.40589">
        <ele>126.3</ele>
      </trkpt>
      <trkpt lat="47.0539" lon="2.40588">
        <ele>126.2</ele>
      </trkpt>
      <trkpt lat="47.05397" lon="2.40581">
        <ele>125.7</ele>
      </trkpt>
      <trkpt lat="47.05399" lon="2.40577">
        <ele>125.7</ele>
      </trkpt>
      <trkpt lat="47.05401" lon="2.4057">
        <ele>125.7</ele>
      </trkpt>
      <trkpt lat="47.054" lon="2.40559">
        <ele>125.9</ele>
      </trkpt>
      <trkpt lat="47.05428" lon="2.40547">
        <ele>125.6</ele>
      </trkpt>
      <trkpt lat="47.05458" lon="2.40532">
        <ele>126</ele>
      </trkpt>
      <trkpt lat="47.05561" lon="2.40476">
        <ele>128.4</ele>
      </trkpt>
      <trkpt lat="47.05701" lon="2.40395">
        <ele>127.6</ele>
      </trkpt>
      <trkpt lat="47.05815" lon="2.40343">
        <ele>129</ele>
      </trkpt>
      <trkpt lat="47.05853" lon="2.40316">
        <ele>130.6</ele>
      </trkpt>
      <trkpt lat="47.05889" lon="2.40288">
        <ele>132.3</ele>
      </trkpt>
      <trkpt lat="47.05916" lon="2.40261">
        <ele>132.4</ele>
      </trkpt>
      <trkpt lat="47.05984" lon="2.40184">
        <ele>131.4</ele>
      </trkpt>
      <trkpt lat="47.05996" lon="2.40174">
        <ele>131.2</ele>
      </trkpt>
      <trkpt lat="47.06034" lon="2.40149">
        <ele>133.7</ele>
      </trkpt>
      <trkpt lat="47.06051" lon="2.40138">
        <ele>134.5</ele>
      </trkpt>
      <trkpt lat="47.06007" lon="2.40234">
        <ele>135</ele>
      </trkpt>
      <trkpt lat="47.05996" lon="2.40273">
        <ele>136.5</ele>
      </trkpt>
      <trkpt lat="47.05963" lon="2.40523">
        <ele>138.4</ele>
      </trkpt>
      <trkpt lat="47.05959" lon="2.40575">
        <ele>137.2</ele>
      </trkpt>
      <trkpt lat="47.05962" lon="2.40626">
        <ele>137.5</ele>
      </trkpt>
      <trkpt lat="47.05969" lon="2.40659">
        <ele>138.1</ele>
      </trkpt>
      <trkpt lat="47.05981" lon="2.40689">
        <ele>138.4</ele>
      </trkpt>
      <trkpt lat="47.06007" lon="2.40734">
        <ele>139</ele>
      </trkpt>
      <trkpt lat="47.06041" lon="2.40778">
        <ele>142.2</ele>
      </trkpt>
      <trkpt lat="47.06348" lon="2.41154">
        <ele>150.9</ele>
      </trkpt>
      <trkpt lat="47.06392" lon="2.412">
        <ele>149.1</ele>
      </trkpt>
      <trkpt lat="47.06414" lon="2.41216">
        <ele>148.3</ele>
      </trkpt>
      <trkpt lat="47.06444" lon="2.41228">
        <ele>147.3</ele>
      </trkpt>
      <trkpt lat="47.06445" lon="2.41205">
        <ele>146.9</ele>
      </trkpt>
      <trkpt lat="47.0645" lon="2.4119">
        <ele>146.5</ele>
      </trkpt>
      <trkpt lat="47.06513" lon="2.41122">
        <ele>144.2</ele>
      </trkpt>
      <trkpt lat="47.06568" lon="2.41091">
        <ele>144.7</ele>
      </trkpt>
      <trkpt lat="47.06583" lon="2.41085">
        <ele>145</ele>
      </trkpt>
      <trkpt lat="47.0661" lon="2.41075">
        <ele>146.5</ele>
      </trkpt>
      <trkpt lat="47.06687" lon="2.41057">
        <ele>150.5</ele>
      </trkpt>
      <trkpt lat="47.06695" lon="2.41056">
        <ele>150.7</ele>
      </trkpt>
      <trkpt lat="47.06661" lon="2.40794">
        <ele>148.5</ele>
      </trkpt>
      <trkpt lat="47.06658" lon="2.40755">
        <ele>148.3</ele>
      </trkpt>
    </trkseg>
  </trk>
</gpx>